<?xml version="1.0"?>
<gpx creator="GPS Visualizer http://www.gpsvisualizer.com/" version="1.1" xmlns="http://www.topografix.com/GPX/1/1" xmlns:xsi="http://www.w3.org/2001/XMLSchema-instance" xsi:schemaLocation="http://www.topografix.com/GPX/1/1 http://www.topografix.com/GPX/1/1/gpx.xsd">
<trk>
  <name>2015-09-06-01</name>
  <trkseg>
    <trkpt lat="48.473775" lon="2.656806">
      <ele>86.976</ele>
      <time>2015-09-06T07:41:12Z</time>
    </trkpt>
    <trkpt lat="48.473798" lon="2.656845">
      <ele>87.228</ele>
      <time>2015-09-06T07:41:13Z</time>
    </trkpt>
    <trkpt lat="48.473626" lon="2.656879">
      <ele>85.884</ele>
      <time>2015-09-06T07:41:28Z</time>
    </trkpt>
    <trkpt lat="48.473532" lon="2.656944">
      <ele>85.429</ele>
      <time>2015-09-06T07:41:31Z</time>
    </trkpt>
    <trkpt lat="48.473434" lon="2.656987">
      <ele>84.725</ele>
      <time>2015-09-06T07:41:34Z</time>
    </trkpt>
    <trkpt lat="48.473337" lon="2.657036">
      <ele>84.026</ele>
      <time>2015-09-06T07:41:37Z</time>
    </trkpt>
    <trkpt lat="48.473222" lon="2.657111">
      <ele>83.599</ele>
      <time>2015-09-06T07:41:40Z</time>
    </trkpt>
    <trkpt lat="48.473142" lon="2.657175">
      <ele>83.311</ele>
      <time>2015-09-06T07:41:41Z</time>
    </trkpt>
    <trkpt lat="48.473048" lon="2.657246">
      <ele>83.083</ele>
      <time>2015-09-06T07:41:43Z</time>
    </trkpt>
    <trkpt lat="48.472911" lon="2.657355">
      <ele>83.229</ele>
      <time>2015-09-06T07:41:46Z</time>
    </trkpt>
    <trkpt lat="48.472779" lon="2.657451">
      <ele>83.004</ele>
      <time>2015-09-06T07:41:49Z</time>
    </trkpt>
    <trkpt lat="48.472684" lon="2.657504">
      <ele>83.014</ele>
      <time>2015-09-06T07:41:51Z</time>
    </trkpt>
    <trkpt lat="48.472515" lon="2.657662">
      <ele>83.583</ele>
      <time>2015-09-06T07:41:54Z</time>
    </trkpt>
    <trkpt lat="48.472429" lon="2.657753">
      <ele>83.911</ele>
      <time>2015-09-06T07:41:56Z</time>
    </trkpt>
    <trkpt lat="48.472351" lon="2.657861">
      <ele>84.0</ele>
      <time>2015-09-06T07:41:58Z</time>
    </trkpt>
    <trkpt lat="48.472264" lon="2.657918">
      <ele>84.0</ele>
      <time>2015-09-06T07:42:00Z</time>
    </trkpt>
    <trkpt lat="48.472159" lon="2.657983">
      <ele>83.772</ele>
      <time>2015-09-06T07:42:02Z</time>
    </trkpt>
    <trkpt lat="48.472009" lon="2.658153">
      <ele>83.232</ele>
      <time>2015-09-06T07:42:04Z</time>
    </trkpt>
    <trkpt lat="48.471924" lon="2.658234">
      <ele>82.879</ele>
      <time>2015-09-06T07:42:06Z</time>
    </trkpt>
    <trkpt lat="48.471838" lon="2.658289">
      <ele>82.295</ele>
      <time>2015-09-06T07:42:08Z</time>
    </trkpt>
    <trkpt lat="48.471725" lon="2.658382">
      <ele>81.346</ele>
      <time>2015-09-06T07:42:10Z</time>
    </trkpt>
    <trkpt lat="48.471626" lon="2.658475">
      <ele>81.075</ele>
      <time>2015-09-06T07:42:12Z</time>
    </trkpt>
    <trkpt lat="48.471492" lon="2.65857">
      <ele>81.536</ele>
      <time>2015-09-06T07:42:14Z</time>
    </trkpt>
    <trkpt lat="48.471387" lon="2.658645">
      <ele>82.13</ele>
      <time>2015-09-06T07:42:17Z</time>
    </trkpt>
    <trkpt lat="48.471301" lon="2.658703">
      <ele>82.857</ele>
      <time>2015-09-06T07:42:20Z</time>
    </trkpt>
    <trkpt lat="48.47121" lon="2.658773">
      <ele>83.977</ele>
      <time>2015-09-06T07:42:23Z</time>
    </trkpt>
    <trkpt lat="48.471111" lon="2.658881">
      <ele>85.916</ele>
      <time>2015-09-06T07:42:25Z</time>
    </trkpt>
    <trkpt lat="48.471016" lon="2.658875">
      <ele>86.877</ele>
      <time>2015-09-06T07:42:27Z</time>
    </trkpt>
    <trkpt lat="48.470875" lon="2.658857">
      <ele>88.206</ele>
      <time>2015-09-06T07:42:30Z</time>
    </trkpt>
    <trkpt lat="48.470742" lon="2.658836">
      <ele>89.149</ele>
      <time>2015-09-06T07:42:32Z</time>
    </trkpt>
    <trkpt lat="48.470622" lon="2.658789">
      <ele>89.716</ele>
      <time>2015-09-06T07:42:34Z</time>
    </trkpt>
    <trkpt lat="48.470453" lon="2.658866">
      <ele>90.896</ele>
      <time>2015-09-06T07:42:36Z</time>
    </trkpt>
    <trkpt lat="48.470319" lon="2.658879">
      <ele>90.989</ele>
      <time>2015-09-06T07:42:38Z</time>
    </trkpt>
    <trkpt lat="48.470191" lon="2.658877">
      <ele>90.987</ele>
      <time>2015-09-06T07:42:40Z</time>
    </trkpt>
    <trkpt lat="48.470082" lon="2.658857">
      <ele>90.919</ele>
      <time>2015-09-06T07:42:42Z</time>
    </trkpt>
    <trkpt lat="48.469983" lon="2.658839">
      <ele>90.759</ele>
      <time>2015-09-06T07:42:44Z</time>
    </trkpt>
    <trkpt lat="48.469863" lon="2.658774">
      <ele>90.093</ele>
      <time>2015-09-06T07:42:46Z</time>
    </trkpt>
    <trkpt lat="48.46972" lon="2.658767">
      <ele>89.573</ele>
      <time>2015-09-06T07:42:48Z</time>
    </trkpt>
    <trkpt lat="48.469587" lon="2.658748">
      <ele>90.227</ele>
      <time>2015-09-06T07:42:50Z</time>
    </trkpt>
    <trkpt lat="48.469492" lon="2.65877">
      <ele>90.756</ele>
      <time>2015-09-06T07:42:51Z</time>
    </trkpt>
    <trkpt lat="48.469382" lon="2.658776">
      <ele>91.45</ele>
      <time>2015-09-06T07:42:53Z</time>
    </trkpt>
    <trkpt lat="48.469267" lon="2.65878">
      <ele>92.278</ele>
      <time>2015-09-06T07:42:55Z</time>
    </trkpt>
    <trkpt lat="48.469144" lon="2.658742">
      <ele>93.082</ele>
      <time>2015-09-06T07:42:58Z</time>
    </trkpt>
    <trkpt lat="48.469023" lon="2.658695">
      <ele>93.517</ele>
      <time>2015-09-06T07:43:01Z</time>
    </trkpt>
    <trkpt lat="48.468869" lon="2.658714">
      <ele>94.072</ele>
      <time>2015-09-06T07:43:03Z</time>
    </trkpt>
    <trkpt lat="48.468738" lon="2.658681">
      <ele>94.543</ele>
      <time>2015-09-06T07:43:07Z</time>
    </trkpt>
    <trkpt lat="48.468572" lon="2.658659">
      <ele>94.883</ele>
      <time>2015-09-06T07:43:10Z</time>
    </trkpt>
    <trkpt lat="48.468448" lon="2.658681">
      <ele>94.561</ele>
      <time>2015-09-06T07:43:12Z</time>
    </trkpt>
    <trkpt lat="48.468357" lon="2.65869">
      <ele>94.345</ele>
      <time>2015-09-06T07:43:14Z</time>
    </trkpt>
    <trkpt lat="48.468255" lon="2.658681">
      <ele>94.252</ele>
      <time>2015-09-06T07:43:16Z</time>
    </trkpt>
    <trkpt lat="48.467996" lon="2.658608">
      <ele>94.0</ele>
      <time>2015-09-06T07:43:22Z</time>
    </trkpt>
    <trkpt lat="48.467906" lon="2.658547">
      <ele>94.0</ele>
      <time>2015-09-06T07:43:24Z</time>
    </trkpt>
    <trkpt lat="48.467798" lon="2.658554">
      <ele>94.0</ele>
      <time>2015-09-06T07:43:26Z</time>
    </trkpt>
    <trkpt lat="48.467654" lon="2.658489">
      <ele>94.446</ele>
      <time>2015-09-06T07:43:29Z</time>
    </trkpt>
    <trkpt lat="48.46752" lon="2.658502">
      <ele>94.928</ele>
      <time>2015-09-06T07:43:31Z</time>
    </trkpt>
    <trkpt lat="48.467413" lon="2.658519">
      <ele>95.94</ele>
      <time>2015-09-06T07:43:33Z</time>
    </trkpt>
    <trkpt lat="48.467254" lon="2.658527">
      <ele>97.657</ele>
      <time>2015-09-06T07:43:36Z</time>
    </trkpt>
    <trkpt lat="48.467135" lon="2.65851">
      <ele>98.114</ele>
      <time>2015-09-06T07:43:38Z</time>
    </trkpt>
    <trkpt lat="48.467024" lon="2.658473">
      <ele>98.355</ele>
      <time>2015-09-06T07:43:40Z</time>
    </trkpt>
    <trkpt lat="48.466927" lon="2.658408">
      <ele>98.622</ele>
      <time>2015-09-06T07:43:43Z</time>
    </trkpt>
    <trkpt lat="48.466845" lon="2.658351">
      <ele>98.243</ele>
      <time>2015-09-06T07:43:45Z</time>
    </trkpt>
    <trkpt lat="48.466727" lon="2.658366">
      <ele>97.409</ele>
      <time>2015-09-06T07:43:47Z</time>
    </trkpt>
    <trkpt lat="48.466583" lon="2.658391">
      <ele>97.0</ele>
      <time>2015-09-06T07:43:49Z</time>
    </trkpt>
    <trkpt lat="48.46646" lon="2.658402">
      <ele>97.0</ele>
      <time>2015-09-06T07:43:51Z</time>
    </trkpt>
    <trkpt lat="48.466324" lon="2.658393">
      <ele>97.0</ele>
      <time>2015-09-06T07:43:53Z</time>
    </trkpt>
    <trkpt lat="48.466172" lon="2.658347">
      <ele>97.0</ele>
      <time>2015-09-06T07:43:56Z</time>
    </trkpt>
    <trkpt lat="48.466054" lon="2.658397">
      <ele>97.206</ele>
      <time>2015-09-06T07:43:59Z</time>
    </trkpt>
    <trkpt lat="48.465917" lon="2.658447">
      <ele>97.699</ele>
      <time>2015-09-06T07:44:02Z</time>
    </trkpt>
    <trkpt lat="48.465828" lon="2.658503">
      <ele>98.038</ele>
      <time>2015-09-06T07:44:04Z</time>
    </trkpt>
    <trkpt lat="48.465708" lon="2.658575">
      <ele>98.902</ele>
      <time>2015-09-06T07:44:06Z</time>
    </trkpt>
    <trkpt lat="48.46561" lon="2.658578">
      <ele>99.608</ele>
      <time>2015-09-06T07:44:08Z</time>
    </trkpt>
    <trkpt lat="48.465509" lon="2.658492">
      <ele>100.168</ele>
      <time>2015-09-06T07:44:10Z</time>
    </trkpt>
    <trkpt lat="48.465397" lon="2.658447">
      <ele>100.571</ele>
      <time>2015-09-06T07:44:13Z</time>
    </trkpt>
    <trkpt lat="48.465293" lon="2.658491">
      <ele>100.945</ele>
      <time>2015-09-06T07:44:16Z</time>
    </trkpt>
    <trkpt lat="48.46507" lon="2.658522">
      <ele>100.492</ele>
      <time>2015-09-06T07:44:22Z</time>
    </trkpt>
    <trkpt lat="48.464984" lon="2.658582">
      <ele>100.047</ele>
      <time>2015-09-06T07:44:24Z</time>
    </trkpt>
    <trkpt lat="48.464882" lon="2.658549">
      <ele>99.799</ele>
      <time>2015-09-06T07:44:26Z</time>
    </trkpt>
    <trkpt lat="48.46479" lon="2.658509">
      <ele>99.612</ele>
      <time>2015-09-06T07:44:28Z</time>
    </trkpt>
    <trkpt lat="48.464665" lon="2.65851">
      <ele>99.495</ele>
      <time>2015-09-06T07:44:31Z</time>
    </trkpt>
    <trkpt lat="48.46455" lon="2.658547">
      <ele>99.708</ele>
      <time>2015-09-06T07:44:34Z</time>
    </trkpt>
    <trkpt lat="48.46444" lon="2.65862">
      <ele>100.017</ele>
      <time>2015-09-06T07:44:36Z</time>
    </trkpt>
    <trkpt lat="48.464343" lon="2.658689">
      <ele>100.468</ele>
      <time>2015-09-06T07:44:38Z</time>
    </trkpt>
    <trkpt lat="48.46426" lon="2.658757">
      <ele>101.013</ele>
      <time>2015-09-06T07:44:40Z</time>
    </trkpt>
    <trkpt lat="48.46415" lon="2.658844">
      <ele>101.848</ele>
      <time>2015-09-06T07:44:42Z</time>
    </trkpt>
    <trkpt lat="48.463995" lon="2.658963">
      <ele>102.0</ele>
      <time>2015-09-06T07:44:44Z</time>
    </trkpt>
    <trkpt lat="48.463897" lon="2.659027">
      <ele>102.0</ele>
      <time>2015-09-06T07:44:46Z</time>
    </trkpt>
    <trkpt lat="48.463753" lon="2.659126">
      <ele>102.0</ele>
      <time>2015-09-06T07:44:50Z</time>
    </trkpt>
    <trkpt lat="48.463658" lon="2.659167">
      <ele>102.0</ele>
      <time>2015-09-06T07:44:52Z</time>
    </trkpt>
    <trkpt lat="48.463562" lon="2.659243">
      <ele>102.177</ele>
      <time>2015-09-06T07:44:55Z</time>
    </trkpt>
    <trkpt lat="48.463467" lon="2.659302">
      <ele>102.519</ele>
      <time>2015-09-06T07:44:58Z</time>
    </trkpt>
    <trkpt lat="48.463382" lon="2.659356">
      <ele>102.825</ele>
      <time>2015-09-06T07:45:00Z</time>
    </trkpt>
    <trkpt lat="48.463302" lon="2.659442">
      <ele>102.886</ele>
      <time>2015-09-06T07:45:02Z</time>
    </trkpt>
    <trkpt lat="48.463216" lon="2.659554">
      <ele>102.516</ele>
      <time>2015-09-06T07:45:05Z</time>
    </trkpt>
    <trkpt lat="48.463131" lon="2.659607">
      <ele>102.539</ele>
      <time>2015-09-06T07:45:07Z</time>
    </trkpt>
    <trkpt lat="48.463034" lon="2.65967">
      <ele>102.734</ele>
      <time>2015-09-06T07:45:09Z</time>
    </trkpt>
    <trkpt lat="48.462916" lon="2.659734">
      <ele>102.498</ele>
      <time>2015-09-06T07:45:12Z</time>
    </trkpt>
    <trkpt lat="48.462828" lon="2.659769">
      <ele>102.181</ele>
      <time>2015-09-06T07:45:15Z</time>
    </trkpt>
    <trkpt lat="48.462703" lon="2.659958">
      <ele>101.69</ele>
      <time>2015-09-06T07:45:17Z</time>
    </trkpt>
    <trkpt lat="48.462513" lon="2.660085">
      <ele>100.755</ele>
      <time>2015-09-06T07:45:25Z</time>
    </trkpt>
    <trkpt lat="48.462453" lon="2.660187">
      <ele>100.216</ele>
      <time>2015-09-06T07:45:36Z</time>
    </trkpt>
    <trkpt lat="48.462375" lon="2.660286">
      <ele>99.987</ele>
      <time>2015-09-06T07:45:38Z</time>
    </trkpt>
    <trkpt lat="48.462284" lon="2.660346">
      <ele>99.809</ele>
      <time>2015-09-06T07:45:42Z</time>
    </trkpt>
    <trkpt lat="48.46217" lon="2.66039">
      <ele>99.484</ele>
      <time>2015-09-06T07:45:46Z</time>
    </trkpt>
    <trkpt lat="48.462035" lon="2.660415">
      <ele>99.165</ele>
      <time>2015-09-06T07:45:49Z</time>
    </trkpt>
    <trkpt lat="48.461918" lon="2.660508">
      <ele>99.095</ele>
      <time>2015-09-06T07:45:52Z</time>
    </trkpt>
    <trkpt lat="48.461829" lon="2.660584">
      <ele>99.356</ele>
      <time>2015-09-06T07:45:55Z</time>
    </trkpt>
    <trkpt lat="48.461721" lon="2.660553">
      <ele>99.804</ele>
      <time>2015-09-06T07:45:59Z</time>
    </trkpt>
    <trkpt lat="48.461611" lon="2.660587">
      <ele>100.624</ele>
      <time>2015-09-06T07:46:03Z</time>
    </trkpt>
    <trkpt lat="48.461495" lon="2.660547">
      <ele>101.854</ele>
      <time>2015-09-06T07:46:06Z</time>
    </trkpt>
    <trkpt lat="48.46145" lon="2.660423">
      <ele>102.34</ele>
      <time>2015-09-06T07:46:12Z</time>
    </trkpt>
    <trkpt lat="48.461404" lon="2.660301">
      <ele>102.837</ele>
      <time>2015-09-06T07:46:19Z</time>
    </trkpt>
    <trkpt lat="48.46118" lon="2.660318">
      <ele>105.256</ele>
      <time>2015-09-06T07:46:32Z</time>
    </trkpt>
    <trkpt lat="48.461091" lon="2.660382">
      <ele>106.072</ele>
      <time>2015-09-06T07:46:46Z</time>
    </trkpt>
    <trkpt lat="48.460957" lon="2.660448">
      <ele>106.555</ele>
      <time>2015-09-06T07:46:54Z</time>
    </trkpt>
    <trkpt lat="48.46087" lon="2.660507">
      <ele>106.868</ele>
      <time>2015-09-06T07:46:59Z</time>
    </trkpt>
    <trkpt lat="48.460783" lon="2.660594">
      <ele>106.705</ele>
      <time>2015-09-06T07:47:00Z</time>
    </trkpt>
    <trkpt lat="48.460694" lon="2.660672">
      <ele>106.289</ele>
      <time>2015-09-06T07:47:02Z</time>
    </trkpt>
    <trkpt lat="48.460596" lon="2.660799">
      <ele>106.018</ele>
      <time>2015-09-06T07:47:04Z</time>
    </trkpt>
    <trkpt lat="48.460524" lon="2.660886">
      <ele>105.886</ele>
      <time>2015-09-06T07:47:05Z</time>
    </trkpt>
    <trkpt lat="48.460456" lon="2.661012">
      <ele>105.642</ele>
      <time>2015-09-06T07:47:07Z</time>
    </trkpt>
    <trkpt lat="48.460391" lon="2.661108">
      <ele>105.408</ele>
      <time>2015-09-06T07:47:10Z</time>
    </trkpt>
    <trkpt lat="48.460297" lon="2.661178">
      <ele>105.069</ele>
      <time>2015-09-06T07:47:12Z</time>
    </trkpt>
    <trkpt lat="48.460168" lon="2.661292">
      <ele>103.952</ele>
      <time>2015-09-06T07:47:14Z</time>
    </trkpt>
    <trkpt lat="48.460085" lon="2.661358">
      <ele>102.995</ele>
      <time>2015-09-06T07:47:16Z</time>
    </trkpt>
    <trkpt lat="48.459994" lon="2.661427">
      <ele>101.954</ele>
      <time>2015-09-06T07:47:19Z</time>
    </trkpt>
    <trkpt lat="48.459873" lon="2.661428">
      <ele>101.021</ele>
      <time>2015-09-06T07:47:23Z</time>
    </trkpt>
    <trkpt lat="48.459642" lon="2.661432">
      <ele>99.89</ele>
      <time>2015-09-06T07:47:28Z</time>
    </trkpt>
    <trkpt lat="48.459523" lon="2.661388">
      <ele>100.0</ele>
      <time>2015-09-06T07:47:31Z</time>
    </trkpt>
    <trkpt lat="48.459401" lon="2.661317">
      <ele>100.272</ele>
      <time>2015-09-06T07:47:34Z</time>
    </trkpt>
    <trkpt lat="48.459304" lon="2.661243">
      <ele>100.746</ele>
      <time>2015-09-06T07:47:37Z</time>
    </trkpt>
    <trkpt lat="48.459215" lon="2.661147">
      <ele>100.933</ele>
      <time>2015-09-06T07:47:40Z</time>
    </trkpt>
    <trkpt lat="48.45912" lon="2.661085">
      <ele>100.66</ele>
      <time>2015-09-06T07:47:43Z</time>
    </trkpt>
    <trkpt lat="48.459045" lon="2.661007">
      <ele>99.977</ele>
      <time>2015-09-06T07:47:46Z</time>
    </trkpt>
    <trkpt lat="48.458955" lon="2.660931">
      <ele>99.435</ele>
      <time>2015-09-06T07:47:49Z</time>
    </trkpt>
    <trkpt lat="48.458862" lon="2.660904">
      <ele>99.351</ele>
      <time>2015-09-06T07:47:52Z</time>
    </trkpt>
    <trkpt lat="48.458767" lon="2.66083">
      <ele>99.432</ele>
      <time>2015-09-06T07:47:55Z</time>
    </trkpt>
    <trkpt lat="48.45868" lon="2.66078">
      <ele>99.704</ele>
      <time>2015-09-06T07:47:59Z</time>
    </trkpt>
    <trkpt lat="48.458588" lon="2.660702">
      <ele>100.25</ele>
      <time>2015-09-06T07:48:04Z</time>
    </trkpt>
    <trkpt lat="48.458517" lon="2.660599">
      <ele>101.016</ele>
      <time>2015-09-06T07:48:09Z</time>
    </trkpt>
    <trkpt lat="48.45848" lon="2.660475">
      <ele>101.569</ele>
      <time>2015-09-06T07:48:16Z</time>
    </trkpt>
    <trkpt lat="48.458512" lon="2.660318">
      <ele>101.62</ele>
      <time>2015-09-06T07:48:21Z</time>
    </trkpt>
    <trkpt lat="48.458538" lon="2.660184">
      <ele>102.202</ele>
      <time>2015-09-06T07:48:25Z</time>
    </trkpt>
    <trkpt lat="48.458497" lon="2.659925">
      <ele>104.203</ele>
      <time>2015-09-06T07:48:35Z</time>
    </trkpt>
    <trkpt lat="48.45854" lon="2.659789">
      <ele>104.466</ele>
      <time>2015-09-06T07:48:43Z</time>
    </trkpt>
    <trkpt lat="48.458544" lon="2.659642">
      <ele>105.302</ele>
      <time>2015-09-06T07:48:49Z</time>
    </trkpt>
    <trkpt lat="48.458565" lon="2.659486">
      <ele>106.199</ele>
      <time>2015-09-06T07:48:55Z</time>
    </trkpt>
    <trkpt lat="48.458536" lon="2.659327">
      <ele>107.885</ele>
      <time>2015-09-06T07:49:07Z</time>
    </trkpt>
    <trkpt lat="48.458545" lon="2.659181">
      <ele>109.062</ele>
      <time>2015-09-06T07:49:15Z</time>
    </trkpt>
    <trkpt lat="48.458469" lon="2.659083">
      <ele>111.609</ele>
      <time>2015-09-06T07:49:19Z</time>
    </trkpt>
    <trkpt lat="48.458396" lon="2.658997">
      <ele>113.842</ele>
      <time>2015-09-06T07:49:23Z</time>
    </trkpt>
    <trkpt lat="48.458307" lon="2.658942">
      <ele>115.539</ele>
      <time>2015-09-06T07:49:27Z</time>
    </trkpt>
    <trkpt lat="48.458113" lon="2.658831">
      <ele>117.461</ele>
      <time>2015-09-06T07:49:41Z</time>
    </trkpt>
    <trkpt lat="48.458053" lon="2.658695">
      <ele>119.11</ele>
      <time>2015-09-06T07:49:48Z</time>
    </trkpt>
    <trkpt lat="48.458025" lon="2.658551">
      <ele>121.062</ele>
      <time>2015-09-06T07:49:53Z</time>
    </trkpt>
    <trkpt lat="48.457978" lon="2.65842">
      <ele>123.118</ele>
      <time>2015-09-06T07:49:59Z</time>
    </trkpt>
    <trkpt lat="48.457877" lon="2.658354">
      <ele>124.393</ele>
      <time>2015-09-06T07:50:06Z</time>
    </trkpt>
    <trkpt lat="48.457859" lon="2.658218">
      <ele>125.659</ele>
      <time>2015-09-06T07:50:16Z</time>
    </trkpt>
    <trkpt lat="48.457811" lon="2.658097">
      <ele>126.684</ele>
      <time>2015-09-06T07:50:24Z</time>
    </trkpt>
    <trkpt lat="48.45772" lon="2.658036">
      <ele>127.264</ele>
      <time>2015-09-06T07:50:38Z</time>
    </trkpt>
    <trkpt lat="48.457544" lon="2.657957">
      <ele>127.898</ele>
      <time>2015-09-06T07:50:51Z</time>
    </trkpt>
    <trkpt lat="48.457502" lon="2.657832">
      <ele>127.999</ele>
      <time>2015-09-06T07:50:57Z</time>
    </trkpt>
    <trkpt lat="48.457427" lon="2.657732">
      <ele>128.043</ele>
      <time>2015-09-06T07:51:03Z</time>
    </trkpt>
    <trkpt lat="48.457395" lon="2.657597">
      <ele>128.246</ele>
      <time>2015-09-06T07:51:12Z</time>
    </trkpt>
    <trkpt lat="48.457476" lon="2.657521">
      <ele>128.08</ele>
      <time>2015-09-06T07:51:21Z</time>
    </trkpt>
    <trkpt lat="48.457568" lon="2.657469">
      <ele>128.112</ele>
      <time>2015-09-06T07:51:25Z</time>
    </trkpt>
    <trkpt lat="48.457673" lon="2.657446">
      <ele>128.194</ele>
      <time>2015-09-06T07:51:29Z</time>
    </trkpt>
    <trkpt lat="48.457794" lon="2.657442">
      <ele>128.267</ele>
      <time>2015-09-06T07:51:33Z</time>
    </trkpt>
    <trkpt lat="48.457888" lon="2.657412">
      <ele>128.714</ele>
      <time>2015-09-06T07:51:36Z</time>
    </trkpt>
    <trkpt lat="48.457997" lon="2.65737">
      <ele>129.257</ele>
      <time>2015-09-06T07:51:40Z</time>
    </trkpt>
    <trkpt lat="48.458177" lon="2.657357">
      <ele>129.952</ele>
      <time>2015-09-06T07:51:46Z</time>
    </trkpt>
    <trkpt lat="48.45828" lon="2.657306">
      <ele>130.506</ele>
      <time>2015-09-06T07:51:50Z</time>
    </trkpt>
    <trkpt lat="48.458364" lon="2.657255">
      <ele>130.869</ele>
      <time>2015-09-06T07:51:55Z</time>
    </trkpt>
    <trkpt lat="48.458423" lon="2.657145">
      <ele>131.278</ele>
      <time>2015-09-06T07:51:58Z</time>
    </trkpt>
    <trkpt lat="48.458487" lon="2.656992">
      <ele>131.829</ele>
      <time>2015-09-06T07:52:02Z</time>
    </trkpt>
    <trkpt lat="48.45854" lon="2.656849">
      <ele>132.0</ele>
      <time>2015-09-06T07:52:06Z</time>
    </trkpt>
    <trkpt lat="48.458604" lon="2.656741">
      <ele>132.0</ele>
      <time>2015-09-06T07:52:09Z</time>
    </trkpt>
    <trkpt lat="48.458663" lon="2.656624">
      <ele>131.688</ele>
      <time>2015-09-06T07:52:12Z</time>
    </trkpt>
    <trkpt lat="48.458726" lon="2.656509">
      <ele>131.254</ele>
      <time>2015-09-06T07:52:15Z</time>
    </trkpt>
    <trkpt lat="48.458809" lon="2.656388">
      <ele>130.998</ele>
      <time>2015-09-06T07:52:18Z</time>
    </trkpt>
    <trkpt lat="48.458883" lon="2.65627">
      <ele>130.581</ele>
      <time>2015-09-06T07:52:21Z</time>
    </trkpt>
    <trkpt lat="48.458951" lon="2.65614">
      <ele>129.634</ele>
      <time>2015-09-06T07:52:24Z</time>
    </trkpt>
    <trkpt lat="48.459025" lon="2.655995">
      <ele>129.643</ele>
      <time>2015-09-06T07:52:27Z</time>
    </trkpt>
    <trkpt lat="48.458988" lon="2.655794">
      <ele>130.835</ele>
      <time>2015-09-06T07:52:30Z</time>
    </trkpt>
    <trkpt lat="48.458987" lon="2.655616">
      <ele>131.706</ele>
      <time>2015-09-06T07:52:33Z</time>
    </trkpt>
    <trkpt lat="48.459054" lon="2.655469">
      <ele>132.185</ele>
      <time>2015-09-06T07:52:36Z</time>
    </trkpt>
    <trkpt lat="48.459135" lon="2.65535">
      <ele>132.656</ele>
      <time>2015-09-06T07:52:38Z</time>
    </trkpt>
    <trkpt lat="48.459193" lon="2.655236">
      <ele>133.0</ele>
      <time>2015-09-06T07:52:40Z</time>
    </trkpt>
    <trkpt lat="48.459295" lon="2.654991">
      <ele>132.968</ele>
      <time>2015-09-06T07:52:44Z</time>
    </trkpt>
    <trkpt lat="48.45933" lon="2.654857">
      <ele>132.485</ele>
      <time>2015-09-06T07:52:46Z</time>
    </trkpt>
    <trkpt lat="48.459373" lon="2.65472">
      <ele>132.0</ele>
      <time>2015-09-06T07:52:48Z</time>
    </trkpt>
    <trkpt lat="48.459419" lon="2.654592">
      <ele>132.0</ele>
      <time>2015-09-06T07:52:50Z</time>
    </trkpt>
    <trkpt lat="48.459483" lon="2.654422">
      <ele>131.85</ele>
      <time>2015-09-06T07:52:53Z</time>
    </trkpt>
    <trkpt lat="48.459519" lon="2.654235">
      <ele>131.529</ele>
      <time>2015-09-06T07:52:56Z</time>
    </trkpt>
    <trkpt lat="48.459536" lon="2.654091">
      <ele>131.158</ele>
      <time>2015-09-06T07:52:58Z</time>
    </trkpt>
    <trkpt lat="48.45955" lon="2.653895">
      <ele>130.634</ele>
      <time>2015-09-06T07:53:01Z</time>
    </trkpt>
    <trkpt lat="48.459524" lon="2.653747">
      <ele>130.203</ele>
      <time>2015-09-06T07:53:04Z</time>
    </trkpt>
    <trkpt lat="48.459456" lon="2.653603">
      <ele>129.928</ele>
      <time>2015-09-06T07:53:07Z</time>
    </trkpt>
    <trkpt lat="48.459365" lon="2.653508">
      <ele>129.629</ele>
      <time>2015-09-06T07:53:09Z</time>
    </trkpt>
    <trkpt lat="48.459251" lon="2.653421">
      <ele>129.316</ele>
      <time>2015-09-06T07:53:11Z</time>
    </trkpt>
    <trkpt lat="48.459144" lon="2.653345">
      <ele>129.042</ele>
      <time>2015-09-06T07:53:13Z</time>
    </trkpt>
    <trkpt lat="48.459048" lon="2.653352">
      <ele>129.067</ele>
      <time>2015-09-06T07:53:14Z</time>
    </trkpt>
    <trkpt lat="48.458915" lon="2.653322">
      <ele>128.955</ele>
      <time>2015-09-06T07:53:16Z</time>
    </trkpt>
    <trkpt lat="48.45881" lon="2.653329">
      <ele>129.552</ele>
      <time>2015-09-06T07:53:18Z</time>
    </trkpt>
    <trkpt lat="48.458695" lon="2.653333">
      <ele>130.395</ele>
      <time>2015-09-06T07:53:20Z</time>
    </trkpt>
    <trkpt lat="48.458585" lon="2.653338">
      <ele>131.0</ele>
      <time>2015-09-06T07:53:22Z</time>
    </trkpt>
    <trkpt lat="48.458491" lon="2.653344">
      <ele>131.0</ele>
      <time>2015-09-06T07:53:24Z</time>
    </trkpt>
    <trkpt lat="48.458386" lon="2.653371">
      <ele>131.0</ele>
      <time>2015-09-06T07:53:26Z</time>
    </trkpt>
    <trkpt lat="48.458275" lon="2.653387">
      <ele>131.0</ele>
      <time>2015-09-06T07:53:28Z</time>
    </trkpt>
    <trkpt lat="48.458158" lon="2.653387">
      <ele>131.0</ele>
      <time>2015-09-06T07:53:30Z</time>
    </trkpt>
    <trkpt lat="48.458055" lon="2.653336">
      <ele>131.0</ele>
      <time>2015-09-06T07:53:32Z</time>
    </trkpt>
    <trkpt lat="48.457938" lon="2.653262">
      <ele>131.0</ele>
      <time>2015-09-06T07:53:34Z</time>
    </trkpt>
    <trkpt lat="48.45784" lon="2.653191">
      <ele>131.0</ele>
      <time>2015-09-06T07:53:36Z</time>
    </trkpt>
    <trkpt lat="48.457769" lon="2.653093">
      <ele>131.027</ele>
      <time>2015-09-06T07:53:38Z</time>
    </trkpt>
    <trkpt lat="48.457695" lon="2.652991">
      <ele>131.461</ele>
      <time>2015-09-06T07:53:40Z</time>
    </trkpt>
    <trkpt lat="48.457556" lon="2.652732">
      <ele>132.0</ele>
      <time>2015-09-06T07:53:45Z</time>
    </trkpt>
    <trkpt lat="48.457544" lon="2.652561">
      <ele>132.0</ele>
      <time>2015-09-06T07:53:48Z</time>
    </trkpt>
    <trkpt lat="48.457569" lon="2.652377">
      <ele>132.0</ele>
      <time>2015-09-06T07:53:51Z</time>
    </trkpt>
    <trkpt lat="48.4576" lon="2.652247">
      <ele>132.0</ele>
      <time>2015-09-06T07:53:53Z</time>
    </trkpt>
    <trkpt lat="48.457633" lon="2.652092">
      <ele>132.0</ele>
      <time>2015-09-06T07:53:55Z</time>
    </trkpt>
    <trkpt lat="48.457695" lon="2.651948">
      <ele>132.0</ele>
      <time>2015-09-06T07:53:57Z</time>
    </trkpt>
    <trkpt lat="48.457747" lon="2.651807">
      <ele>131.505</ele>
      <time>2015-09-06T07:53:59Z</time>
    </trkpt>
    <trkpt lat="48.457834" lon="2.651659">
      <ele>131.0</ele>
      <time>2015-09-06T07:54:01Z</time>
    </trkpt>
    <trkpt lat="48.45793" lon="2.651561">
      <ele>131.0</ele>
      <time>2015-09-06T07:54:03Z</time>
    </trkpt>
    <trkpt lat="48.458026" lon="2.651498">
      <ele>131.0</ele>
      <time>2015-09-06T07:54:05Z</time>
    </trkpt>
    <trkpt lat="48.458131" lon="2.65145">
      <ele>130.94</ele>
      <time>2015-09-06T07:54:07Z</time>
    </trkpt>
    <trkpt lat="48.458244" lon="2.651367">
      <ele>131.0</ele>
      <time>2015-09-06T07:54:10Z</time>
    </trkpt>
    <trkpt lat="48.458371" lon="2.651318">
      <ele>130.864</ele>
      <time>2015-09-06T07:54:13Z</time>
    </trkpt>
    <trkpt lat="48.458453" lon="2.651249">
      <ele>130.569</ele>
      <time>2015-09-06T07:54:15Z</time>
    </trkpt>
    <trkpt lat="48.458539" lon="2.651155">
      <ele>130.26</ele>
      <time>2015-09-06T07:54:17Z</time>
    </trkpt>
    <trkpt lat="48.458567" lon="2.650982">
      <ele>130.55</ele>
      <time>2015-09-06T07:54:19Z</time>
    </trkpt>
    <trkpt lat="48.458614" lon="2.650849">
      <ele>130.913</ele>
      <time>2015-09-06T07:54:21Z</time>
    </trkpt>
    <trkpt lat="48.458626" lon="2.65071">
      <ele>130.419</ele>
      <time>2015-09-06T07:54:23Z</time>
    </trkpt>
    <trkpt lat="48.458598" lon="2.650502">
      <ele>130.047</ele>
      <time>2015-09-06T07:54:26Z</time>
    </trkpt>
    <trkpt lat="48.458537" lon="2.650358">
      <ele>130.267</ele>
      <time>2015-09-06T07:54:28Z</time>
    </trkpt>
    <trkpt lat="48.458436" lon="2.650286">
      <ele>130.63</ele>
      <time>2015-09-06T07:54:29Z</time>
    </trkpt>
    <trkpt lat="48.45837" lon="2.65016">
      <ele>130.812</ele>
      <time>2015-09-06T07:54:31Z</time>
    </trkpt>
    <trkpt lat="48.458309" lon="2.649988">
      <ele>131.088</ele>
      <time>2015-09-06T07:54:34Z</time>
    </trkpt>
    <trkpt lat="48.458277" lon="2.649859">
      <ele>131.203</ele>
      <time>2015-09-06T07:54:36Z</time>
    </trkpt>
    <trkpt lat="48.458213" lon="2.649689">
      <ele>131.485</ele>
      <time>2015-09-06T07:54:39Z</time>
    </trkpt>
    <trkpt lat="48.458116" lon="2.649521">
      <ele>132.349</ele>
      <time>2015-09-06T07:54:42Z</time>
    </trkpt>
    <trkpt lat="48.458029" lon="2.649275">
      <ele>132.942</ele>
      <time>2015-09-06T07:54:46Z</time>
    </trkpt>
    <trkpt lat="48.458025" lon="2.649138">
      <ele>132.89</ele>
      <time>2015-09-06T07:54:48Z</time>
    </trkpt>
    <trkpt lat="48.45801" lon="2.648978">
      <ele>132.836</ele>
      <time>2015-09-06T07:54:50Z</time>
    </trkpt>
    <trkpt lat="48.457986" lon="2.648836">
      <ele>132.607</ele>
      <time>2015-09-06T07:54:52Z</time>
    </trkpt>
    <trkpt lat="48.458078" lon="2.648764">
      <ele>132.506</ele>
      <time>2015-09-06T07:54:53Z</time>
    </trkpt>
    <trkpt lat="48.458166" lon="2.648658">
      <ele>132.102</ele>
      <time>2015-09-06T07:54:55Z</time>
    </trkpt>
    <trkpt lat="48.458253" lon="2.648549">
      <ele>132.0</ele>
      <time>2015-09-06T07:54:57Z</time>
    </trkpt>
    <trkpt lat="48.458359" lon="2.648438">
      <ele>131.815</ele>
      <time>2015-09-06T07:54:59Z</time>
    </trkpt>
    <trkpt lat="48.458458" lon="2.648348">
      <ele>131.102</ele>
      <time>2015-09-06T07:55:01Z</time>
    </trkpt>
    <trkpt lat="48.458552" lon="2.648299">
      <ele>130.497</ele>
      <time>2015-09-06T07:55:03Z</time>
    </trkpt>
    <trkpt lat="48.458648" lon="2.648236">
      <ele>130.131</ele>
      <time>2015-09-06T07:55:05Z</time>
    </trkpt>
    <trkpt lat="48.458748" lon="2.648185">
      <ele>129.812</ele>
      <time>2015-09-06T07:55:07Z</time>
    </trkpt>
    <trkpt lat="48.45886" lon="2.648144">
      <ele>129.5</ele>
      <time>2015-09-06T07:55:09Z</time>
    </trkpt>
    <trkpt lat="48.458955" lon="2.648105">
      <ele>129.168</ele>
      <time>2015-09-06T07:55:11Z</time>
    </trkpt>
    <trkpt lat="48.459065" lon="2.648035">
      <ele>128.853</ele>
      <time>2015-09-06T07:55:14Z</time>
    </trkpt>
    <trkpt lat="48.459159" lon="2.648">
      <ele>128.45</ele>
      <time>2015-09-06T07:55:16Z</time>
    </trkpt>
    <trkpt lat="48.459258" lon="2.647952">
      <ele>128.294</ele>
      <time>2015-09-06T07:55:18Z</time>
    </trkpt>
    <trkpt lat="48.459344" lon="2.647792">
      <ele>128.653</ele>
      <time>2015-09-06T07:55:21Z</time>
    </trkpt>
    <trkpt lat="48.4594" lon="2.647637">
      <ele>128.827</ele>
      <time>2015-09-06T07:55:24Z</time>
    </trkpt>
    <trkpt lat="48.459456" lon="2.647459">
      <ele>128.834</ele>
      <time>2015-09-06T07:55:27Z</time>
    </trkpt>
    <trkpt lat="48.45948" lon="2.647286">
      <ele>128.488</ele>
      <time>2015-09-06T07:55:30Z</time>
    </trkpt>
    <trkpt lat="48.459517" lon="2.647091">
      <ele>127.955</ele>
      <time>2015-09-06T07:55:33Z</time>
    </trkpt>
    <trkpt lat="48.459474" lon="2.646924">
      <ele>128.574</ele>
      <time>2015-09-06T07:55:35Z</time>
    </trkpt>
    <trkpt lat="48.459472" lon="2.646765">
      <ele>128.603</ele>
      <time>2015-09-06T07:55:37Z</time>
    </trkpt>
    <trkpt lat="48.459488" lon="2.646628">
      <ele>128.416</ele>
      <time>2015-09-06T07:55:39Z</time>
    </trkpt>
    <trkpt lat="48.459485" lon="2.646461">
      <ele>128.632</ele>
      <time>2015-09-06T07:55:41Z</time>
    </trkpt>
    <trkpt lat="48.45948" lon="2.646317">
      <ele>129.003</ele>
      <time>2015-09-06T07:55:43Z</time>
    </trkpt>
    <trkpt lat="48.459383" lon="2.645973">
      <ele>130.11</ele>
      <time>2015-09-06T07:55:49Z</time>
    </trkpt>
    <trkpt lat="48.459325" lon="2.645843">
      <ele>130.415</ele>
      <time>2015-09-06T07:55:51Z</time>
    </trkpt>
    <trkpt lat="48.459223" lon="2.645685">
      <ele>130.689</ele>
      <time>2015-09-06T07:55:53Z</time>
    </trkpt>
    <trkpt lat="48.459162" lon="2.645568">
      <ele>130.999</ele>
      <time>2015-09-06T07:55:55Z</time>
    </trkpt>
    <trkpt lat="48.459079" lon="2.645425">
      <ele>131.0</ele>
      <time>2015-09-06T07:55:58Z</time>
    </trkpt>
    <trkpt lat="48.459018" lon="2.645266">
      <ele>130.98</ele>
      <time>2015-09-06T07:56:01Z</time>
    </trkpt>
    <trkpt lat="48.459032" lon="2.645082">
      <ele>130.637</ele>
      <time>2015-09-06T07:56:03Z</time>
    </trkpt>
    <trkpt lat="48.459024" lon="2.644905">
      <ele>130.338</ele>
      <time>2015-09-06T07:56:05Z</time>
    </trkpt>
    <trkpt lat="48.45902" lon="2.644743">
      <ele>130.039</ele>
      <time>2015-09-06T07:56:07Z</time>
    </trkpt>
    <trkpt lat="48.458959" lon="2.644554">
      <ele>130.0</ele>
      <time>2015-09-06T07:56:09Z</time>
    </trkpt>
    <trkpt lat="48.458942" lon="2.644383">
      <ele>129.821</ele>
      <time>2015-09-06T07:56:11Z</time>
    </trkpt>
    <trkpt lat="48.458962" lon="2.644247">
      <ele>129.476</ele>
      <time>2015-09-06T07:56:13Z</time>
    </trkpt>
    <trkpt lat="48.458969" lon="2.644107">
      <ele>129.441</ele>
      <time>2015-09-06T07:56:15Z</time>
    </trkpt>
    <trkpt lat="48.458995" lon="2.643969">
      <ele>129.822</ele>
      <time>2015-09-06T07:56:17Z</time>
    </trkpt>
    <trkpt lat="48.459012" lon="2.64381">
      <ele>130.0</ele>
      <time>2015-09-06T07:56:19Z</time>
    </trkpt>
    <trkpt lat="48.459031" lon="2.643634">
      <ele>130.0</ele>
      <time>2015-09-06T07:56:21Z</time>
    </trkpt>
    <trkpt lat="48.459055" lon="2.643476">
      <ele>130.196</ele>
      <time>2015-09-06T07:56:23Z</time>
    </trkpt>
    <trkpt lat="48.459118" lon="2.643331">
      <ele>130.167</ele>
      <time>2015-09-06T07:56:25Z</time>
    </trkpt>
    <trkpt lat="48.459159" lon="2.643189">
      <ele>129.508</ele>
      <time>2015-09-06T07:56:27Z</time>
    </trkpt>
    <trkpt lat="48.459186" lon="2.643029">
      <ele>128.993</ele>
      <time>2015-09-06T07:56:29Z</time>
    </trkpt>
    <trkpt lat="48.459212" lon="2.642863">
      <ele>128.887</ele>
      <time>2015-09-06T07:56:31Z</time>
    </trkpt>
    <trkpt lat="48.459236" lon="2.642681">
      <ele>128.663</ele>
      <time>2015-09-06T07:56:33Z</time>
    </trkpt>
    <trkpt lat="48.459245" lon="2.642481">
      <ele>128.436</ele>
      <time>2015-09-06T07:56:35Z</time>
    </trkpt>
    <trkpt lat="48.459267" lon="2.642309">
      <ele>128.278</ele>
      <time>2015-09-06T07:56:37Z</time>
    </trkpt>
    <trkpt lat="48.459287" lon="2.642124">
      <ele>128.134</ele>
      <time>2015-09-06T07:56:39Z</time>
    </trkpt>
    <trkpt lat="48.459292" lon="2.641931">
      <ele>128.076</ele>
      <time>2015-09-06T07:56:41Z</time>
    </trkpt>
    <trkpt lat="48.459335" lon="2.641765">
      <ele>127.397</ele>
      <time>2015-09-06T07:56:43Z</time>
    </trkpt>
    <trkpt lat="48.459365" lon="2.64159">
      <ele>126.661</ele>
      <time>2015-09-06T07:56:45Z</time>
    </trkpt>
    <trkpt lat="48.459336" lon="2.64128">
      <ele>126.256</ele>
      <time>2015-09-06T07:56:50Z</time>
    </trkpt>
    <trkpt lat="48.45923" lon="2.641216">
      <ele>127.127</ele>
      <time>2015-09-06T07:56:52Z</time>
    </trkpt>
    <trkpt lat="48.459131" lon="2.641188">
      <ele>128.032</ele>
      <time>2015-09-06T07:56:55Z</time>
    </trkpt>
    <trkpt lat="48.459043" lon="2.641148">
      <ele>128.987</ele>
      <time>2015-09-06T07:56:58Z</time>
    </trkpt>
    <trkpt lat="48.458937" lon="2.641118">
      <ele>130.336</ele>
      <time>2015-09-06T07:57:01Z</time>
    </trkpt>
    <trkpt lat="48.45883" lon="2.641101">
      <ele>131.139</ele>
      <time>2015-09-06T07:57:05Z</time>
    </trkpt>
    <trkpt lat="48.458726" lon="2.6411">
      <ele>131.506</ele>
      <time>2015-09-06T07:57:09Z</time>
    </trkpt>
    <trkpt lat="48.458612" lon="2.641085">
      <ele>131.809</ele>
      <time>2015-09-06T07:57:13Z</time>
    </trkpt>
    <trkpt lat="48.458504" lon="2.641093">
      <ele>132.23</ele>
      <time>2015-09-06T07:57:17Z</time>
    </trkpt>
    <trkpt lat="48.458395" lon="2.641092">
      <ele>132.587</ele>
      <time>2015-09-06T07:57:20Z</time>
    </trkpt>
    <trkpt lat="48.458291" lon="2.641106">
      <ele>133.252</ele>
      <time>2015-09-06T07:57:24Z</time>
    </trkpt>
    <trkpt lat="48.458181" lon="2.641108">
      <ele>134.069</ele>
      <time>2015-09-06T07:57:28Z</time>
    </trkpt>
    <trkpt lat="48.458085" lon="2.641059">
      <ele>134.393</ele>
      <time>2015-09-06T07:57:31Z</time>
    </trkpt>
    <trkpt lat="48.457985" lon="2.640986">
      <ele>134.722</ele>
      <time>2015-09-06T07:57:35Z</time>
    </trkpt>
    <trkpt lat="48.457916" lon="2.640886">
      <ele>134.791</ele>
      <time>2015-09-06T07:57:38Z</time>
    </trkpt>
    <trkpt lat="48.457862" lon="2.640751">
      <ele>134.498</ele>
      <time>2015-09-06T07:57:41Z</time>
    </trkpt>
    <trkpt lat="48.45782" lon="2.640613">
      <ele>133.958</ele>
      <time>2015-09-06T07:57:44Z</time>
    </trkpt>
    <trkpt lat="48.457747" lon="2.640484">
      <ele>133.993</ele>
      <time>2015-09-06T07:57:47Z</time>
    </trkpt>
    <trkpt lat="48.457616" lon="2.640264">
      <ele>134.776</ele>
      <time>2015-09-06T07:57:53Z</time>
    </trkpt>
    <trkpt lat="48.457571" lon="2.640139">
      <ele>135.605</ele>
      <time>2015-09-06T07:57:56Z</time>
    </trkpt>
    <trkpt lat="48.457518" lon="2.639955">
      <ele>136.741</ele>
      <time>2015-09-06T07:57:59Z</time>
    </trkpt>
    <trkpt lat="48.457478" lon="2.639783">
      <ele>137.079</ele>
      <time>2015-09-06T07:58:02Z</time>
    </trkpt>
    <trkpt lat="48.45749" lon="2.639641">
      <ele>136.744</ele>
      <time>2015-09-06T07:58:04Z</time>
    </trkpt>
    <trkpt lat="48.457496" lon="2.639453">
      <ele>136.045</ele>
      <time>2015-09-06T07:58:07Z</time>
    </trkpt>
    <trkpt lat="48.45754" lon="2.639315">
      <ele>134.958</ele>
      <time>2015-09-06T07:58:09Z</time>
    </trkpt>
    <trkpt lat="48.457545" lon="2.639176">
      <ele>134.386</ele>
      <time>2015-09-06T07:58:11Z</time>
    </trkpt>
    <trkpt lat="48.457545" lon="2.639041">
      <ele>133.9</ele>
      <time>2015-09-06T07:58:13Z</time>
    </trkpt>
    <trkpt lat="48.45756" lon="2.638846">
      <ele>132.861</ele>
      <time>2015-09-06T07:58:16Z</time>
    </trkpt>
    <trkpt lat="48.457645" lon="2.638685">
      <ele>130.827</ele>
      <time>2015-09-06T07:58:18Z</time>
    </trkpt>
    <trkpt lat="48.457686" lon="2.638538">
      <ele>129.465</ele>
      <time>2015-09-06T07:58:20Z</time>
    </trkpt>
    <trkpt lat="48.457708" lon="2.638368">
      <ele>128.003</ele>
      <time>2015-09-06T07:58:23Z</time>
    </trkpt>
    <trkpt lat="48.457575" lon="2.638286">
      <ele>128.384</ele>
      <time>2015-09-06T07:58:27Z</time>
    </trkpt>
    <trkpt lat="48.457459" lon="2.638327">
      <ele>129.742</ele>
      <time>2015-09-06T07:58:29Z</time>
    </trkpt>
    <trkpt lat="48.457374" lon="2.63843">
      <ele>130.4</ele>
      <time>2015-09-06T07:58:31Z</time>
    </trkpt>
    <trkpt lat="48.457298" lon="2.638536">
      <ele>131.263</ele>
      <time>2015-09-06T07:58:33Z</time>
    </trkpt>
    <trkpt lat="48.457216" lon="2.638667">
      <ele>132.385</ele>
      <time>2015-09-06T07:58:35Z</time>
    </trkpt>
    <trkpt lat="48.457136" lon="2.638827">
      <ele>133.485</ele>
      <time>2015-09-06T07:58:38Z</time>
    </trkpt>
    <trkpt lat="48.457078" lon="2.638977">
      <ele>134.317</ele>
      <time>2015-09-06T07:58:41Z</time>
    </trkpt>
    <trkpt lat="48.456996" lon="2.639071">
      <ele>134.656</ele>
      <time>2015-09-06T07:58:44Z</time>
    </trkpt>
    <trkpt lat="48.4569" lon="2.639129">
      <ele>135.163</ele>
      <time>2015-09-06T07:58:47Z</time>
    </trkpt>
    <trkpt lat="48.456788" lon="2.639168">
      <ele>136.133</ele>
      <time>2015-09-06T07:58:50Z</time>
    </trkpt>
    <trkpt lat="48.456567" lon="2.639197">
      <ele>136.75</ele>
      <time>2015-09-06T07:58:54Z</time>
    </trkpt>
    <trkpt lat="48.456422" lon="2.639153">
      <ele>136.064</ele>
      <time>2015-09-06T07:58:57Z</time>
    </trkpt>
    <trkpt lat="48.456316" lon="2.639148">
      <ele>135.67</ele>
      <time>2015-09-06T07:58:59Z</time>
    </trkpt>
    <trkpt lat="48.456209" lon="2.639054">
      <ele>134.947</ele>
      <time>2015-09-06T07:59:02Z</time>
    </trkpt>
    <trkpt lat="48.456166" lon="2.638903">
      <ele>134.248</ele>
      <time>2015-09-06T07:59:04Z</time>
    </trkpt>
    <trkpt lat="48.456112" lon="2.63878">
      <ele>133.218</ele>
      <time>2015-09-06T07:59:06Z</time>
    </trkpt>
    <trkpt lat="48.455999" lon="2.638681">
      <ele>132.503</ele>
      <time>2015-09-06T07:59:09Z</time>
    </trkpt>
    <trkpt lat="48.455864" lon="2.638724">
      <ele>132.813</ele>
      <time>2015-09-06T07:59:12Z</time>
    </trkpt>
    <trkpt lat="48.45573" lon="2.638767">
      <ele>133.286</ele>
      <time>2015-09-06T07:59:14Z</time>
    </trkpt>
    <trkpt lat="48.455613" lon="2.638762">
      <ele>133.449</ele>
      <time>2015-09-06T07:59:16Z</time>
    </trkpt>
    <trkpt lat="48.45554" lon="2.638671">
      <ele>133.272</ele>
      <time>2015-09-06T07:59:18Z</time>
    </trkpt>
    <trkpt lat="48.45546" lon="2.638591">
      <ele>133.199</ele>
      <time>2015-09-06T07:59:20Z</time>
    </trkpt>
    <trkpt lat="48.455384" lon="2.63849">
      <ele>132.746</ele>
      <time>2015-09-06T07:59:23Z</time>
    </trkpt>
    <trkpt lat="48.455271" lon="2.638437">
      <ele>132.81</ele>
      <time>2015-09-06T07:59:26Z</time>
    </trkpt>
    <trkpt lat="48.455145" lon="2.638416">
      <ele>133.887</ele>
      <time>2015-09-06T07:59:29Z</time>
    </trkpt>
    <trkpt lat="48.455053" lon="2.638421">
      <ele>134.803</ele>
      <time>2015-09-06T07:59:31Z</time>
    </trkpt>
    <trkpt lat="48.454956" lon="2.638412">
      <ele>135.714</ele>
      <time>2015-09-06T07:59:33Z</time>
    </trkpt>
    <trkpt lat="48.454868" lon="2.638386">
      <ele>136.525</ele>
      <time>2015-09-06T07:59:35Z</time>
    </trkpt>
    <trkpt lat="48.454785" lon="2.638272">
      <ele>137.101</ele>
      <time>2015-09-06T07:59:38Z</time>
    </trkpt>
    <trkpt lat="48.454711" lon="2.638172">
      <ele>137.46</ele>
      <time>2015-09-06T07:59:40Z</time>
    </trkpt>
    <trkpt lat="48.454649" lon="2.638029">
      <ele>137.098</ele>
      <time>2015-09-06T07:59:43Z</time>
    </trkpt>
    <trkpt lat="48.454554" lon="2.637877">
      <ele>136.709</ele>
      <time>2015-09-06T07:59:46Z</time>
    </trkpt>
    <trkpt lat="48.45449" lon="2.63776">
      <ele>136.598</ele>
      <time>2015-09-06T07:59:48Z</time>
    </trkpt>
    <trkpt lat="48.454417" lon="2.637646">
      <ele>136.624</ele>
      <time>2015-09-06T07:59:50Z</time>
    </trkpt>
    <trkpt lat="48.454354" lon="2.637523">
      <ele>136.408</ele>
      <time>2015-09-06T07:59:52Z</time>
    </trkpt>
    <trkpt lat="48.45428" lon="2.637241">
      <ele>135.66</ele>
      <time>2015-09-06T07:59:56Z</time>
    </trkpt>
    <trkpt lat="48.454254" lon="2.637102">
      <ele>135.117</ele>
      <time>2015-09-06T07:59:58Z</time>
    </trkpt>
    <trkpt lat="48.454249" lon="2.636942">
      <ele>134.401</ele>
      <time>2015-09-06T08:00:00Z</time>
    </trkpt>
    <trkpt lat="48.454223" lon="2.636797">
      <ele>134.171</ele>
      <time>2015-09-06T08:00:02Z</time>
    </trkpt>
    <trkpt lat="48.454175" lon="2.636637">
      <ele>133.756</ele>
      <time>2015-09-06T08:00:05Z</time>
    </trkpt>
    <trkpt lat="48.454052" lon="2.636518">
      <ele>133.342</ele>
      <time>2015-09-06T08:00:07Z</time>
    </trkpt>
    <trkpt lat="48.453963" lon="2.636421">
      <ele>132.964</ele>
      <time>2015-09-06T08:00:09Z</time>
    </trkpt>
    <trkpt lat="48.453865" lon="2.636298">
      <ele>132.317</ele>
      <time>2015-09-06T08:00:12Z</time>
    </trkpt>
    <trkpt lat="48.453754" lon="2.636292">
      <ele>132.133</ele>
      <time>2015-09-06T08:00:14Z</time>
    </trkpt>
    <trkpt lat="48.453624" lon="2.636303">
      <ele>132.087</ele>
      <time>2015-09-06T08:00:17Z</time>
    </trkpt>
    <trkpt lat="48.453533" lon="2.636339">
      <ele>132.461</ele>
      <time>2015-09-06T08:00:19Z</time>
    </trkpt>
    <trkpt lat="48.453436" lon="2.63637">
      <ele>132.796</ele>
      <time>2015-09-06T08:00:21Z</time>
    </trkpt>
    <trkpt lat="48.453346" lon="2.636402">
      <ele>133.142</ele>
      <time>2015-09-06T08:00:23Z</time>
    </trkpt>
    <trkpt lat="48.453226" lon="2.636441">
      <ele>133.877</ele>
      <time>2015-09-06T08:00:26Z</time>
    </trkpt>
    <trkpt lat="48.453138" lon="2.636494">
      <ele>134.572</ele>
      <time>2015-09-06T08:00:28Z</time>
    </trkpt>
    <trkpt lat="48.453053" lon="2.636539">
      <ele>135.08</ele>
      <time>2015-09-06T08:00:30Z</time>
    </trkpt>
    <trkpt lat="48.452963" lon="2.636552">
      <ele>135.116</ele>
      <time>2015-09-06T08:00:32Z</time>
    </trkpt>
    <trkpt lat="48.452848" lon="2.636515">
      <ele>134.977</ele>
      <time>2015-09-06T08:00:35Z</time>
    </trkpt>
    <trkpt lat="48.452779" lon="2.636361">
      <ele>134.895</ele>
      <time>2015-09-06T08:00:39Z</time>
    </trkpt>
    <trkpt lat="48.452732" lon="2.636244">
      <ele>134.478</ele>
      <time>2015-09-06T08:00:41Z</time>
    </trkpt>
    <trkpt lat="48.452636" lon="2.63609">
      <ele>133.811</ele>
      <time>2015-09-06T08:00:43Z</time>
    </trkpt>
    <trkpt lat="48.452564" lon="2.635988">
      <ele>133.011</ele>
      <time>2015-09-06T08:00:45Z</time>
    </trkpt>
    <trkpt lat="48.452444" lon="2.63593">
      <ele>133.099</ele>
      <time>2015-09-06T08:00:48Z</time>
    </trkpt>
    <trkpt lat="48.45231" lon="2.635984">
      <ele>134.453</ele>
      <time>2015-09-06T08:00:51Z</time>
    </trkpt>
    <trkpt lat="48.452201" lon="2.636013">
      <ele>135.446</ele>
      <time>2015-09-06T08:00:53Z</time>
    </trkpt>
    <trkpt lat="48.452029" lon="2.635851">
      <ele>135.518</ele>
      <time>2015-09-06T08:00:58Z</time>
    </trkpt>
    <trkpt lat="48.451981" lon="2.635717">
      <ele>134.899</ele>
      <time>2015-09-06T08:01:00Z</time>
    </trkpt>
    <trkpt lat="48.451956" lon="2.635586">
      <ele>134.136</ele>
      <time>2015-09-06T08:01:02Z</time>
    </trkpt>
    <trkpt lat="48.452042" lon="2.635447">
      <ele>132.653</ele>
      <time>2015-09-06T08:01:04Z</time>
    </trkpt>
    <trkpt lat="48.452048" lon="2.635288">
      <ele>131.687</ele>
      <time>2015-09-06T08:01:06Z</time>
    </trkpt>
    <trkpt lat="48.452057" lon="2.635134">
      <ele>131.077</ele>
      <time>2015-09-06T08:01:08Z</time>
    </trkpt>
    <trkpt lat="48.452007" lon="2.634961">
      <ele>130.806</ele>
      <time>2015-09-06T08:01:10Z</time>
    </trkpt>
    <trkpt lat="48.451978" lon="2.634805">
      <ele>130.964</ele>
      <time>2015-09-06T08:01:12Z</time>
    </trkpt>
    <trkpt lat="48.451972" lon="2.63462">
      <ele>130.963</ele>
      <time>2015-09-06T08:01:15Z</time>
    </trkpt>
    <trkpt lat="48.451957" lon="2.634469">
      <ele>130.959</ele>
      <time>2015-09-06T08:01:17Z</time>
    </trkpt>
    <trkpt lat="48.451965" lon="2.634329">
      <ele>130.51</ele>
      <time>2015-09-06T08:01:19Z</time>
    </trkpt>
    <trkpt lat="48.451981" lon="2.634129">
      <ele>129.479</ele>
      <time>2015-09-06T08:01:22Z</time>
    </trkpt>
    <trkpt lat="48.451978" lon="2.633984">
      <ele>127.986</ele>
      <time>2015-09-06T08:01:24Z</time>
    </trkpt>
    <trkpt lat="48.451995" lon="2.633833">
      <ele>126.396</ele>
      <time>2015-09-06T08:01:27Z</time>
    </trkpt>
    <trkpt lat="48.452015" lon="2.63369">
      <ele>124.852</ele>
      <time>2015-09-06T08:01:31Z</time>
    </trkpt>
    <trkpt lat="48.452029" lon="2.633836">
      <ele>126.429</ele>
      <time>2015-09-06T08:02:18Z</time>
    </trkpt>
    <trkpt lat="48.452022" lon="2.634167">
      <ele>129.722</ele>
      <time>2015-09-06T08:02:24Z</time>
    </trkpt>
    <trkpt lat="48.451998" lon="2.634303">
      <ele>130.298</ele>
      <time>2015-09-06T08:02:26Z</time>
    </trkpt>
    <trkpt lat="48.451968" lon="2.634499">
      <ele>130.932</ele>
      <time>2015-09-06T08:02:29Z</time>
    </trkpt>
    <trkpt lat="48.452003" lon="2.634632">
      <ele>130.932</ele>
      <time>2015-09-06T08:02:31Z</time>
    </trkpt>
    <trkpt lat="48.451994" lon="2.634773">
      <ele>130.967</ele>
      <time>2015-09-06T08:02:33Z</time>
    </trkpt>
    <trkpt lat="48.451969" lon="2.634907">
      <ele>130.941</ele>
      <time>2015-09-06T08:02:35Z</time>
    </trkpt>
    <trkpt lat="48.451947" lon="2.635051">
      <ele>131.174</ele>
      <time>2015-09-06T08:02:37Z</time>
    </trkpt>
    <trkpt lat="48.451868" lon="2.635174">
      <ele>131.248</ele>
      <time>2015-09-06T08:02:39Z</time>
    </trkpt>
    <trkpt lat="48.451821" lon="2.635289">
      <ele>131.672</ele>
      <time>2015-09-06T08:02:41Z</time>
    </trkpt>
    <trkpt lat="48.451768" lon="2.635451">
      <ele>133.404</ele>
      <time>2015-09-06T08:02:44Z</time>
    </trkpt>
    <trkpt lat="48.451762" lon="2.635625">
      <ele>135.157</ele>
      <time>2015-09-06T08:02:47Z</time>
    </trkpt>
    <trkpt lat="48.45176" lon="2.635797">
      <ele>136.402</ele>
      <time>2015-09-06T08:02:50Z</time>
    </trkpt>
    <trkpt lat="48.451783" lon="2.635941">
      <ele>137.356</ele>
      <time>2015-09-06T08:02:53Z</time>
    </trkpt>
    <trkpt lat="48.45179" lon="2.636115">
      <ele>138.57</ele>
      <time>2015-09-06T08:02:56Z</time>
    </trkpt>
    <trkpt lat="48.451691" lon="2.636251">
      <ele>139.416</ele>
      <time>2015-09-06T08:03:00Z</time>
    </trkpt>
    <trkpt lat="48.451587" lon="2.636332">
      <ele>139.45</ele>
      <time>2015-09-06T08:03:03Z</time>
    </trkpt>
    <trkpt lat="48.451488" lon="2.636419">
      <ele>139.465</ele>
      <time>2015-09-06T08:03:06Z</time>
    </trkpt>
    <trkpt lat="48.451408" lon="2.636485">
      <ele>139.415</ele>
      <time>2015-09-06T08:03:08Z</time>
    </trkpt>
    <trkpt lat="48.45133" lon="2.636576">
      <ele>138.968</ele>
      <time>2015-09-06T08:03:10Z</time>
    </trkpt>
    <trkpt lat="48.451258" lon="2.636761">
      <ele>138.746</ele>
      <time>2015-09-06T08:03:13Z</time>
    </trkpt>
    <trkpt lat="48.451185" lon="2.636911">
      <ele>138.444</ele>
      <time>2015-09-06T08:03:16Z</time>
    </trkpt>
    <trkpt lat="48.451123" lon="2.637071">
      <ele>138.086</ele>
      <time>2015-09-06T08:03:19Z</time>
    </trkpt>
    <trkpt lat="48.451032" lon="2.637342">
      <ele>137.268</ele>
      <time>2015-09-06T08:03:23Z</time>
    </trkpt>
    <trkpt lat="48.450997" lon="2.637476">
      <ele>137.143</ele>
      <time>2015-09-06T08:03:25Z</time>
    </trkpt>
    <trkpt lat="48.450947" lon="2.637645">
      <ele>137.34</ele>
      <time>2015-09-06T08:03:28Z</time>
    </trkpt>
    <trkpt lat="48.450923" lon="2.637816">
      <ele>137.69</ele>
      <time>2015-09-06T08:03:31Z</time>
    </trkpt>
    <trkpt lat="48.450888" lon="2.637966">
      <ele>137.527</ele>
      <time>2015-09-06T08:03:34Z</time>
    </trkpt>
    <trkpt lat="48.450907" lon="2.638166">
      <ele>137.796</ele>
      <time>2015-09-06T08:03:37Z</time>
    </trkpt>
    <trkpt lat="48.450892" lon="2.6383">
      <ele>137.634</ele>
      <time>2015-09-06T08:03:39Z</time>
    </trkpt>
    <trkpt lat="48.45087" lon="2.638441">
      <ele>137.008</ele>
      <time>2015-09-06T08:03:41Z</time>
    </trkpt>
    <trkpt lat="48.450845" lon="2.638586">
      <ele>136.216</ele>
      <time>2015-09-06T08:03:43Z</time>
    </trkpt>
    <trkpt lat="48.450833" lon="2.638743">
      <ele>135.52</ele>
      <time>2015-09-06T08:03:45Z</time>
    </trkpt>
    <trkpt lat="48.450855" lon="2.638888">
      <ele>135.237</ele>
      <time>2015-09-06T08:03:47Z</time>
    </trkpt>
    <trkpt lat="48.450863" lon="2.639057">
      <ele>134.78</ele>
      <time>2015-09-06T08:03:49Z</time>
    </trkpt>
    <trkpt lat="48.450871" lon="2.639204">
      <ele>134.542</ele>
      <time>2015-09-06T08:03:51Z</time>
    </trkpt>
    <trkpt lat="48.450857" lon="2.639385">
      <ele>134.341</ele>
      <time>2015-09-06T08:03:53Z</time>
    </trkpt>
    <trkpt lat="48.450902" lon="2.639552">
      <ele>135.376</ele>
      <time>2015-09-06T08:03:55Z</time>
    </trkpt>
    <trkpt lat="48.450964" lon="2.639689">
      <ele>136.762</ele>
      <time>2015-09-06T08:03:57Z</time>
    </trkpt>
    <trkpt lat="48.451022" lon="2.63987">
      <ele>137.887</ele>
      <time>2015-09-06T08:04:00Z</time>
    </trkpt>
    <trkpt lat="48.451034" lon="2.640032">
      <ele>138.199</ele>
      <time>2015-09-06T08:04:02Z</time>
    </trkpt>
    <trkpt lat="48.451032" lon="2.640193">
      <ele>138.343</ele>
      <time>2015-09-06T08:04:04Z</time>
    </trkpt>
    <trkpt lat="48.450983" lon="2.640357">
      <ele>138.209</ele>
      <time>2015-09-06T08:04:06Z</time>
    </trkpt>
    <trkpt lat="48.450922" lon="2.640547">
      <ele>138.298</ele>
      <time>2015-09-06T08:04:08Z</time>
    </trkpt>
    <trkpt lat="48.450853" lon="2.640714">
      <ele>138.111</ele>
      <time>2015-09-06T08:04:10Z</time>
    </trkpt>
    <trkpt lat="48.450785" lon="2.640834">
      <ele>137.83</ele>
      <time>2015-09-06T08:04:12Z</time>
    </trkpt>
    <trkpt lat="48.450714" lon="2.640961">
      <ele>138.292</ele>
      <time>2015-09-06T08:04:14Z</time>
    </trkpt>
    <trkpt lat="48.450649" lon="2.641118">
      <ele>138.714</ele>
      <time>2015-09-06T08:04:17Z</time>
    </trkpt>
    <trkpt lat="48.450582" lon="2.641211">
      <ele>138.875</ele>
      <time>2015-09-06T08:04:19Z</time>
    </trkpt>
    <trkpt lat="48.450403" lon="2.641433">
      <ele>139.768</ele>
      <time>2015-09-06T08:04:24Z</time>
    </trkpt>
    <trkpt lat="48.450306" lon="2.641559">
      <ele>140.326</ele>
      <time>2015-09-06T08:04:27Z</time>
    </trkpt>
    <trkpt lat="48.450211" lon="2.641698">
      <ele>141.198</ele>
      <time>2015-09-06T08:04:30Z</time>
    </trkpt>
    <trkpt lat="48.450138" lon="2.641797">
      <ele>141.702</ele>
      <time>2015-09-06T08:04:32Z</time>
    </trkpt>
    <trkpt lat="48.450059" lon="2.641938">
      <ele>142.184</ele>
      <time>2015-09-06T08:04:35Z</time>
    </trkpt>
    <trkpt lat="48.449985" lon="2.64206">
      <ele>142.416</ele>
      <time>2015-09-06T08:04:38Z</time>
    </trkpt>
    <trkpt lat="48.449915" lon="2.642175">
      <ele>142.83</ele>
      <time>2015-09-06T08:04:40Z</time>
    </trkpt>
    <trkpt lat="48.449842" lon="2.642295">
      <ele>143.0</ele>
      <time>2015-09-06T08:04:43Z</time>
    </trkpt>
    <trkpt lat="48.449747" lon="2.642427">
      <ele>143.0</ele>
      <time>2015-09-06T08:04:46Z</time>
    </trkpt>
    <trkpt lat="48.449692" lon="2.642537">
      <ele>142.986</ele>
      <time>2015-09-06T08:04:48Z</time>
    </trkpt>
    <trkpt lat="48.449587" lon="2.642673">
      <ele>142.697</ele>
      <time>2015-09-06T08:04:50Z</time>
    </trkpt>
    <trkpt lat="48.449511" lon="2.642768">
      <ele>142.266</ele>
      <time>2015-09-06T08:04:52Z</time>
    </trkpt>
    <trkpt lat="48.449428" lon="2.642865">
      <ele>141.882</ele>
      <time>2015-09-06T08:04:54Z</time>
    </trkpt>
    <trkpt lat="48.44936" lon="2.642992">
      <ele>141.392</ele>
      <time>2015-09-06T08:04:56Z</time>
    </trkpt>
    <trkpt lat="48.449294" lon="2.643137">
      <ele>140.758</ele>
      <time>2015-09-06T08:04:58Z</time>
    </trkpt>
    <trkpt lat="48.449237" lon="2.64331">
      <ele>139.822</ele>
      <time>2015-09-06T08:05:00Z</time>
    </trkpt>
    <trkpt lat="48.449278" lon="2.643454">
      <ele>140.028</ele>
      <time>2015-09-06T08:05:02Z</time>
    </trkpt>
    <trkpt lat="48.449321" lon="2.643594">
      <ele>140.145</ele>
      <time>2015-09-06T08:05:04Z</time>
    </trkpt>
    <trkpt lat="48.449403" lon="2.643697">
      <ele>140.655</ele>
      <time>2015-09-06T08:05:06Z</time>
    </trkpt>
    <trkpt lat="48.44948" lon="2.643789">
      <ele>141.256</ele>
      <time>2015-09-06T08:05:08Z</time>
    </trkpt>
    <trkpt lat="48.449541" lon="2.643903">
      <ele>141.68</ele>
      <time>2015-09-06T08:05:10Z</time>
    </trkpt>
    <trkpt lat="48.449602" lon="2.644014">
      <ele>142.195</ele>
      <time>2015-09-06T08:05:12Z</time>
    </trkpt>
    <trkpt lat="48.449606" lon="2.644158">
      <ele>142.321</ele>
      <time>2015-09-06T08:05:14Z</time>
    </trkpt>
    <trkpt lat="48.449596" lon="2.644341">
      <ele>142.525</ele>
      <time>2015-09-06T08:05:17Z</time>
    </trkpt>
    <trkpt lat="48.449564" lon="2.644491">
      <ele>142.08</ele>
      <time>2015-09-06T08:05:19Z</time>
    </trkpt>
    <trkpt lat="48.449517" lon="2.644782">
      <ele>140.886</ele>
      <time>2015-09-06T08:05:23Z</time>
    </trkpt>
    <trkpt lat="48.449536" lon="2.644981">
      <ele>140.694</ele>
      <time>2015-09-06T08:05:26Z</time>
    </trkpt>
    <trkpt lat="48.449534" lon="2.645176">
      <ele>140.408</ele>
      <time>2015-09-06T08:05:29Z</time>
    </trkpt>
    <trkpt lat="48.449531" lon="2.645321">
      <ele>140.139</ele>
      <time>2015-09-06T08:05:31Z</time>
    </trkpt>
    <trkpt lat="48.449531" lon="2.645542">
      <ele>139.592</ele>
      <time>2015-09-06T08:05:34Z</time>
    </trkpt>
    <trkpt lat="48.449527" lon="2.645721">
      <ele>138.89</ele>
      <time>2015-09-06T08:05:36Z</time>
    </trkpt>
    <trkpt lat="48.44954" lon="2.645875">
      <ele>138.818</ele>
      <time>2015-09-06T08:05:38Z</time>
    </trkpt>
    <trkpt lat="48.449518" lon="2.646016">
      <ele>138.807</ele>
      <time>2015-09-06T08:05:40Z</time>
    </trkpt>
    <trkpt lat="48.449524" lon="2.646177">
      <ele>139.383</ele>
      <time>2015-09-06T08:05:42Z</time>
    </trkpt>
    <trkpt lat="48.449522" lon="2.646316">
      <ele>139.854</ele>
      <time>2015-09-06T08:05:44Z</time>
    </trkpt>
    <trkpt lat="48.44953" lon="2.646469">
      <ele>140.809</ele>
      <time>2015-09-06T08:05:46Z</time>
    </trkpt>
    <trkpt lat="48.449544" lon="2.646684">
      <ele>142.434</ele>
      <time>2015-09-06T08:05:49Z</time>
    </trkpt>
    <trkpt lat="48.449546" lon="2.646822">
      <ele>142.462</ele>
      <time>2015-09-06T08:05:51Z</time>
    </trkpt>
    <trkpt lat="48.449522" lon="2.647011">
      <ele>142.223</ele>
      <time>2015-09-06T08:05:54Z</time>
    </trkpt>
    <trkpt lat="48.44941" lon="2.647073">
      <ele>141.405</ele>
      <time>2015-09-06T08:06:01Z</time>
    </trkpt>
    <trkpt lat="48.449318" lon="2.647086">
      <ele>141.278</ele>
      <time>2015-09-06T08:06:04Z</time>
    </trkpt>
    <trkpt lat="48.449225" lon="2.647099">
      <ele>141.117</ele>
      <time>2015-09-06T08:06:07Z</time>
    </trkpt>
    <trkpt lat="48.44841" lon="2.649053">
      <ele>143.665</ele>
      <time>2015-09-06T08:06:51Z</time>
    </trkpt>
    <trkpt lat="48.448297" lon="2.649357">
      <ele>142.102</ele>
      <time>2015-09-06T08:06:55Z</time>
    </trkpt>
    <trkpt lat="48.448234" lon="2.649512">
      <ele>141.642</ele>
      <time>2015-09-06T08:06:57Z</time>
    </trkpt>
    <trkpt lat="48.448198" lon="2.649641">
      <ele>141.513</ele>
      <time>2015-09-06T08:06:59Z</time>
    </trkpt>
    <trkpt lat="48.448156" lon="2.649769">
      <ele>141.362</ele>
      <time>2015-09-06T08:07:01Z</time>
    </trkpt>
    <trkpt lat="48.448101" lon="2.649969">
      <ele>141.164</ele>
      <time>2015-09-06T08:07:04Z</time>
    </trkpt>
    <trkpt lat="48.448037" lon="2.650157">
      <ele>141.527</ele>
      <time>2015-09-06T08:07:07Z</time>
    </trkpt>
    <trkpt lat="48.447995" lon="2.650282">
      <ele>141.782</ele>
      <time>2015-09-06T08:07:09Z</time>
    </trkpt>
    <trkpt lat="48.447956" lon="2.650406">
      <ele>141.642</ele>
      <time>2015-09-06T08:07:11Z</time>
    </trkpt>
    <trkpt lat="48.447901" lon="2.650529">
      <ele>141.444</ele>
      <time>2015-09-06T08:07:13Z</time>
    </trkpt>
    <trkpt lat="48.447835" lon="2.650687">
      <ele>141.206</ele>
      <time>2015-09-06T08:07:15Z</time>
    </trkpt>
    <trkpt lat="48.447781" lon="2.650872">
      <ele>141.01</ele>
      <time>2015-09-06T08:07:17Z</time>
    </trkpt>
    <trkpt lat="48.447773" lon="2.651028">
      <ele>140.971</ele>
      <time>2015-09-06T08:07:19Z</time>
    </trkpt>
    <trkpt lat="48.447865" lon="2.651186">
      <ele>141.0</ele>
      <time>2015-09-06T08:07:21Z</time>
    </trkpt>
    <trkpt lat="48.447951" lon="2.651347">
      <ele>141.0</ele>
      <time>2015-09-06T08:07:23Z</time>
    </trkpt>
    <trkpt lat="48.448005" lon="2.651496">
      <ele>141.0</ele>
      <time>2015-09-06T08:07:25Z</time>
    </trkpt>
    <trkpt lat="48.448049" lon="2.651634">
      <ele>141.0</ele>
      <time>2015-09-06T08:07:27Z</time>
    </trkpt>
    <trkpt lat="48.448079" lon="2.651768">
      <ele>141.0</ele>
      <time>2015-09-06T08:07:29Z</time>
    </trkpt>
    <trkpt lat="48.448102" lon="2.651905">
      <ele>141.0</ele>
      <time>2015-09-06T08:07:31Z</time>
    </trkpt>
    <trkpt lat="48.448158" lon="2.652033">
      <ele>140.882</ele>
      <time>2015-09-06T08:07:33Z</time>
    </trkpt>
    <trkpt lat="48.448211" lon="2.65216">
      <ele>140.566</ele>
      <time>2015-09-06T08:07:35Z</time>
    </trkpt>
    <trkpt lat="48.448254" lon="2.652299">
      <ele>140.207</ele>
      <time>2015-09-06T08:07:37Z</time>
    </trkpt>
    <trkpt lat="48.448346" lon="2.652428">
      <ele>140.046</ele>
      <time>2015-09-06T08:07:39Z</time>
    </trkpt>
    <trkpt lat="48.448405" lon="2.652569">
      <ele>139.946</ele>
      <time>2015-09-06T08:07:41Z</time>
    </trkpt>
    <trkpt lat="48.448485" lon="2.652691">
      <ele>139.483</ele>
      <time>2015-09-06T08:07:43Z</time>
    </trkpt>
    <trkpt lat="48.448548" lon="2.652809">
      <ele>138.974</ele>
      <time>2015-09-06T08:07:45Z</time>
    </trkpt>
    <trkpt lat="48.448623" lon="2.652948">
      <ele>139.145</ele>
      <time>2015-09-06T08:07:48Z</time>
    </trkpt>
    <trkpt lat="48.448703" lon="2.653046">
      <ele>140.004</ele>
      <time>2015-09-06T08:07:50Z</time>
    </trkpt>
    <trkpt lat="48.448792" lon="2.653159">
      <ele>140.469</ele>
      <time>2015-09-06T08:07:52Z</time>
    </trkpt>
    <trkpt lat="48.448921" lon="2.65339">
      <ele>139.823</ele>
      <time>2015-09-06T08:07:56Z</time>
    </trkpt>
    <trkpt lat="48.448977" lon="2.653523">
      <ele>139.269</ele>
      <time>2015-09-06T08:07:58Z</time>
    </trkpt>
    <trkpt lat="48.448971" lon="2.653666">
      <ele>138.394</ele>
      <time>2015-09-06T08:08:00Z</time>
    </trkpt>
    <trkpt lat="48.448925" lon="2.653856">
      <ele>137.378</ele>
      <time>2015-09-06T08:08:02Z</time>
    </trkpt>
    <trkpt lat="48.448892" lon="2.654019">
      <ele>136.559</ele>
      <time>2015-09-06T08:08:04Z</time>
    </trkpt>
    <trkpt lat="48.448889" lon="2.654172">
      <ele>136.02</ele>
      <time>2015-09-06T08:08:06Z</time>
    </trkpt>
    <trkpt lat="48.448842" lon="2.654337">
      <ele>136.678</ele>
      <time>2015-09-06T08:08:08Z</time>
    </trkpt>
    <trkpt lat="48.448816" lon="2.654491">
      <ele>136.956</ele>
      <time>2015-09-06T08:08:10Z</time>
    </trkpt>
    <trkpt lat="48.44878" lon="2.654631">
      <ele>136.737</ele>
      <time>2015-09-06T08:08:12Z</time>
    </trkpt>
    <trkpt lat="48.448744" lon="2.654771">
      <ele>136.654</ele>
      <time>2015-09-06T08:08:14Z</time>
    </trkpt>
    <trkpt lat="48.448616" lon="2.655481">
      <ele>138.767</ele>
      <time>2015-09-06T08:08:23Z</time>
    </trkpt>
    <trkpt lat="48.448596" lon="2.655675">
      <ele>139.376</ele>
      <time>2015-09-06T08:08:26Z</time>
    </trkpt>
    <trkpt lat="48.448674" lon="2.655784">
      <ele>140.275</ele>
      <time>2015-09-06T08:08:28Z</time>
    </trkpt>
    <trkpt lat="48.448701" lon="2.655939">
      <ele>140.905</ele>
      <time>2015-09-06T08:08:31Z</time>
    </trkpt>
    <trkpt lat="48.448775" lon="2.656101">
      <ele>141.575</ele>
      <time>2015-09-06T08:08:34Z</time>
    </trkpt>
    <trkpt lat="48.448805" lon="2.656269">
      <ele>141.13</ele>
      <time>2015-09-06T08:08:37Z</time>
    </trkpt>
    <trkpt lat="48.44883" lon="2.656416">
      <ele>140.767</ele>
      <time>2015-09-06T08:08:40Z</time>
    </trkpt>
    <trkpt lat="48.448859" lon="2.656544">
      <ele>140.832</ele>
      <time>2015-09-06T08:08:43Z</time>
    </trkpt>
    <trkpt lat="48.448909" lon="2.656695">
      <ele>141.152</ele>
      <time>2015-09-06T08:08:46Z</time>
    </trkpt>
    <trkpt lat="48.448975" lon="2.656828">
      <ele>141.8</ele>
      <time>2015-09-06T08:08:50Z</time>
    </trkpt>
    <trkpt lat="48.449008" lon="2.656979">
      <ele>142.411</ele>
      <time>2015-09-06T08:08:54Z</time>
    </trkpt>
    <trkpt lat="48.449053" lon="2.657253">
      <ele>143.994</ele>
      <time>2015-09-06T08:09:01Z</time>
    </trkpt>
    <trkpt lat="48.449048" lon="2.65742">
      <ele>145.142</ele>
      <time>2015-09-06T08:09:04Z</time>
    </trkpt>
    <trkpt lat="48.449071" lon="2.657565">
      <ele>146.281</ele>
      <time>2015-09-06T08:09:07Z</time>
    </trkpt>
    <trkpt lat="48.449162" lon="2.657716">
      <ele>147.74</ele>
      <time>2015-09-06T08:09:10Z</time>
    </trkpt>
    <trkpt lat="48.449247" lon="2.657801">
      <ele>148.697</ele>
      <time>2015-09-06T08:09:12Z</time>
    </trkpt>
    <trkpt lat="48.449328" lon="2.657931">
      <ele>149.624</ele>
      <time>2015-09-06T08:09:15Z</time>
    </trkpt>
    <trkpt lat="48.44938" lon="2.658084">
      <ele>150.079</ele>
      <time>2015-09-06T08:09:18Z</time>
    </trkpt>
    <trkpt lat="48.4494" lon="2.658221">
      <ele>150.5</ele>
      <time>2015-09-06T08:09:21Z</time>
    </trkpt>
    <trkpt lat="48.449448" lon="2.65838">
      <ele>150.847</ele>
      <time>2015-09-06T08:09:24Z</time>
    </trkpt>
    <trkpt lat="48.449504" lon="2.658533">
      <ele>150.65</ele>
      <time>2015-09-06T08:09:27Z</time>
    </trkpt>
    <trkpt lat="48.449551" lon="2.658666">
      <ele>150.57</ele>
      <time>2015-09-06T08:09:30Z</time>
    </trkpt>
    <trkpt lat="48.44961" lon="2.658828">
      <ele>150.411</ele>
      <time>2015-09-06T08:09:33Z</time>
    </trkpt>
    <trkpt lat="48.449607" lon="2.658986">
      <ele>149.821</ele>
      <time>2015-09-06T08:09:36Z</time>
    </trkpt>
    <trkpt lat="48.449586" lon="2.659135">
      <ele>149.133</ele>
      <time>2015-09-06T08:09:41Z</time>
    </trkpt>
    <trkpt lat="48.449539" lon="2.659302">
      <ele>148.515</ele>
      <time>2015-09-06T08:09:46Z</time>
    </trkpt>
    <trkpt lat="48.449483" lon="2.65946">
      <ele>148.195</ele>
      <time>2015-09-06T08:09:49Z</time>
    </trkpt>
    <trkpt lat="48.449438" lon="2.659598">
      <ele>148.506</ele>
      <time>2015-09-06T08:09:51Z</time>
    </trkpt>
    <trkpt lat="48.449397" lon="2.659799">
      <ele>148.658</ele>
      <time>2015-09-06T08:09:54Z</time>
    </trkpt>
    <trkpt lat="48.449263" lon="2.660136">
      <ele>147.863</ele>
      <time>2015-09-06T08:10:00Z</time>
    </trkpt>
    <trkpt lat="48.449241" lon="2.660295">
      <ele>147.741</ele>
      <time>2015-09-06T08:10:03Z</time>
    </trkpt>
    <trkpt lat="48.449183" lon="2.66044">
      <ele>146.592</ele>
      <time>2015-09-06T08:10:06Z</time>
    </trkpt>
    <trkpt lat="48.449135" lon="2.660588">
      <ele>145.555</ele>
      <time>2015-09-06T08:10:09Z</time>
    </trkpt>
    <trkpt lat="48.449051" lon="2.660716">
      <ele>144.414</ele>
      <time>2015-09-06T08:10:11Z</time>
    </trkpt>
    <trkpt lat="48.448992" lon="2.660873">
      <ele>143.6</ele>
      <time>2015-09-06T08:10:14Z</time>
    </trkpt>
    <trkpt lat="48.448922" lon="2.661055">
      <ele>142.44</ele>
      <time>2015-09-06T08:10:16Z</time>
    </trkpt>
    <trkpt lat="48.448858" lon="2.661228">
      <ele>141.357</ele>
      <time>2015-09-06T08:10:19Z</time>
    </trkpt>
    <trkpt lat="48.448808" lon="2.661404">
      <ele>140.379</ele>
      <time>2015-09-06T08:10:22Z</time>
    </trkpt>
    <trkpt lat="48.448735" lon="2.661575">
      <ele>139.593</ele>
      <time>2015-09-06T08:10:25Z</time>
    </trkpt>
    <trkpt lat="48.448681" lon="2.6617">
      <ele>139.221</ele>
      <time>2015-09-06T08:10:27Z</time>
    </trkpt>
    <trkpt lat="48.448657" lon="2.661857">
      <ele>139.052</ele>
      <time>2015-09-06T08:10:30Z</time>
    </trkpt>
    <trkpt lat="48.448605" lon="2.66199">
      <ele>139.004</ele>
      <time>2015-09-06T08:10:32Z</time>
    </trkpt>
    <trkpt lat="48.448571" lon="2.662142">
      <ele>139.103</ele>
      <time>2015-09-06T08:10:35Z</time>
    </trkpt>
    <trkpt lat="48.448524" lon="2.662275">
      <ele>139.444</ele>
      <time>2015-09-06T08:10:37Z</time>
    </trkpt>
    <trkpt lat="48.448476" lon="2.662391">
      <ele>139.798</ele>
      <time>2015-09-06T08:10:40Z</time>
    </trkpt>
    <trkpt lat="48.448414" lon="2.662532">
      <ele>140.082</ele>
      <time>2015-09-06T08:10:43Z</time>
    </trkpt>
    <trkpt lat="48.448374" lon="2.662701">
      <ele>140.618</ele>
      <time>2015-09-06T08:10:46Z</time>
    </trkpt>
    <trkpt lat="48.448346" lon="2.662839">
      <ele>140.744</ele>
      <time>2015-09-06T08:10:49Z</time>
    </trkpt>
    <trkpt lat="48.448296" lon="2.662986">
      <ele>140.452</ele>
      <time>2015-09-06T08:10:52Z</time>
    </trkpt>
    <trkpt lat="48.44825" lon="2.663169">
      <ele>140.314</ele>
      <time>2015-09-06T08:10:55Z</time>
    </trkpt>
    <trkpt lat="48.448163" lon="2.663429">
      <ele>140.84</ele>
      <time>2015-09-06T08:11:00Z</time>
    </trkpt>
    <trkpt lat="48.448112" lon="2.663553">
      <ele>141.39</ele>
      <time>2015-09-06T08:11:03Z</time>
    </trkpt>
    <trkpt lat="48.448067" lon="2.663706">
      <ele>142.204</ele>
      <time>2015-09-06T08:11:06Z</time>
    </trkpt>
    <trkpt lat="48.448027" lon="2.663894">
      <ele>143.444</ele>
      <time>2015-09-06T08:11:09Z</time>
    </trkpt>
    <trkpt lat="48.448014" lon="2.664053">
      <ele>144.603</ele>
      <time>2015-09-06T08:11:13Z</time>
    </trkpt>
    <trkpt lat="48.447954" lon="2.66419">
      <ele>145.784</ele>
      <time>2015-09-06T08:11:18Z</time>
    </trkpt>
    <trkpt lat="48.447902" lon="2.664326">
      <ele>146.362</ele>
      <time>2015-09-06T08:11:25Z</time>
    </trkpt>
    <trkpt lat="48.447854" lon="2.66445">
      <ele>146.731</ele>
      <time>2015-09-06T08:11:33Z</time>
    </trkpt>
    <trkpt lat="48.447762" lon="2.664581">
      <ele>147.0</ele>
      <time>2015-09-06T08:11:38Z</time>
    </trkpt>
    <trkpt lat="48.447688" lon="2.664671">
      <ele>147.0</ele>
      <time>2015-09-06T08:11:40Z</time>
    </trkpt>
    <trkpt lat="48.447617" lon="2.664757">
      <ele>147.0</ele>
      <time>2015-09-06T08:11:42Z</time>
    </trkpt>
    <trkpt lat="48.447526" lon="2.664805">
      <ele>147.0</ele>
      <time>2015-09-06T08:11:44Z</time>
    </trkpt>
    <trkpt lat="48.44743" lon="2.664923">
      <ele>147.252</ele>
      <time>2015-09-06T08:11:47Z</time>
    </trkpt>
    <trkpt lat="48.447335" lon="2.665037">
      <ele>147.594</ele>
      <time>2015-09-06T08:11:49Z</time>
    </trkpt>
    <trkpt lat="48.447248" lon="2.665122">
      <ele>147.907</ele>
      <time>2015-09-06T08:11:51Z</time>
    </trkpt>
    <trkpt lat="48.447139" lon="2.665261">
      <ele>147.7</ele>
      <time>2015-09-06T08:11:54Z</time>
    </trkpt>
    <trkpt lat="48.447045" lon="2.665396">
      <ele>147.516</ele>
      <time>2015-09-06T08:11:57Z</time>
    </trkpt>
    <trkpt lat="48.446873" lon="2.665601">
      <ele>146.528</ele>
      <time>2015-09-06T08:12:01Z</time>
    </trkpt>
    <trkpt lat="48.446799" lon="2.665691">
      <ele>146.208</ele>
      <time>2015-09-06T08:12:03Z</time>
    </trkpt>
    <trkpt lat="48.446709" lon="2.665819">
      <ele>146.109</ele>
      <time>2015-09-06T08:12:06Z</time>
    </trkpt>
    <trkpt lat="48.446615" lon="2.665944">
      <ele>146.584</ele>
      <time>2015-09-06T08:12:09Z</time>
    </trkpt>
    <trkpt lat="48.446503" lon="2.666041">
      <ele>147.337</ele>
      <time>2015-09-06T08:12:12Z</time>
    </trkpt>
    <trkpt lat="48.446433" lon="2.66614">
      <ele>147.841</ele>
      <time>2015-09-06T08:12:14Z</time>
    </trkpt>
    <trkpt lat="48.446382" lon="2.666252">
      <ele>147.987</ele>
      <time>2015-09-06T08:12:16Z</time>
    </trkpt>
    <trkpt lat="48.446295" lon="2.66636">
      <ele>147.697</ele>
      <time>2015-09-06T08:12:19Z</time>
    </trkpt>
    <trkpt lat="48.446201" lon="2.666491">
      <ele>147.205</ele>
      <time>2015-09-06T08:12:22Z</time>
    </trkpt>
    <trkpt lat="48.446128" lon="2.666584">
      <ele>147.018</ele>
      <time>2015-09-06T08:12:24Z</time>
    </trkpt>
    <trkpt lat="48.446062" lon="2.66671">
      <ele>146.872</ele>
      <time>2015-09-06T08:12:26Z</time>
    </trkpt>
    <trkpt lat="48.445945" lon="2.666813">
      <ele>146.788</ele>
      <time>2015-09-06T08:12:29Z</time>
    </trkpt>
    <trkpt lat="48.445852" lon="2.666889">
      <ele>146.946</ele>
      <time>2015-09-06T08:12:31Z</time>
    </trkpt>
    <trkpt lat="48.445753" lon="2.667016">
      <ele>147.472</ele>
      <time>2015-09-06T08:12:34Z</time>
    </trkpt>
    <trkpt lat="48.445666" lon="2.667105">
      <ele>147.832</ele>
      <time>2015-09-06T08:12:36Z</time>
    </trkpt>
    <trkpt lat="48.445552" lon="2.667253">
      <ele>148.0</ele>
      <time>2015-09-06T08:12:39Z</time>
    </trkpt>
    <trkpt lat="48.445483" lon="2.667339">
      <ele>148.0</ele>
      <time>2015-09-06T08:12:41Z</time>
    </trkpt>
    <trkpt lat="48.445412" lon="2.667442">
      <ele>148.0</ele>
      <time>2015-09-06T08:12:43Z</time>
    </trkpt>
    <trkpt lat="48.445348" lon="2.667544">
      <ele>148.04</ele>
      <time>2015-09-06T08:12:45Z</time>
    </trkpt>
    <trkpt lat="48.445248" lon="2.667647">
      <ele>148.057</ele>
      <time>2015-09-06T08:12:48Z</time>
    </trkpt>
    <trkpt lat="48.445144" lon="2.667776">
      <ele>148.479</ele>
      <time>2015-09-06T08:12:51Z</time>
    </trkpt>
    <trkpt lat="48.445037" lon="2.6679">
      <ele>148.925</ele>
      <time>2015-09-06T08:12:54Z</time>
    </trkpt>
    <trkpt lat="48.444948" lon="2.66799">
      <ele>148.769</ele>
      <time>2015-09-06T08:12:56Z</time>
    </trkpt>
    <trkpt lat="48.444847" lon="2.668111">
      <ele>148.449</ele>
      <time>2015-09-06T08:12:59Z</time>
    </trkpt>
    <trkpt lat="48.444672" lon="2.668286">
      <ele>147.819</ele>
      <time>2015-09-06T08:13:03Z</time>
    </trkpt>
    <trkpt lat="48.444581" lon="2.668385">
      <ele>147.586</ele>
      <time>2015-09-06T08:13:06Z</time>
    </trkpt>
    <trkpt lat="48.444483" lon="2.668514">
      <ele>147.699</ele>
      <time>2015-09-06T08:13:09Z</time>
    </trkpt>
    <trkpt lat="48.444394" lon="2.668629">
      <ele>148.0</ele>
      <time>2015-09-06T08:13:12Z</time>
    </trkpt>
    <trkpt lat="48.444281" lon="2.668761">
      <ele>148.0</ele>
      <time>2015-09-06T08:13:15Z</time>
    </trkpt>
    <trkpt lat="48.444212" lon="2.668849">
      <ele>148.0</ele>
      <time>2015-09-06T08:13:17Z</time>
    </trkpt>
    <trkpt lat="48.444135" lon="2.668936">
      <ele>147.772</ele>
      <time>2015-09-06T08:13:20Z</time>
    </trkpt>
    <trkpt lat="48.444051" lon="2.669045">
      <ele>147.167</ele>
      <time>2015-09-06T08:13:23Z</time>
    </trkpt>
    <trkpt lat="48.44397" lon="2.669169">
      <ele>146.576</ele>
      <time>2015-09-06T08:13:27Z</time>
    </trkpt>
    <trkpt lat="48.443875" lon="2.669249">
      <ele>145.618</ele>
      <time>2015-09-06T08:13:31Z</time>
    </trkpt>
    <trkpt lat="48.443803" lon="2.669341">
      <ele>144.948</ele>
      <time>2015-09-06T08:13:36Z</time>
    </trkpt>
    <trkpt lat="48.443765" lon="2.66947">
      <ele>144.503</ele>
      <time>2015-09-06T08:13:41Z</time>
    </trkpt>
    <trkpt lat="48.44378" lon="2.669609">
      <ele>144.248</ele>
      <time>2015-09-06T08:13:46Z</time>
    </trkpt>
    <trkpt lat="48.443676" lon="2.669582">
      <ele>144.118</ele>
      <time>2015-09-06T08:13:57Z</time>
    </trkpt>
    <trkpt lat="48.443573" lon="2.669547">
      <ele>144.0</ele>
      <time>2015-09-06T08:14:03Z</time>
    </trkpt>
    <trkpt lat="48.443337" lon="2.669458">
      <ele>144.0</ele>
      <time>2015-09-06T08:14:09Z</time>
    </trkpt>
    <trkpt lat="48.443228" lon="2.669371">
      <ele>143.9</ele>
      <time>2015-09-06T08:14:11Z</time>
    </trkpt>
    <trkpt lat="48.443128" lon="2.66932">
      <ele>143.669</ele>
      <time>2015-09-06T08:14:14Z</time>
    </trkpt>
    <trkpt lat="48.443035" lon="2.669322">
      <ele>143.485</ele>
      <time>2015-09-06T08:14:17Z</time>
    </trkpt>
    <trkpt lat="48.442924" lon="2.669345">
      <ele>143.168</ele>
      <time>2015-09-06T08:14:19Z</time>
    </trkpt>
    <trkpt lat="48.442799" lon="2.66937">
      <ele>142.808</ele>
      <time>2015-09-06T08:14:22Z</time>
    </trkpt>
    <trkpt lat="48.442679" lon="2.669382">
      <ele>142.775</ele>
      <time>2015-09-06T08:14:25Z</time>
    </trkpt>
    <trkpt lat="48.442543" lon="2.669371">
      <ele>142.736</ele>
      <time>2015-09-06T08:14:28Z</time>
    </trkpt>
    <trkpt lat="48.442443" lon="2.669366">
      <ele>142.512</ele>
      <time>2015-09-06T08:14:30Z</time>
    </trkpt>
    <trkpt lat="48.442342" lon="2.669316">
      <ele>141.969</ele>
      <time>2015-09-06T08:14:32Z</time>
    </trkpt>
    <trkpt lat="48.442246" lon="2.669302">
      <ele>141.573</ele>
      <time>2015-09-06T08:14:37Z</time>
    </trkpt>
    <trkpt lat="48.442148" lon="2.669261">
      <ele>140.982</ele>
      <time>2015-09-06T08:14:41Z</time>
    </trkpt>
    <trkpt lat="48.442" lon="2.669202">
      <ele>140.225</ele>
      <time>2015-09-06T08:14:44Z</time>
    </trkpt>
    <trkpt lat="48.441933" lon="2.669095">
      <ele>140.0</ele>
      <time>2015-09-06T08:14:47Z</time>
    </trkpt>
    <trkpt lat="48.441838" lon="2.669042">
      <ele>140.0</ele>
      <time>2015-09-06T08:14:50Z</time>
    </trkpt>
    <trkpt lat="48.441736" lon="2.668952">
      <ele>140.0</ele>
      <time>2015-09-06T08:14:53Z</time>
    </trkpt>
    <trkpt lat="48.441628" lon="2.668895">
      <ele>140.272</ele>
      <time>2015-09-06T08:14:56Z</time>
    </trkpt>
    <trkpt lat="48.441522" lon="2.668828">
      <ele>141.147</ele>
      <time>2015-09-06T08:14:59Z</time>
    </trkpt>
    <trkpt lat="48.441422" lon="2.668744">
      <ele>141.824</ele>
      <time>2015-09-06T08:15:02Z</time>
    </trkpt>
    <trkpt lat="48.441323" lon="2.66867">
      <ele>142.237</ele>
      <time>2015-09-06T08:15:05Z</time>
    </trkpt>
    <trkpt lat="48.441127" lon="2.66854">
      <ele>143.184</ele>
      <time>2015-09-06T08:15:11Z</time>
    </trkpt>
    <trkpt lat="48.441012" lon="2.668512">
      <ele>143.943</ele>
      <time>2015-09-06T08:15:13Z</time>
    </trkpt>
    <trkpt lat="48.440902" lon="2.66845">
      <ele>144.649</ele>
      <time>2015-09-06T08:15:16Z</time>
    </trkpt>
    <trkpt lat="48.440824" lon="2.668379">
      <ele>144.994</ele>
      <time>2015-09-06T08:15:18Z</time>
    </trkpt>
    <trkpt lat="48.440707" lon="2.668302">
      <ele>145.0</ele>
      <time>2015-09-06T08:15:21Z</time>
    </trkpt>
    <trkpt lat="48.440601" lon="2.668261">
      <ele>145.0</ele>
      <time>2015-09-06T08:15:23Z</time>
    </trkpt>
    <trkpt lat="48.440505" lon="2.668205">
      <ele>144.902</ele>
      <time>2015-09-06T08:15:25Z</time>
    </trkpt>
    <trkpt lat="48.440376" lon="2.668148">
      <ele>144.785</ele>
      <time>2015-09-06T08:15:28Z</time>
    </trkpt>
    <trkpt lat="48.44026" lon="2.668092">
      <ele>144.869</ele>
      <time>2015-09-06T08:15:30Z</time>
    </trkpt>
    <trkpt lat="48.440167" lon="2.668045">
      <ele>145.015</ele>
      <time>2015-09-06T08:15:32Z</time>
    </trkpt>
    <trkpt lat="48.440056" lon="2.667982">
      <ele>145.211</ele>
      <time>2015-09-06T08:15:34Z</time>
    </trkpt>
    <trkpt lat="48.439938" lon="2.667922">
      <ele>145.704</ele>
      <time>2015-09-06T08:15:36Z</time>
    </trkpt>
    <trkpt lat="48.439842" lon="2.667864">
      <ele>146.258</ele>
      <time>2015-09-06T08:15:38Z</time>
    </trkpt>
    <trkpt lat="48.439727" lon="2.667806">
      <ele>146.881</ele>
      <time>2015-09-06T08:15:41Z</time>
    </trkpt>
    <trkpt lat="48.439579" lon="2.667848">
      <ele>145.846</ele>
      <time>2015-09-06T08:15:44Z</time>
    </trkpt>
    <trkpt lat="48.439478" lon="2.667867">
      <ele>145.203</ele>
      <time>2015-09-06T08:15:46Z</time>
    </trkpt>
    <trkpt lat="48.439345" lon="2.667899">
      <ele>144.642</ele>
      <time>2015-09-06T08:15:49Z</time>
    </trkpt>
    <trkpt lat="48.439242" lon="2.667932">
      <ele>144.271</ele>
      <time>2015-09-06T08:15:51Z</time>
    </trkpt>
    <trkpt lat="48.439125" lon="2.667905">
      <ele>144.013</ele>
      <time>2015-09-06T08:15:53Z</time>
    </trkpt>
    <trkpt lat="48.438993" lon="2.667874">
      <ele>144.192</ele>
      <time>2015-09-06T08:15:55Z</time>
    </trkpt>
    <trkpt lat="48.438896" lon="2.66784">
      <ele>144.538</ele>
      <time>2015-09-06T08:15:57Z</time>
    </trkpt>
    <trkpt lat="48.438803" lon="2.667817">
      <ele>144.143</ele>
      <time>2015-09-06T08:15:59Z</time>
    </trkpt>
    <trkpt lat="48.438664" lon="2.667777">
      <ele>143.386</ele>
      <time>2015-09-06T08:16:02Z</time>
    </trkpt>
    <trkpt lat="48.438571" lon="2.667737">
      <ele>143.149</ele>
      <time>2015-09-06T08:16:04Z</time>
    </trkpt>
    <trkpt lat="48.438469" lon="2.667682">
      <ele>143.178</ele>
      <time>2015-09-06T08:16:06Z</time>
    </trkpt>
    <trkpt lat="48.438306" lon="2.667541">
      <ele>143.705</ele>
      <time>2015-09-06T08:16:10Z</time>
    </trkpt>
    <trkpt lat="48.438219" lon="2.667479">
      <ele>144.138</ele>
      <time>2015-09-06T08:16:12Z</time>
    </trkpt>
    <trkpt lat="48.438096" lon="2.667422">
      <ele>144.761</ele>
      <time>2015-09-06T08:16:15Z</time>
    </trkpt>
    <trkpt lat="48.43798" lon="2.667369">
      <ele>145.287</ele>
      <time>2015-09-06T08:16:18Z</time>
    </trkpt>
    <trkpt lat="48.437889" lon="2.667346">
      <ele>145.331</ele>
      <time>2015-09-06T08:16:20Z</time>
    </trkpt>
    <trkpt lat="48.437761" lon="2.667286">
      <ele>145.48</ele>
      <time>2015-09-06T08:16:23Z</time>
    </trkpt>
    <trkpt lat="48.43764" lon="2.667242">
      <ele>145.362</ele>
      <time>2015-09-06T08:16:26Z</time>
    </trkpt>
    <trkpt lat="48.437515" lon="2.667175">
      <ele>145.233</ele>
      <time>2015-09-06T08:16:28Z</time>
    </trkpt>
    <trkpt lat="48.437393" lon="2.667116">
      <ele>144.759</ele>
      <time>2015-09-06T08:16:30Z</time>
    </trkpt>
    <trkpt lat="48.437271" lon="2.667085">
      <ele>144.252</ele>
      <time>2015-09-06T08:16:32Z</time>
    </trkpt>
    <trkpt lat="48.437136" lon="2.667065">
      <ele>143.376</ele>
      <time>2015-09-06T08:16:34Z</time>
    </trkpt>
    <trkpt lat="48.437026" lon="2.667064">
      <ele>142.422</ele>
      <time>2015-09-06T08:16:36Z</time>
    </trkpt>
    <trkpt lat="48.436919" lon="2.667058">
      <ele>141.499</ele>
      <time>2015-09-06T08:16:38Z</time>
    </trkpt>
    <trkpt lat="48.436816" lon="2.667066">
      <ele>140.3</ele>
      <time>2015-09-06T08:16:40Z</time>
    </trkpt>
    <trkpt lat="48.436698" lon="2.667083">
      <ele>138.842</ele>
      <time>2015-09-06T08:16:42Z</time>
    </trkpt>
    <trkpt lat="48.436585" lon="2.667098">
      <ele>138.473</ele>
      <time>2015-09-06T08:16:44Z</time>
    </trkpt>
    <trkpt lat="48.436479" lon="2.667149">
      <ele>137.969</ele>
      <time>2015-09-06T08:16:46Z</time>
    </trkpt>
    <trkpt lat="48.436371" lon="2.667155">
      <ele>137.904</ele>
      <time>2015-09-06T08:16:48Z</time>
    </trkpt>
    <trkpt lat="48.43627" lon="2.667152">
      <ele>137.583</ele>
      <time>2015-09-06T08:16:50Z</time>
    </trkpt>
    <trkpt lat="48.43617" lon="2.667127">
      <ele>137.583</ele>
      <time>2015-09-06T08:16:52Z</time>
    </trkpt>
    <trkpt lat="48.436087" lon="2.667026">
      <ele>138.713</ele>
      <time>2015-09-06T08:16:55Z</time>
    </trkpt>
    <trkpt lat="48.436004" lon="2.666967">
      <ele>139.258</ele>
      <time>2015-09-06T08:16:58Z</time>
    </trkpt>
    <trkpt lat="48.435895" lon="2.666928">
      <ele>139.386</ele>
      <time>2015-09-06T08:17:02Z</time>
    </trkpt>
    <trkpt lat="48.43579" lon="2.666801">
      <ele>140.781</ele>
      <time>2015-09-06T08:17:06Z</time>
    </trkpt>
    <trkpt lat="48.435592" lon="2.666666">
      <ele>142.871</ele>
      <time>2015-09-06T08:17:11Z</time>
    </trkpt>
    <trkpt lat="48.435499" lon="2.666544">
      <ele>143.849</ele>
      <time>2015-09-06T08:17:14Z</time>
    </trkpt>
    <trkpt lat="48.435442" lon="2.66639">
      <ele>144.814</ele>
      <time>2015-09-06T08:17:17Z</time>
    </trkpt>
    <trkpt lat="48.435317" lon="2.666357">
      <ele>145.718</ele>
      <time>2015-09-06T08:17:20Z</time>
    </trkpt>
    <trkpt lat="48.435171" lon="2.66633">
      <ele>146.384</ele>
      <time>2015-09-06T08:17:22Z</time>
    </trkpt>
    <trkpt lat="48.435062" lon="2.666338">
      <ele>146.777</ele>
      <time>2015-09-06T08:17:25Z</time>
    </trkpt>
    <trkpt lat="48.434936" lon="2.666308">
      <ele>146.837</ele>
      <time>2015-09-06T08:17:28Z</time>
    </trkpt>
    <trkpt lat="48.434844" lon="2.666291">
      <ele>146.636</ele>
      <time>2015-09-06T08:17:31Z</time>
    </trkpt>
    <trkpt lat="48.434746" lon="2.666266">
      <ele>146.49</ele>
      <time>2015-09-06T08:17:34Z</time>
    </trkpt>
    <trkpt lat="48.434631" lon="2.666261">
      <ele>146.638</ele>
      <time>2015-09-06T08:17:37Z</time>
    </trkpt>
    <trkpt lat="48.434539" lon="2.666241">
      <ele>146.841</ele>
      <time>2015-09-06T08:17:40Z</time>
    </trkpt>
    <trkpt lat="48.434443" lon="2.666258">
      <ele>147.008</ele>
      <time>2015-09-06T08:17:43Z</time>
    </trkpt>
    <trkpt lat="48.434341" lon="2.6662">
      <ele>147.626</ele>
      <time>2015-09-06T08:17:47Z</time>
    </trkpt>
    <trkpt lat="48.434241" lon="2.666185">
      <ele>148.27</ele>
      <time>2015-09-06T08:17:50Z</time>
    </trkpt>
    <trkpt lat="48.434142" lon="2.66615">
      <ele>148.949</ele>
      <time>2015-09-06T08:17:52Z</time>
    </trkpt>
    <trkpt lat="48.434044" lon="2.666079">
      <ele>149.442</ele>
      <time>2015-09-06T08:17:55Z</time>
    </trkpt>
    <trkpt lat="48.433928" lon="2.666068">
      <ele>149.859</ele>
      <time>2015-09-06T08:17:58Z</time>
    </trkpt>
    <trkpt lat="48.433818" lon="2.66603">
      <ele>149.819</ele>
      <time>2015-09-06T08:18:01Z</time>
    </trkpt>
    <trkpt lat="48.433702" lon="2.666008">
      <ele>149.577</ele>
      <time>2015-09-06T08:18:03Z</time>
    </trkpt>
    <trkpt lat="48.433593" lon="2.665991">
      <ele>149.367</ele>
      <time>2015-09-06T08:18:05Z</time>
    </trkpt>
    <trkpt lat="48.43349" lon="2.665982">
      <ele>149.029</ele>
      <time>2015-09-06T08:18:07Z</time>
    </trkpt>
    <trkpt lat="48.433238" lon="2.665991">
      <ele>148.089</ele>
      <time>2015-09-06T08:18:13Z</time>
    </trkpt>
    <trkpt lat="48.433114" lon="2.665989">
      <ele>147.65</ele>
      <time>2015-09-06T08:18:16Z</time>
    </trkpt>
    <trkpt lat="48.433009" lon="2.665924">
      <ele>147.841</ele>
      <time>2015-09-06T08:18:19Z</time>
    </trkpt>
    <trkpt lat="48.432906" lon="2.665874">
      <ele>148.392</ele>
      <time>2015-09-06T08:18:22Z</time>
    </trkpt>
    <trkpt lat="48.432806" lon="2.665849">
      <ele>148.842</ele>
      <time>2015-09-06T08:18:25Z</time>
    </trkpt>
    <trkpt lat="48.43267" lon="2.665838">
      <ele>149.371</ele>
      <time>2015-09-06T08:18:28Z</time>
    </trkpt>
    <trkpt lat="48.432584" lon="2.665801">
      <ele>149.733</ele>
      <time>2015-09-06T08:18:30Z</time>
    </trkpt>
    <trkpt lat="48.432454" lon="2.665752">
      <ele>149.883</ele>
      <time>2015-09-06T08:18:32Z</time>
    </trkpt>
    <trkpt lat="48.432358" lon="2.665722">
      <ele>149.694</ele>
      <time>2015-09-06T08:18:34Z</time>
    </trkpt>
    <trkpt lat="48.432265" lon="2.665693">
      <ele>149.581</ele>
      <time>2015-09-06T08:18:36Z</time>
    </trkpt>
    <trkpt lat="48.43217" lon="2.665665">
      <ele>149.23</ele>
      <time>2015-09-06T08:18:38Z</time>
    </trkpt>
    <trkpt lat="48.432076" lon="2.665654">
      <ele>148.593</ele>
      <time>2015-09-06T08:18:40Z</time>
    </trkpt>
    <trkpt lat="48.43196" lon="2.665626">
      <ele>147.858</ele>
      <time>2015-09-06T08:18:43Z</time>
    </trkpt>
    <trkpt lat="48.431839" lon="2.665649">
      <ele>147.156</ele>
      <time>2015-09-06T08:18:46Z</time>
    </trkpt>
    <trkpt lat="48.431706" lon="2.665656">
      <ele>146.47</ele>
      <time>2015-09-06T08:18:49Z</time>
    </trkpt>
    <trkpt lat="48.431574" lon="2.66563">
      <ele>146.464</ele>
      <time>2015-09-06T08:18:51Z</time>
    </trkpt>
    <trkpt lat="48.431456" lon="2.665597">
      <ele>146.702</ele>
      <time>2015-09-06T08:18:54Z</time>
    </trkpt>
    <trkpt lat="48.431363" lon="2.665578">
      <ele>146.924</ele>
      <time>2015-09-06T08:18:56Z</time>
    </trkpt>
    <trkpt lat="48.431262" lon="2.665579">
      <ele>147.249</ele>
      <time>2015-09-06T08:18:58Z</time>
    </trkpt>
    <trkpt lat="48.431159" lon="2.665563">
      <ele>147.752</ele>
      <time>2015-09-06T08:19:00Z</time>
    </trkpt>
    <trkpt lat="48.431067" lon="2.665558">
      <ele>148.134</ele>
      <time>2015-09-06T08:19:02Z</time>
    </trkpt>
    <trkpt lat="48.430977" lon="2.665567">
      <ele>148.379</ele>
      <time>2015-09-06T08:19:04Z</time>
    </trkpt>
    <trkpt lat="48.430886" lon="2.665669">
      <ele>147.916</ele>
      <time>2015-09-06T08:19:07Z</time>
    </trkpt>
    <trkpt lat="48.430797" lon="2.665706">
      <ele>147.988</ele>
      <time>2015-09-06T08:19:09Z</time>
    </trkpt>
    <trkpt lat="48.430589" lon="2.665934">
      <ele>147.155</ele>
      <time>2015-09-06T08:19:16Z</time>
    </trkpt>
    <trkpt lat="48.430498" lon="2.666078">
      <ele>146.214</ele>
      <time>2015-09-06T08:19:19Z</time>
    </trkpt>
    <trkpt lat="48.430431" lon="2.666215">
      <ele>145.42</ele>
      <time>2015-09-06T08:19:22Z</time>
    </trkpt>
    <trkpt lat="48.430369" lon="2.666325">
      <ele>144.977</ele>
      <time>2015-09-06T08:19:24Z</time>
    </trkpt>
    <trkpt lat="48.430319" lon="2.66645">
      <ele>144.379</ele>
      <time>2015-09-06T08:19:26Z</time>
    </trkpt>
    <trkpt lat="48.430234" lon="2.666532">
      <ele>144.051</ele>
      <time>2015-09-06T08:19:28Z</time>
    </trkpt>
    <trkpt lat="48.430157" lon="2.666658">
      <ele>143.484</ele>
      <time>2015-09-06T08:19:31Z</time>
    </trkpt>
    <trkpt lat="48.430086" lon="2.666753">
      <ele>143.283</ele>
      <time>2015-09-06T08:19:34Z</time>
    </trkpt>
    <trkpt lat="48.430024" lon="2.666904">
      <ele>142.985</ele>
      <time>2015-09-06T08:19:37Z</time>
    </trkpt>
    <trkpt lat="48.429999" lon="2.667056">
      <ele>142.603</ele>
      <time>2015-09-06T08:19:41Z</time>
    </trkpt>
    <trkpt lat="48.429951" lon="2.667214">
      <ele>142.377</ele>
      <time>2015-09-06T08:19:45Z</time>
    </trkpt>
    <trkpt lat="48.430003" lon="2.667343">
      <ele>141.083</ele>
      <time>2015-09-06T08:19:49Z</time>
    </trkpt>
    <trkpt lat="48.430076" lon="2.667508">
      <ele>138.546</ele>
      <time>2015-09-06T08:19:53Z</time>
    </trkpt>
    <trkpt lat="48.430026" lon="2.667642">
      <ele>137.998</ele>
      <time>2015-09-06T08:19:59Z</time>
    </trkpt>
    <trkpt lat="48.429964" lon="2.667749">
      <ele>137.686</ele>
      <time>2015-09-06T08:20:03Z</time>
    </trkpt>
    <trkpt lat="48.429914" lon="2.667868">
      <ele>137.279</ele>
      <time>2015-09-06T08:20:08Z</time>
    </trkpt>
    <trkpt lat="48.429938" lon="2.668029">
      <ele>135.861</ele>
      <time>2015-09-06T08:20:13Z</time>
    </trkpt>
    <trkpt lat="48.429852" lon="2.668142">
      <ele>135.665</ele>
      <time>2015-09-06T08:20:31Z</time>
    </trkpt>
    <trkpt lat="48.429811" lon="2.668012">
      <ele>137.355</ele>
      <time>2015-09-06T08:20:38Z</time>
    </trkpt>
    <trkpt lat="48.429715" lon="2.667938">
      <ele>138.872</ele>
      <time>2015-09-06T08:20:43Z</time>
    </trkpt>
    <trkpt lat="48.429601" lon="2.667913">
      <ele>139.463</ele>
      <time>2015-09-06T08:20:47Z</time>
    </trkpt>
    <trkpt lat="48.429489" lon="2.66794">
      <ele>139.672</ele>
      <time>2015-09-06T08:20:53Z</time>
    </trkpt>
    <trkpt lat="48.429447" lon="2.667793">
      <ele>140.881</ele>
      <time>2015-09-06T08:21:02Z</time>
    </trkpt>
    <trkpt lat="48.429353" lon="2.667771">
      <ele>140.695</ele>
      <time>2015-09-06T08:21:05Z</time>
    </trkpt>
    <trkpt lat="48.429312" lon="2.667636">
      <ele>141.034</ele>
      <time>2015-09-06T08:21:11Z</time>
    </trkpt>
    <trkpt lat="48.429232" lon="2.667547">
      <ele>141.066</ele>
      <time>2015-09-06T08:21:18Z</time>
    </trkpt>
    <trkpt lat="48.429161" lon="2.667253">
      <ele>142.778</ele>
      <time>2015-09-06T08:21:26Z</time>
    </trkpt>
    <trkpt lat="48.429119" lon="2.667109">
      <ele>143.07</ele>
      <time>2015-09-06T08:21:29Z</time>
    </trkpt>
    <trkpt lat="48.42905" lon="2.667004">
      <ele>143.33</ele>
      <time>2015-09-06T08:21:32Z</time>
    </trkpt>
    <trkpt lat="48.428995" lon="2.666868">
      <ele>143.618</ele>
      <time>2015-09-06T08:21:36Z</time>
    </trkpt>
    <trkpt lat="48.428932" lon="2.666708">
      <ele>143.845</ele>
      <time>2015-09-06T08:21:40Z</time>
    </trkpt>
    <trkpt lat="48.428834" lon="2.666622">
      <ele>144.129</ele>
      <time>2015-09-06T08:21:43Z</time>
    </trkpt>
    <trkpt lat="48.428733" lon="2.666565">
      <ele>144.161</ele>
      <time>2015-09-06T08:21:46Z</time>
    </trkpt>
    <trkpt lat="48.428632" lon="2.666556">
      <ele>144.03</ele>
      <time>2015-09-06T08:21:49Z</time>
    </trkpt>
    <trkpt lat="48.428529" lon="2.666559">
      <ele>143.523</ele>
      <time>2015-09-06T08:21:51Z</time>
    </trkpt>
    <trkpt lat="48.428402" lon="2.666551">
      <ele>142.808</ele>
      <time>2015-09-06T08:21:54Z</time>
    </trkpt>
    <trkpt lat="48.428287" lon="2.666546">
      <ele>142.268</ele>
      <time>2015-09-06T08:21:58Z</time>
    </trkpt>
    <trkpt lat="48.428182" lon="2.666571">
      <ele>141.8</ele>
      <time>2015-09-06T08:22:02Z</time>
    </trkpt>
    <trkpt lat="48.428143" lon="2.666435">
      <ele>142.149</ele>
      <time>2015-09-06T08:22:11Z</time>
    </trkpt>
    <trkpt lat="48.428085" lon="2.666273">
      <ele>142.106</ele>
      <time>2015-09-06T08:22:14Z</time>
    </trkpt>
    <trkpt lat="48.428052" lon="2.66613">
      <ele>142.0</ele>
      <time>2015-09-06T08:22:17Z</time>
    </trkpt>
    <trkpt lat="48.428047" lon="2.665953">
      <ele>141.982</ele>
      <time>2015-09-06T08:22:21Z</time>
    </trkpt>
    <trkpt lat="48.428015" lon="2.665614">
      <ele>141.854</ele>
      <time>2015-09-06T08:22:27Z</time>
    </trkpt>
    <trkpt lat="48.428013" lon="2.665464">
      <ele>141.568</ele>
      <time>2015-09-06T08:22:30Z</time>
    </trkpt>
    <trkpt lat="48.428024" lon="2.665324">
      <ele>141.147</ele>
      <time>2015-09-06T08:22:33Z</time>
    </trkpt>
    <trkpt lat="48.428014" lon="2.66515">
      <ele>140.609</ele>
      <time>2015-09-06T08:22:36Z</time>
    </trkpt>
    <trkpt lat="48.42799" lon="2.664989">
      <ele>140.266</ele>
      <time>2015-09-06T08:22:39Z</time>
    </trkpt>
    <trkpt lat="48.427966" lon="2.664796">
      <ele>140.82</ele>
      <time>2015-09-06T08:22:42Z</time>
    </trkpt>
    <trkpt lat="48.427944" lon="2.664649">
      <ele>141.264</ele>
      <time>2015-09-06T08:22:45Z</time>
    </trkpt>
    <trkpt lat="48.427919" lon="2.664501">
      <ele>141.796</ele>
      <time>2015-09-06T08:22:48Z</time>
    </trkpt>
    <trkpt lat="48.4279" lon="2.664329">
      <ele>142.0</ele>
      <time>2015-09-06T08:22:52Z</time>
    </trkpt>
    <trkpt lat="48.427899" lon="2.664184">
      <ele>142.0</ele>
      <time>2015-09-06T08:22:55Z</time>
    </trkpt>
    <trkpt lat="48.427831" lon="2.66405">
      <ele>142.0</ele>
      <time>2015-09-06T08:22:59Z</time>
    </trkpt>
    <trkpt lat="48.427754" lon="2.663968">
      <ele>142.061</ele>
      <time>2015-09-06T08:23:31Z</time>
    </trkpt>
    <trkpt lat="48.427584" lon="2.663805">
      <ele>143.091</ele>
      <time>2015-09-06T08:24:01Z</time>
    </trkpt>
    <trkpt lat="48.427527" lon="2.663684">
      <ele>143.712</ele>
      <time>2015-09-06T08:24:08Z</time>
    </trkpt>
    <trkpt lat="48.427443" lon="2.66363">
      <ele>144.123</ele>
      <time>2015-09-06T08:24:11Z</time>
    </trkpt>
    <trkpt lat="48.427335" lon="2.66358">
      <ele>144.818</ele>
      <time>2015-09-06T08:24:14Z</time>
    </trkpt>
    <trkpt lat="48.427235" lon="2.663524">
      <ele>145.581</ele>
      <time>2015-09-06T08:24:19Z</time>
    </trkpt>
    <trkpt lat="48.427138" lon="2.663481">
      <ele>145.776</ele>
      <time>2015-09-06T08:24:23Z</time>
    </trkpt>
    <trkpt lat="48.427038" lon="2.663468">
      <ele>145.709</ele>
      <time>2015-09-06T08:24:27Z</time>
    </trkpt>
    <trkpt lat="48.427133" lon="2.663551">
      <ele>145.181</ele>
      <time>2015-09-06T08:24:41Z</time>
    </trkpt>
    <trkpt lat="48.427355" lon="2.663643">
      <ele>144.347</ele>
      <time>2015-09-06T08:24:47Z</time>
    </trkpt>
    <trkpt lat="48.427459" lon="2.663677">
      <ele>143.875</ele>
      <time>2015-09-06T08:24:50Z</time>
    </trkpt>
    <trkpt lat="48.427562" lon="2.663714">
      <ele>143.547</ele>
      <time>2015-09-06T08:24:54Z</time>
    </trkpt>
    <trkpt lat="48.427643" lon="2.663637">
      <ele>143.859</ele>
      <time>2015-09-06T08:24:59Z</time>
    </trkpt>
    <trkpt lat="48.427741" lon="2.663566">
      <ele>144.184</ele>
      <time>2015-09-06T08:25:05Z</time>
    </trkpt>
    <trkpt lat="48.427723" lon="2.663403">
      <ele>144.897</ele>
      <time>2015-09-06T08:25:10Z</time>
    </trkpt>
    <trkpt lat="48.427732" lon="2.663246">
      <ele>145.531</ele>
      <time>2015-09-06T08:25:13Z</time>
    </trkpt>
    <trkpt lat="48.427753" lon="2.663092">
      <ele>146.035</ele>
      <time>2015-09-06T08:25:16Z</time>
    </trkpt>
    <trkpt lat="48.427765" lon="2.662915">
      <ele>147.563</ele>
      <time>2015-09-06T08:25:19Z</time>
    </trkpt>
    <trkpt lat="48.427764" lon="2.662755">
      <ele>149.0</ele>
      <time>2015-09-06T08:25:22Z</time>
    </trkpt>
    <trkpt lat="48.427791" lon="2.66257">
      <ele>148.893</ele>
      <time>2015-09-06T08:25:25Z</time>
    </trkpt>
    <trkpt lat="48.427796" lon="2.662403">
      <ele>148.543</ele>
      <time>2015-09-06T08:25:28Z</time>
    </trkpt>
    <trkpt lat="48.427824" lon="2.662221">
      <ele>147.829</ele>
      <time>2015-09-06T08:25:31Z</time>
    </trkpt>
    <trkpt lat="48.427842" lon="2.662035">
      <ele>147.095</ele>
      <time>2015-09-06T08:25:34Z</time>
    </trkpt>
    <trkpt lat="48.427854" lon="2.661858">
      <ele>146.5</ele>
      <time>2015-09-06T08:25:37Z</time>
    </trkpt>
    <trkpt lat="48.427869" lon="2.66168">
      <ele>146.032</ele>
      <time>2015-09-06T08:25:40Z</time>
    </trkpt>
    <trkpt lat="48.427902" lon="2.661549">
      <ele>146.0</ele>
      <time>2015-09-06T08:25:42Z</time>
    </trkpt>
    <trkpt lat="48.42793" lon="2.661221">
      <ele>146.273</ele>
      <time>2015-09-06T08:25:48Z</time>
    </trkpt>
    <trkpt lat="48.427931" lon="2.661054">
      <ele>146.356</ele>
      <time>2015-09-06T08:25:51Z</time>
    </trkpt>
    <trkpt lat="48.427947" lon="2.6609">
      <ele>146.094</ele>
      <time>2015-09-06T08:25:54Z</time>
    </trkpt>
    <trkpt lat="48.427946" lon="2.660725">
      <ele>145.61</ele>
      <time>2015-09-06T08:25:57Z</time>
    </trkpt>
    <trkpt lat="48.427969" lon="2.660558">
      <ele>145.009</ele>
      <time>2015-09-06T08:26:00Z</time>
    </trkpt>
    <trkpt lat="48.427972" lon="2.660412">
      <ele>144.483</ele>
      <time>2015-09-06T08:26:02Z</time>
    </trkpt>
    <trkpt lat="48.427989" lon="2.660245">
      <ele>143.91</ele>
      <time>2015-09-06T08:26:05Z</time>
    </trkpt>
    <trkpt lat="48.427983" lon="2.660104">
      <ele>143.538</ele>
      <time>2015-09-06T08:26:07Z</time>
    </trkpt>
    <trkpt lat="48.427969" lon="2.659923">
      <ele>143.589</ele>
      <time>2015-09-06T08:26:10Z</time>
    </trkpt>
    <trkpt lat="48.427997" lon="2.659789">
      <ele>143.97</ele>
      <time>2015-09-06T08:26:14Z</time>
    </trkpt>
    <trkpt lat="48.428077" lon="2.659726">
      <ele>143.91</ele>
      <time>2015-09-06T08:26:22Z</time>
    </trkpt>
    <trkpt lat="48.428154" lon="2.659649">
      <ele>143.816</ele>
      <time>2015-09-06T08:26:28Z</time>
    </trkpt>
    <trkpt lat="48.428235" lon="2.659572">
      <ele>143.545</ele>
      <time>2015-09-06T08:26:32Z</time>
    </trkpt>
    <trkpt lat="48.428333" lon="2.659546">
      <ele>143.002</ele>
      <time>2015-09-06T08:26:36Z</time>
    </trkpt>
    <trkpt lat="48.428415" lon="2.659466">
      <ele>142.706</ele>
      <time>2015-09-06T08:26:40Z</time>
    </trkpt>
    <trkpt lat="48.428519" lon="2.659424">
      <ele>142.332</ele>
      <time>2015-09-06T08:26:46Z</time>
    </trkpt>
    <trkpt lat="48.428727" lon="2.659354">
      <ele>141.583</ele>
      <time>2015-09-06T08:26:52Z</time>
    </trkpt>
    <trkpt lat="48.428821" lon="2.659318">
      <ele>141.244</ele>
      <time>2015-09-06T08:26:55Z</time>
    </trkpt>
    <trkpt lat="48.428911" lon="2.659255">
      <ele>140.841</ele>
      <time>2015-09-06T08:26:58Z</time>
    </trkpt>
    <trkpt lat="48.428996" lon="2.659178">
      <ele>140.229</ele>
      <time>2015-09-06T08:27:01Z</time>
    </trkpt>
    <trkpt lat="48.429091" lon="2.659081">
      <ele>139.461</ele>
      <time>2015-09-06T08:27:04Z</time>
    </trkpt>
    <trkpt lat="48.429201" lon="2.659002">
      <ele>138.876</ele>
      <time>2015-09-06T08:27:07Z</time>
    </trkpt>
    <trkpt lat="48.429281" lon="2.658914">
      <ele>138.588</ele>
      <time>2015-09-06T08:27:10Z</time>
    </trkpt>
    <trkpt lat="48.429384" lon="2.658784">
      <ele>138.218</ele>
      <time>2015-09-06T08:27:13Z</time>
    </trkpt>
    <trkpt lat="48.42948" lon="2.658757">
      <ele>138.0</ele>
      <time>2015-09-06T08:27:14Z</time>
    </trkpt>
    <trkpt lat="48.429572" lon="2.658654">
      <ele>138.0</ele>
      <time>2015-09-06T08:27:16Z</time>
    </trkpt>
    <trkpt lat="48.429644" lon="2.658496">
      <ele>137.586</ele>
      <time>2015-09-06T08:27:18Z</time>
    </trkpt>
    <trkpt lat="48.429665" lon="2.658348">
      <ele>137.053</ele>
      <time>2015-09-06T08:27:20Z</time>
    </trkpt>
    <trkpt lat="48.429687" lon="2.658212">
      <ele>137.0</ele>
      <time>2015-09-06T08:27:22Z</time>
    </trkpt>
    <trkpt lat="48.4297" lon="2.658038">
      <ele>136.942</ele>
      <time>2015-09-06T08:27:24Z</time>
    </trkpt>
    <trkpt lat="48.429729" lon="2.657847">
      <ele>136.219</ele>
      <time>2015-09-06T08:27:27Z</time>
    </trkpt>
    <trkpt lat="48.429764" lon="2.657698">
      <ele>135.806</ele>
      <time>2015-09-06T08:27:29Z</time>
    </trkpt>
    <trkpt lat="48.429781" lon="2.657536">
      <ele>135.604</ele>
      <time>2015-09-06T08:27:31Z</time>
    </trkpt>
    <trkpt lat="48.429808" lon="2.65737">
      <ele>135.059</ele>
      <time>2015-09-06T08:27:33Z</time>
    </trkpt>
    <trkpt lat="48.429861" lon="2.657209">
      <ele>134.453</ele>
      <time>2015-09-06T08:27:35Z</time>
    </trkpt>
    <trkpt lat="48.429911" lon="2.657063">
      <ele>133.747</ele>
      <time>2015-09-06T08:27:37Z</time>
    </trkpt>
    <trkpt lat="48.429962" lon="2.656906">
      <ele>133.118</ele>
      <time>2015-09-06T08:27:39Z</time>
    </trkpt>
    <trkpt lat="48.430004" lon="2.656759">
      <ele>132.986</ele>
      <time>2015-09-06T08:27:41Z</time>
    </trkpt>
    <trkpt lat="48.43007" lon="2.656651">
      <ele>132.677</ele>
      <time>2015-09-06T08:27:43Z</time>
    </trkpt>
    <trkpt lat="48.430153" lon="2.656464">
      <ele>131.318</ele>
      <time>2015-09-06T08:27:46Z</time>
    </trkpt>
    <trkpt lat="48.430239" lon="2.656181">
      <ele>129.426</ele>
      <time>2015-09-06T08:27:50Z</time>
    </trkpt>
    <trkpt lat="48.430252" lon="2.656045">
      <ele>128.401</ele>
      <time>2015-09-06T08:27:52Z</time>
    </trkpt>
    <trkpt lat="48.430257" lon="2.655903">
      <ele>126.883</ele>
      <time>2015-09-06T08:27:54Z</time>
    </trkpt>
    <trkpt lat="48.430244" lon="2.655769">
      <ele>125.836</ele>
      <time>2015-09-06T08:27:56Z</time>
    </trkpt>
    <trkpt lat="48.430252" lon="2.655558">
      <ele>124.387</ele>
      <time>2015-09-06T08:27:59Z</time>
    </trkpt>
    <trkpt lat="48.430251" lon="2.655409">
      <ele>123.807</ele>
      <time>2015-09-06T08:28:01Z</time>
    </trkpt>
    <trkpt lat="48.430282" lon="2.655226">
      <ele>122.645</ele>
      <time>2015-09-06T08:28:04Z</time>
    </trkpt>
    <trkpt lat="48.4303" lon="2.655087">
      <ele>121.761</ele>
      <time>2015-09-06T08:28:06Z</time>
    </trkpt>
    <trkpt lat="48.430327" lon="2.654954">
      <ele>121.053</ele>
      <time>2015-09-06T08:28:08Z</time>
    </trkpt>
    <trkpt lat="48.430351" lon="2.654798">
      <ele>120.264</ele>
      <time>2015-09-06T08:28:10Z</time>
    </trkpt>
    <trkpt lat="48.43036" lon="2.654656">
      <ele>119.72</ele>
      <time>2015-09-06T08:28:12Z</time>
    </trkpt>
    <trkpt lat="48.430361" lon="2.65448">
      <ele>119.288</ele>
      <time>2015-09-06T08:28:15Z</time>
    </trkpt>
    <trkpt lat="48.430365" lon="2.654326">
      <ele>119.256</ele>
      <time>2015-09-06T08:28:18Z</time>
    </trkpt>
    <trkpt lat="48.430369" lon="2.654171">
      <ele>119.314</ele>
      <time>2015-09-06T08:28:21Z</time>
    </trkpt>
    <trkpt lat="48.430389" lon="2.654009">
      <ele>119.489</ele>
      <time>2015-09-06T08:28:22Z</time>
    </trkpt>
    <trkpt lat="48.430408" lon="2.653774">
      <ele>119.813</ele>
      <time>2015-09-06T08:28:24Z</time>
    </trkpt>
    <trkpt lat="48.430358" lon="2.653568">
      <ele>118.622</ele>
      <time>2015-09-06T08:28:26Z</time>
    </trkpt>
    <trkpt lat="48.430262" lon="2.653378">
      <ele>115.886</ele>
      <time>2015-09-06T08:28:28Z</time>
    </trkpt>
    <trkpt lat="48.430195" lon="2.65327">
      <ele>114.214</ele>
      <time>2015-09-06T08:28:29Z</time>
    </trkpt>
    <trkpt lat="48.430125" lon="2.65305">
      <ele>111.682</ele>
      <time>2015-09-06T08:28:31Z</time>
    </trkpt>
    <trkpt lat="48.430041" lon="2.652939">
      <ele>109.762</ele>
      <time>2015-09-06T08:28:32Z</time>
    </trkpt>
    <trkpt lat="48.429956" lon="2.652714">
      <ele>108.807</ele>
      <time>2015-09-06T08:28:34Z</time>
    </trkpt>
    <trkpt lat="48.429946" lon="2.65254">
      <ele>108.31</ele>
      <time>2015-09-06T08:28:36Z</time>
    </trkpt>
    <trkpt lat="48.429945" lon="2.652335">
      <ele>107.486</ele>
      <time>2015-09-06T08:28:38Z</time>
    </trkpt>
    <trkpt lat="48.42991" lon="2.652159">
      <ele>106.471</ele>
      <time>2015-09-06T08:28:40Z</time>
    </trkpt>
    <trkpt lat="48.429919" lon="2.651963">
      <ele>104.861</ele>
      <time>2015-09-06T08:28:42Z</time>
    </trkpt>
    <trkpt lat="48.429893" lon="2.651811">
      <ele>104.134</ele>
      <time>2015-09-06T08:28:44Z</time>
    </trkpt>
    <trkpt lat="48.429906" lon="2.651652">
      <ele>103.662</ele>
      <time>2015-09-06T08:28:47Z</time>
    </trkpt>
    <trkpt lat="48.429987" lon="2.651323">
      <ele>103.501</ele>
      <time>2015-09-06T08:28:52Z</time>
    </trkpt>
    <trkpt lat="48.430022" lon="2.651155">
      <ele>102.474</ele>
      <time>2015-09-06T08:28:55Z</time>
    </trkpt>
    <trkpt lat="48.430076" lon="2.650963">
      <ele>102.255</ele>
      <time>2015-09-06T08:28:58Z</time>
    </trkpt>
    <trkpt lat="48.430119" lon="2.650831">
      <ele>102.001</ele>
      <time>2015-09-06T08:29:00Z</time>
    </trkpt>
    <trkpt lat="48.430173" lon="2.650682">
      <ele>101.866</ele>
      <time>2015-09-06T08:29:02Z</time>
    </trkpt>
    <trkpt lat="48.430222" lon="2.650552">
      <ele>101.402</ele>
      <time>2015-09-06T08:29:04Z</time>
    </trkpt>
    <trkpt lat="48.430273" lon="2.650404">
      <ele>101.034</ele>
      <time>2015-09-06T08:29:06Z</time>
    </trkpt>
    <trkpt lat="48.430321" lon="2.650271">
      <ele>100.996</ele>
      <time>2015-09-06T08:29:08Z</time>
    </trkpt>
    <trkpt lat="48.430387" lon="2.650125">
      <ele>100.784</ele>
      <time>2015-09-06T08:29:10Z</time>
    </trkpt>
    <trkpt lat="48.430444" lon="2.649992">
      <ele>100.402</ele>
      <time>2015-09-06T08:29:12Z</time>
    </trkpt>
    <trkpt lat="48.430492" lon="2.649819">
      <ele>100.229</ele>
      <time>2015-09-06T08:29:14Z</time>
    </trkpt>
    <trkpt lat="48.430536" lon="2.6497">
      <ele>100.145</ele>
      <time>2015-09-06T08:29:16Z</time>
    </trkpt>
    <trkpt lat="48.430585" lon="2.649575">
      <ele>100.474</ele>
      <time>2015-09-06T08:29:18Z</time>
    </trkpt>
    <trkpt lat="48.430629" lon="2.64944">
      <ele>100.724</ele>
      <time>2015-09-06T08:29:20Z</time>
    </trkpt>
    <trkpt lat="48.430698" lon="2.649256">
      <ele>100.157</ele>
      <time>2015-09-06T08:29:23Z</time>
    </trkpt>
    <trkpt lat="48.43073" lon="2.649129">
      <ele>99.864</ele>
      <time>2015-09-06T08:29:25Z</time>
    </trkpt>
    <trkpt lat="48.430777" lon="2.648962">
      <ele>99.263</ele>
      <time>2015-09-06T08:29:28Z</time>
    </trkpt>
    <trkpt lat="48.430844" lon="2.648808">
      <ele>99.011</ele>
      <time>2015-09-06T08:29:31Z</time>
    </trkpt>
    <trkpt lat="48.430881" lon="2.648624">
      <ele>99.164</ele>
      <time>2015-09-06T08:29:34Z</time>
    </trkpt>
    <trkpt lat="48.430888" lon="2.64846">
      <ele>99.197</ele>
      <time>2015-09-06T08:29:37Z</time>
    </trkpt>
    <trkpt lat="48.430885" lon="2.648286">
      <ele>99.356</ele>
      <time>2015-09-06T08:29:41Z</time>
    </trkpt>
    <trkpt lat="48.430879" lon="2.648127">
      <ele>99.907</ele>
      <time>2015-09-06T08:29:45Z</time>
    </trkpt>
    <trkpt lat="48.430824" lon="2.647945">
      <ele>100.796</ele>
      <time>2015-09-06T08:29:49Z</time>
    </trkpt>
    <trkpt lat="48.430742" lon="2.647649">
      <ele>102.927</ele>
      <time>2015-09-06T08:29:57Z</time>
    </trkpt>
    <trkpt lat="48.430702" lon="2.647495">
      <ele>104.037</ele>
      <time>2015-09-06T08:30:01Z</time>
    </trkpt>
    <trkpt lat="48.430653" lon="2.64737">
      <ele>104.796</ele>
      <time>2015-09-06T08:30:04Z</time>
    </trkpt>
    <trkpt lat="48.43062" lon="2.647237">
      <ele>105.386</ele>
      <time>2015-09-06T08:30:08Z</time>
    </trkpt>
    <trkpt lat="48.430575" lon="2.647086">
      <ele>105.209</ele>
      <time>2015-09-06T08:30:13Z</time>
    </trkpt>
    <trkpt lat="48.430514" lon="2.646952">
      <ele>105.004</ele>
      <time>2015-09-06T08:30:17Z</time>
    </trkpt>
    <trkpt lat="48.430428" lon="2.646912">
      <ele>104.946</ele>
      <time>2015-09-06T08:30:19Z</time>
    </trkpt>
    <trkpt lat="48.430365" lon="2.646813">
      <ele>104.675</ele>
      <time>2015-09-06T08:30:22Z</time>
    </trkpt>
    <trkpt lat="48.430279" lon="2.646699">
      <ele>104.12</ele>
      <time>2015-09-06T08:30:26Z</time>
    </trkpt>
    <trkpt lat="48.430211" lon="2.646605">
      <ele>104.649</ele>
      <time>2015-09-06T08:30:30Z</time>
    </trkpt>
    <trkpt lat="48.430118" lon="2.646557">
      <ele>105.318</ele>
      <time>2015-09-06T08:30:34Z</time>
    </trkpt>
    <trkpt lat="48.430025" lon="2.646528">
      <ele>105.865</ele>
      <time>2015-09-06T08:30:40Z</time>
    </trkpt>
    <trkpt lat="48.429916" lon="2.64646">
      <ele>106.682</ele>
      <time>2015-09-06T08:30:45Z</time>
    </trkpt>
    <trkpt lat="48.42982" lon="2.646414">
      <ele>107.355</ele>
      <time>2015-09-06T08:30:50Z</time>
    </trkpt>
    <trkpt lat="48.429652" lon="2.646241">
      <ele>109.291</ele>
      <time>2015-09-06T08:31:03Z</time>
    </trkpt>
    <trkpt lat="48.429561" lon="2.646191">
      <ele>110.454</ele>
      <time>2015-09-06T08:31:14Z</time>
    </trkpt>
    <trkpt lat="48.42948" lon="2.646123">
      <ele>111.573</ele>
      <time>2015-09-06T08:31:24Z</time>
    </trkpt>
    <trkpt lat="48.429377" lon="2.646076">
      <ele>113.255</ele>
      <time>2015-09-06T08:31:28Z</time>
    </trkpt>
    <trkpt lat="48.429292" lon="2.646026">
      <ele>114.976</ele>
      <time>2015-09-06T08:31:32Z</time>
    </trkpt>
    <trkpt lat="48.429183" lon="2.645952">
      <ele>117.45</ele>
      <time>2015-09-06T08:31:36Z</time>
    </trkpt>
    <trkpt lat="48.429083" lon="2.645899">
      <ele>119.868</ele>
      <time>2015-09-06T08:31:41Z</time>
    </trkpt>
    <trkpt lat="48.429029" lon="2.645758">
      <ele>122.02</ele>
      <time>2015-09-06T08:31:46Z</time>
    </trkpt>
    <trkpt lat="48.428993" lon="2.645624">
      <ele>123.633</ele>
      <time>2015-09-06T08:31:52Z</time>
    </trkpt>
    <trkpt lat="48.428832" lon="2.645425">
      <ele>128.277</ele>
      <time>2015-09-06T08:32:03Z</time>
    </trkpt>
    <trkpt lat="48.428855" lon="2.645288">
      <ele>128.663</ele>
      <time>2015-09-06T08:32:08Z</time>
    </trkpt>
    <trkpt lat="48.428861" lon="2.645146">
      <ele>128.602</ele>
      <time>2015-09-06T08:32:14Z</time>
    </trkpt>
    <trkpt lat="48.428824" lon="2.645005">
      <ele>129.402</ele>
      <time>2015-09-06T08:32:19Z</time>
    </trkpt>
    <trkpt lat="48.428828" lon="2.644839">
      <ele>129.442</ele>
      <time>2015-09-06T08:32:29Z</time>
    </trkpt>
    <trkpt lat="48.428827" lon="2.644674">
      <ele>129.868</ele>
      <time>2015-09-06T08:32:34Z</time>
    </trkpt>
    <trkpt lat="48.428813" lon="2.644522">
      <ele>131.157</ele>
      <time>2015-09-06T08:32:39Z</time>
    </trkpt>
    <trkpt lat="48.428804" lon="2.644383">
      <ele>132.055</ele>
      <time>2015-09-06T08:32:45Z</time>
    </trkpt>
    <trkpt lat="48.428812" lon="2.644221">
      <ele>132.465</ele>
      <time>2015-09-06T08:32:50Z</time>
    </trkpt>
    <trkpt lat="48.428809" lon="2.644059">
      <ele>133.389</ele>
      <time>2015-09-06T08:32:56Z</time>
    </trkpt>
    <trkpt lat="48.428814" lon="2.643763">
      <ele>134.348</ele>
      <time>2015-09-06T08:33:11Z</time>
    </trkpt>
    <trkpt lat="48.428843" lon="2.643628">
      <ele>133.826</ele>
      <time>2015-09-06T08:33:17Z</time>
    </trkpt>
    <trkpt lat="48.428866" lon="2.643429">
      <ele>133.466</ele>
      <time>2015-09-06T08:33:23Z</time>
    </trkpt>
    <trkpt lat="48.428858" lon="2.643283">
      <ele>134.03</ele>
      <time>2015-09-06T08:33:27Z</time>
    </trkpt>
    <trkpt lat="48.428905" lon="2.643105">
      <ele>134.538</ele>
      <time>2015-09-06T08:33:32Z</time>
    </trkpt>
    <trkpt lat="48.428923" lon="2.642927">
      <ele>135.623</ele>
      <time>2015-09-06T08:33:37Z</time>
    </trkpt>
    <trkpt lat="48.428926" lon="2.642755">
      <ele>136.752</ele>
      <time>2015-09-06T08:33:41Z</time>
    </trkpt>
    <trkpt lat="48.428979" lon="2.642615">
      <ele>137.009</ele>
      <time>2015-09-06T08:33:47Z</time>
    </trkpt>
    <trkpt lat="48.42902" lon="2.642486">
      <ele>137.115</ele>
      <time>2015-09-06T08:33:52Z</time>
    </trkpt>
    <trkpt lat="48.429047" lon="2.642338">
      <ele>136.642</ele>
      <time>2015-09-06T08:33:56Z</time>
    </trkpt>
    <trkpt lat="48.42906" lon="2.642182">
      <ele>136.304</ele>
      <time>2015-09-06T08:34:02Z</time>
    </trkpt>
    <trkpt lat="48.429169" lon="2.641917">
      <ele>134.164</ele>
      <time>2015-09-06T08:34:10Z</time>
    </trkpt>
    <trkpt lat="48.429163" lon="2.641773">
      <ele>135.305</ele>
      <time>2015-09-06T08:34:15Z</time>
    </trkpt>
    <trkpt lat="48.429171" lon="2.641619">
      <ele>136.112</ele>
      <time>2015-09-06T08:34:19Z</time>
    </trkpt>
    <trkpt lat="48.429194" lon="2.641465">
      <ele>136.404</ele>
      <time>2015-09-06T08:34:25Z</time>
    </trkpt>
    <trkpt lat="48.429229" lon="2.641324">
      <ele>137.209</ele>
      <time>2015-09-06T08:34:29Z</time>
    </trkpt>
    <trkpt lat="48.429318" lon="2.641254">
      <ele>137.043</ele>
      <time>2015-09-06T08:34:35Z</time>
    </trkpt>
    <trkpt lat="48.429373" lon="2.641143">
      <ele>137.655</ele>
      <time>2015-09-06T08:34:40Z</time>
    </trkpt>
    <trkpt lat="48.429431" lon="2.640988">
      <ele>138.08</ele>
      <time>2015-09-06T08:34:45Z</time>
    </trkpt>
    <trkpt lat="48.429449" lon="2.640821">
      <ele>139.071</ele>
      <time>2015-09-06T08:34:51Z</time>
    </trkpt>
    <trkpt lat="48.429471" lon="2.640687">
      <ele>139.857</ele>
      <time>2015-09-06T08:34:54Z</time>
    </trkpt>
    <trkpt lat="48.429506" lon="2.640519">
      <ele>140.467</ele>
      <time>2015-09-06T08:34:58Z</time>
    </trkpt>
    <trkpt lat="48.429552" lon="2.640365">
      <ele>140.524</ele>
      <time>2015-09-06T08:35:02Z</time>
    </trkpt>
    <trkpt lat="48.429612" lon="2.640092">
      <ele>139.787</ele>
      <time>2015-09-06T08:35:09Z</time>
    </trkpt>
    <trkpt lat="48.429636" lon="2.639945">
      <ele>139.105</ele>
      <time>2015-09-06T08:35:12Z</time>
    </trkpt>
    <trkpt lat="48.429676" lon="2.639784">
      <ele>138.017</ele>
      <time>2015-09-06T08:35:16Z</time>
    </trkpt>
    <trkpt lat="48.429711" lon="2.639643">
      <ele>137.214</ele>
      <time>2015-09-06T08:35:20Z</time>
    </trkpt>
    <trkpt lat="48.429725" lon="2.639492">
      <ele>136.962</ele>
      <time>2015-09-06T08:35:22Z</time>
    </trkpt>
    <trkpt lat="48.429724" lon="2.639341">
      <ele>137.347</ele>
      <time>2015-09-06T08:35:25Z</time>
    </trkpt>
    <trkpt lat="48.429716" lon="2.639197">
      <ele>137.985</ele>
      <time>2015-09-06T08:35:28Z</time>
    </trkpt>
    <trkpt lat="48.429652" lon="2.639093">
      <ele>138.88</ele>
      <time>2015-09-06T08:35:33Z</time>
    </trkpt>
    <trkpt lat="48.429588" lon="2.638971">
      <ele>139.909</ele>
      <time>2015-09-06T08:35:36Z</time>
    </trkpt>
    <trkpt lat="48.429607" lon="2.638837">
      <ele>139.598</ele>
      <time>2015-09-06T08:35:40Z</time>
    </trkpt>
    <trkpt lat="48.429648" lon="2.638707">
      <ele>139.083</ele>
      <time>2015-09-06T08:35:43Z</time>
    </trkpt>
    <trkpt lat="48.429695" lon="2.638573">
      <ele>138.49</ele>
      <time>2015-09-06T08:35:46Z</time>
    </trkpt>
    <trkpt lat="48.429738" lon="2.638423">
      <ele>137.83</ele>
      <time>2015-09-06T08:35:49Z</time>
    </trkpt>
    <trkpt lat="48.429775" lon="2.638291">
      <ele>137.706</ele>
      <time>2015-09-06T08:35:52Z</time>
    </trkpt>
    <trkpt lat="48.429824" lon="2.638145">
      <ele>138.008</ele>
      <time>2015-09-06T08:35:55Z</time>
    </trkpt>
    <trkpt lat="48.429849" lon="2.638013">
      <ele>138.244</ele>
      <time>2015-09-06T08:35:58Z</time>
    </trkpt>
    <trkpt lat="48.42992" lon="2.637855">
      <ele>137.666</ele>
      <time>2015-09-06T08:36:02Z</time>
    </trkpt>
    <trkpt lat="48.429991" lon="2.637719">
      <ele>137.309</ele>
      <time>2015-09-06T08:36:05Z</time>
    </trkpt>
    <trkpt lat="48.430134" lon="2.637513">
      <ele>136.529</ele>
      <time>2015-09-06T08:36:11Z</time>
    </trkpt>
    <trkpt lat="48.430155" lon="2.637375">
      <ele>136.776</ele>
      <time>2015-09-06T08:36:13Z</time>
    </trkpt>
    <trkpt lat="48.430209" lon="2.637254">
      <ele>136.628</ele>
      <time>2015-09-06T08:36:16Z</time>
    </trkpt>
    <trkpt lat="48.430291" lon="2.637162">
      <ele>136.159</ele>
      <time>2015-09-06T08:36:20Z</time>
    </trkpt>
    <trkpt lat="48.430404" lon="2.637128">
      <ele>135.731</ele>
      <time>2015-09-06T08:36:23Z</time>
    </trkpt>
    <trkpt lat="48.430509" lon="2.637153">
      <ele>135.209</ele>
      <time>2015-09-06T08:36:26Z</time>
    </trkpt>
    <trkpt lat="48.430618" lon="2.637204">
      <ele>134.775</ele>
      <time>2015-09-06T08:36:29Z</time>
    </trkpt>
    <trkpt lat="48.430719" lon="2.637234">
      <ele>134.369</ele>
      <time>2015-09-06T08:36:31Z</time>
    </trkpt>
    <trkpt lat="48.430833" lon="2.637164">
      <ele>134.001</ele>
      <time>2015-09-06T08:36:34Z</time>
    </trkpt>
    <trkpt lat="48.430913" lon="2.637087">
      <ele>133.279</ele>
      <time>2015-09-06T08:36:56Z</time>
    </trkpt>
    <trkpt lat="48.430922" lon="2.636919">
      <ele>133.453</ele>
      <time>2015-09-06T08:37:01Z</time>
    </trkpt>
    <trkpt lat="48.430943" lon="2.636766">
      <ele>133.853</ele>
      <time>2015-09-06T08:37:08Z</time>
    </trkpt>
    <trkpt lat="48.430964" lon="2.636455">
      <ele>135.18</ele>
      <time>2015-09-06T08:37:22Z</time>
    </trkpt>
    <trkpt lat="48.430947" lon="2.636288">
      <ele>135.954</ele>
      <time>2015-09-06T08:37:27Z</time>
    </trkpt>
    <trkpt lat="48.430979" lon="2.636146">
      <ele>136.35</ele>
      <time>2015-09-06T08:37:32Z</time>
    </trkpt>
    <trkpt lat="48.431038" lon="2.636003">
      <ele>136.652</ele>
      <time>2015-09-06T08:37:37Z</time>
    </trkpt>
    <trkpt lat="48.431112" lon="2.635891">
      <ele>136.786</ele>
      <time>2015-09-06T08:37:42Z</time>
    </trkpt>
    <trkpt lat="48.431206" lon="2.635788">
      <ele>136.373</ele>
      <time>2015-09-06T08:37:46Z</time>
    </trkpt>
    <trkpt lat="48.431304" lon="2.635736">
      <ele>135.855</ele>
      <time>2015-09-06T08:37:51Z</time>
    </trkpt>
    <trkpt lat="48.431342" lon="2.635603">
      <ele>136.027</ele>
      <time>2015-09-06T08:37:57Z</time>
    </trkpt>
    <trkpt lat="48.431399" lon="2.635477">
      <ele>135.937</ele>
      <time>2015-09-06T08:38:00Z</time>
    </trkpt>
    <trkpt lat="48.431427" lon="2.635344">
      <ele>135.83</ele>
      <time>2015-09-06T08:38:03Z</time>
    </trkpt>
    <trkpt lat="48.431441" lon="2.635202">
      <ele>135.983</ele>
      <time>2015-09-06T08:38:06Z</time>
    </trkpt>
    <trkpt lat="48.431441" lon="2.635043">
      <ele>136.34</ele>
      <time>2015-09-06T08:38:09Z</time>
    </trkpt>
    <trkpt lat="48.431393" lon="2.634737">
      <ele>136.956</ele>
      <time>2015-09-06T08:38:15Z</time>
    </trkpt>
    <trkpt lat="48.431384" lon="2.63457">
      <ele>136.471</ele>
      <time>2015-09-06T08:38:18Z</time>
    </trkpt>
    <trkpt lat="48.431451" lon="2.634428">
      <ele>135.822</ele>
      <time>2015-09-06T08:38:21Z</time>
    </trkpt>
    <trkpt lat="48.431511" lon="2.63431">
      <ele>135.832</ele>
      <time>2015-09-06T08:38:24Z</time>
    </trkpt>
    <trkpt lat="48.431562" lon="2.634146">
      <ele>135.828</ele>
      <time>2015-09-06T08:38:27Z</time>
    </trkpt>
    <trkpt lat="48.43158" lon="2.633989">
      <ele>136.264</ele>
      <time>2015-09-06T08:38:31Z</time>
    </trkpt>
    <trkpt lat="48.431605" lon="2.633856">
      <ele>136.536</ele>
      <time>2015-09-06T08:38:33Z</time>
    </trkpt>
    <trkpt lat="48.431583" lon="2.6337">
      <ele>137.078</ele>
      <time>2015-09-06T08:38:38Z</time>
    </trkpt>
    <trkpt lat="48.431579" lon="2.633549">
      <ele>137.163</ele>
      <time>2015-09-06T08:38:43Z</time>
    </trkpt>
    <trkpt lat="48.431594" lon="2.633414">
      <ele>136.738</ele>
      <time>2015-09-06T08:38:59Z</time>
    </trkpt>
    <trkpt lat="48.431576" lon="2.633272">
      <ele>136.36</ele>
      <time>2015-09-06T08:39:25Z</time>
    </trkpt>
    <trkpt lat="48.431636" lon="2.63298">
      <ele>134.324</ele>
      <time>2015-09-06T08:39:52Z</time>
    </trkpt>
    <trkpt lat="48.431687" lon="2.632865">
      <ele>132.896</ele>
      <time>2015-09-06T08:40:14Z</time>
    </trkpt>
    <trkpt lat="48.431726" lon="2.632734">
      <ele>131.527</ele>
      <time>2015-09-06T08:40:36Z</time>
    </trkpt>
    <trkpt lat="48.431842" lon="2.632517">
      <ele>129.184</ele>
      <time>2015-09-06T08:41:10Z</time>
    </trkpt>
    <trkpt lat="48.431836" lon="2.632374">
      <ele>127.816</ele>
      <time>2015-09-06T08:41:28Z</time>
    </trkpt>
    <trkpt lat="48.431762" lon="2.632287">
      <ele>127.203</ele>
      <time>2015-09-06T08:41:41Z</time>
    </trkpt>
    <trkpt lat="48.431813" lon="2.631985">
      <ele>125.169</ele>
      <time>2015-09-06T08:41:54Z</time>
    </trkpt>
    <trkpt lat="48.431863" lon="2.63186">
      <ele>123.46</ele>
      <time>2015-09-06T08:41:57Z</time>
    </trkpt>
    <trkpt lat="48.431905" lon="2.631721">
      <ele>121.181</ele>
      <time>2015-09-06T08:42:01Z</time>
    </trkpt>
    <trkpt lat="48.43189" lon="2.631569">
      <ele>119.954</ele>
      <time>2015-09-06T08:42:13Z</time>
    </trkpt>
    <trkpt lat="48.431959" lon="2.631432">
      <ele>118.31</ele>
      <time>2015-09-06T08:42:20Z</time>
    </trkpt>
    <trkpt lat="48.432043" lon="2.63134">
      <ele>117.875</ele>
      <time>2015-09-06T08:42:26Z</time>
    </trkpt>
    <trkpt lat="48.432136" lon="2.631201">
      <ele>117.067</ele>
      <time>2015-09-06T08:42:30Z</time>
    </trkpt>
    <trkpt lat="48.432226" lon="2.631082">
      <ele>115.856</ele>
      <time>2015-09-06T08:42:33Z</time>
    </trkpt>
    <trkpt lat="48.432318" lon="2.630973">
      <ele>114.64</ele>
      <time>2015-09-06T08:42:35Z</time>
    </trkpt>
    <trkpt lat="48.432361" lon="2.630844">
      <ele>114.02</ele>
      <time>2015-09-06T08:42:37Z</time>
    </trkpt>
    <trkpt lat="48.432381" lon="2.630683">
      <ele>113.316</ele>
      <time>2015-09-06T08:42:40Z</time>
    </trkpt>
    <trkpt lat="48.432432" lon="2.630555">
      <ele>112.488</ele>
      <time>2015-09-06T08:42:43Z</time>
    </trkpt>
    <trkpt lat="48.432486" lon="2.630242">
      <ele>111.029</ele>
      <time>2015-09-06T08:42:49Z</time>
    </trkpt>
    <trkpt lat="48.432553" lon="2.630064">
      <ele>110.04</ele>
      <time>2015-09-06T08:42:52Z</time>
    </trkpt>
    <trkpt lat="48.432579" lon="2.629891">
      <ele>109.212</ele>
      <time>2015-09-06T08:42:55Z</time>
    </trkpt>
    <trkpt lat="48.432597" lon="2.62974">
      <ele>108.388</ele>
      <time>2015-09-06T08:42:58Z</time>
    </trkpt>
    <trkpt lat="48.43264" lon="2.629562">
      <ele>107.992</ele>
      <time>2015-09-06T08:43:01Z</time>
    </trkpt>
    <trkpt lat="48.432696" lon="2.62945">
      <ele>107.589</ele>
      <time>2015-09-06T08:43:03Z</time>
    </trkpt>
    <trkpt lat="48.432732" lon="2.629276">
      <ele>107.43</ele>
      <time>2015-09-06T08:43:06Z</time>
    </trkpt>
    <trkpt lat="48.432747" lon="2.629126">
      <ele>107.495</ele>
      <time>2015-09-06T08:43:09Z</time>
    </trkpt>
    <trkpt lat="48.432806" lon="2.628974">
      <ele>107.522</ele>
      <time>2015-09-06T08:43:12Z</time>
    </trkpt>
    <trkpt lat="48.432826" lon="2.628804">
      <ele>107.905</ele>
      <time>2015-09-06T08:43:15Z</time>
    </trkpt>
    <trkpt lat="48.432779" lon="2.628681">
      <ele>108.736</ele>
      <time>2015-09-06T08:43:19Z</time>
    </trkpt>
    <trkpt lat="48.432754" lon="2.628547">
      <ele>109.744</ele>
      <time>2015-09-06T08:43:22Z</time>
    </trkpt>
    <trkpt lat="48.4328" lon="2.628416">
      <ele>109.406</ele>
      <time>2015-09-06T08:43:29Z</time>
    </trkpt>
    <trkpt lat="48.432939" lon="2.628235">
      <ele>107.975</ele>
      <time>2015-09-06T08:43:35Z</time>
    </trkpt>
    <trkpt lat="48.433029" lon="2.62817">
      <ele>106.495</ele>
      <time>2015-09-06T08:43:39Z</time>
    </trkpt>
    <trkpt lat="48.43313" lon="2.628211">
      <ele>105.464</ele>
      <time>2015-09-06T08:43:43Z</time>
    </trkpt>
    <trkpt lat="48.433214" lon="2.628131">
      <ele>104.859</ele>
      <time>2015-09-06T08:43:48Z</time>
    </trkpt>
    <trkpt lat="48.433364" lon="2.627938">
      <ele>103.558</ele>
      <time>2015-09-06T08:44:00Z</time>
    </trkpt>
    <trkpt lat="48.433443" lon="2.627844">
      <ele>102.421</ele>
      <time>2015-09-06T08:44:09Z</time>
    </trkpt>
    <trkpt lat="48.433516" lon="2.627763">
      <ele>101.351</ele>
      <time>2015-09-06T08:44:13Z</time>
    </trkpt>
    <trkpt lat="48.433516" lon="2.627625">
      <ele>101.181</ele>
      <time>2015-09-06T08:44:17Z</time>
    </trkpt>
    <trkpt lat="48.433534" lon="2.627475">
      <ele>100.768</ele>
      <time>2015-09-06T08:44:22Z</time>
    </trkpt>
    <trkpt lat="48.433496" lon="2.627345">
      <ele>100.916</ele>
      <time>2015-09-06T08:44:27Z</time>
    </trkpt>
    <trkpt lat="48.433485" lon="2.62719">
      <ele>100.753</ele>
      <time>2015-09-06T08:44:32Z</time>
    </trkpt>
    <trkpt lat="48.433391" lon="2.627157">
      <ele>102.121</ele>
      <time>2015-09-06T08:44:37Z</time>
    </trkpt>
    <trkpt lat="48.433336" lon="2.62704">
      <ele>102.955</ele>
      <time>2015-09-06T08:44:41Z</time>
    </trkpt>
    <trkpt lat="48.433268" lon="2.626914">
      <ele>104.63</ele>
      <time>2015-09-06T08:44:48Z</time>
    </trkpt>
    <trkpt lat="48.433157" lon="2.626681">
      <ele>108.706</ele>
      <time>2015-09-06T08:44:58Z</time>
    </trkpt>
    <trkpt lat="48.433183" lon="2.626546">
      <ele>109.55</ele>
      <time>2015-09-06T08:45:03Z</time>
    </trkpt>
    <trkpt lat="48.433187" lon="2.626402">
      <ele>111.019</ele>
      <time>2015-09-06T08:45:08Z</time>
    </trkpt>
    <trkpt lat="48.433199" lon="2.626265">
      <ele>112.47</ele>
      <time>2015-09-06T08:45:17Z</time>
    </trkpt>
    <trkpt lat="48.433195" lon="2.626119">
      <ele>114.391</ele>
      <time>2015-09-06T08:45:24Z</time>
    </trkpt>
    <trkpt lat="48.433187" lon="2.625973">
      <ele>115.89</ele>
      <time>2015-09-06T08:45:33Z</time>
    </trkpt>
    <trkpt lat="48.433171" lon="2.625833">
      <ele>117.507</ele>
      <time>2015-09-06T08:45:40Z</time>
    </trkpt>
    <trkpt lat="48.433156" lon="2.625693">
      <ele>118.153</ele>
      <time>2015-09-06T08:45:59Z</time>
    </trkpt>
    <trkpt lat="48.433021" lon="2.625495">
      <ele>121.649</ele>
      <time>2015-09-06T08:46:19Z</time>
    </trkpt>
    <trkpt lat="48.432938" lon="2.625441">
      <ele>123.291</ele>
      <time>2015-09-06T08:46:35Z</time>
    </trkpt>
    <trkpt lat="48.432853" lon="2.625395">
      <ele>125.067</ele>
      <time>2015-09-06T08:46:47Z</time>
    </trkpt>
    <trkpt lat="48.432816" lon="2.625257">
      <ele>126.174</ele>
      <time>2015-09-06T08:46:58Z</time>
    </trkpt>
    <trkpt lat="48.432755" lon="2.62514">
      <ele>127.246</ele>
      <time>2015-09-06T08:47:05Z</time>
    </trkpt>
    <trkpt lat="48.432713" lon="2.624896">
      <ele>127.413</ele>
      <time>2015-09-06T08:48:39Z</time>
    </trkpt>
    <trkpt lat="48.432621" lon="2.624651">
      <ele>128.258</ele>
      <time>2015-09-06T08:48:53Z</time>
    </trkpt>
    <trkpt lat="48.432584" lon="2.62452">
      <ele>128.79</ele>
      <time>2015-09-06T08:48:55Z</time>
    </trkpt>
    <trkpt lat="48.432555" lon="2.624369">
      <ele>129.208</ele>
      <time>2015-09-06T08:48:58Z</time>
    </trkpt>
    <trkpt lat="48.432523" lon="2.62423">
      <ele>129.669</ele>
      <time>2015-09-06T08:49:01Z</time>
    </trkpt>
    <trkpt lat="48.432496" lon="2.624092">
      <ele>130.043</ele>
      <time>2015-09-06T08:49:04Z</time>
    </trkpt>
    <trkpt lat="48.432517" lon="2.623933">
      <ele>129.858</ele>
      <time>2015-09-06T08:49:06Z</time>
    </trkpt>
    <trkpt lat="48.432494" lon="2.623791">
      <ele>129.712</ele>
      <time>2015-09-06T08:49:10Z</time>
    </trkpt>
    <trkpt lat="48.432424" lon="2.623704">
      <ele>130.155</ele>
      <time>2015-09-06T08:49:16Z</time>
    </trkpt>
    <trkpt lat="48.432348" lon="2.623798">
      <ele>131.314</ele>
      <time>2015-09-06T08:49:23Z</time>
    </trkpt>
    <trkpt lat="48.432312" lon="2.623934">
      <ele>132.03</ele>
      <time>2015-09-06T08:49:28Z</time>
    </trkpt>
    <trkpt lat="48.432306" lon="2.624078">
      <ele>132.095</ele>
      <time>2015-09-06T08:49:34Z</time>
    </trkpt>
    <trkpt lat="48.432316" lon="2.624228">
      <ele>131.987</ele>
      <time>2015-09-06T08:49:41Z</time>
    </trkpt>
    <trkpt lat="48.432302" lon="2.624526">
      <ele>132.138</ele>
      <time>2015-09-06T08:49:54Z</time>
    </trkpt>
    <trkpt lat="48.43229" lon="2.624726">
      <ele>132.258</ele>
      <time>2015-09-06T08:49:58Z</time>
    </trkpt>
    <trkpt lat="48.432295" lon="2.624863">
      <ele>131.84</ele>
      <time>2015-09-06T08:50:01Z</time>
    </trkpt>
    <trkpt lat="48.432267" lon="2.624992">
      <ele>131.702</ele>
      <time>2015-09-06T08:50:05Z</time>
    </trkpt>
    <trkpt lat="48.432287" lon="2.625135">
      <ele>131.161</ele>
      <time>2015-09-06T08:50:08Z</time>
    </trkpt>
    <trkpt lat="48.432281" lon="2.625284">
      <ele>130.748</ele>
      <time>2015-09-06T08:50:12Z</time>
    </trkpt>
    <trkpt lat="48.432247" lon="2.625416">
      <ele>129.96</ele>
      <time>2015-09-06T08:50:16Z</time>
    </trkpt>
    <trkpt lat="48.432187" lon="2.625557">
      <ele>129.506</ele>
      <time>2015-09-06T08:50:21Z</time>
    </trkpt>
    <trkpt lat="48.432156" lon="2.625699">
      <ele>129.707</ele>
      <time>2015-09-06T08:50:26Z</time>
    </trkpt>
    <trkpt lat="48.432113" lon="2.625864">
      <ele>129.566</ele>
      <time>2015-09-06T08:50:31Z</time>
    </trkpt>
    <trkpt lat="48.432092" lon="2.626001">
      <ele>128.73</ele>
      <time>2015-09-06T08:50:35Z</time>
    </trkpt>
    <trkpt lat="48.432069" lon="2.626157">
      <ele>127.847</ele>
      <time>2015-09-06T08:50:38Z</time>
    </trkpt>
    <trkpt lat="48.432056" lon="2.626307">
      <ele>127.07</ele>
      <time>2015-09-06T08:50:41Z</time>
    </trkpt>
    <trkpt lat="48.432001" lon="2.626463">
      <ele>126.475</ele>
      <time>2015-09-06T08:50:44Z</time>
    </trkpt>
    <trkpt lat="48.431892" lon="2.626728">
      <ele>126.566</ele>
      <time>2015-09-06T08:50:48Z</time>
    </trkpt>
    <trkpt lat="48.431861" lon="2.62687">
      <ele>126.901</ele>
      <time>2015-09-06T08:50:50Z</time>
    </trkpt>
    <trkpt lat="48.431826" lon="2.627033">
      <ele>127.232</ele>
      <time>2015-09-06T08:50:52Z</time>
    </trkpt>
    <trkpt lat="48.431799" lon="2.627187">
      <ele>127.612</ele>
      <time>2015-09-06T08:50:54Z</time>
    </trkpt>
    <trkpt lat="48.431746" lon="2.627369">
      <ele>129.251</ele>
      <time>2015-09-06T08:50:56Z</time>
    </trkpt>
    <trkpt lat="48.431738" lon="2.627535">
      <ele>130.192</ele>
      <time>2015-09-06T08:50:59Z</time>
    </trkpt>
    <trkpt lat="48.431721" lon="2.627691">
      <ele>131.458</ele>
      <time>2015-09-06T08:51:05Z</time>
    </trkpt>
    <trkpt lat="48.43169" lon="2.627828">
      <ele>132.746</ele>
      <time>2015-09-06T08:51:10Z</time>
    </trkpt>
    <trkpt lat="48.431662" lon="2.627975">
      <ele>133.76</ele>
      <time>2015-09-06T08:51:16Z</time>
    </trkpt>
    <trkpt lat="48.431664" lon="2.628115">
      <ele>134.029</ele>
      <time>2015-09-06T08:51:22Z</time>
    </trkpt>
    <trkpt lat="48.431648" lon="2.628257">
      <ele>134.202</ele>
      <time>2015-09-06T08:51:31Z</time>
    </trkpt>
    <trkpt lat="48.431598" lon="2.628371">
      <ele>134.504</ele>
      <time>2015-09-06T08:51:36Z</time>
    </trkpt>
    <trkpt lat="48.43155" lon="2.628499">
      <ele>134.318</ele>
      <time>2015-09-06T08:51:44Z</time>
    </trkpt>
    <trkpt lat="48.43154" lon="2.628643">
      <ele>133.647</ele>
      <time>2015-09-06T08:51:54Z</time>
    </trkpt>
    <trkpt lat="48.431469" lon="2.628903">
      <ele>133.391</ele>
      <time>2015-09-06T08:52:00Z</time>
    </trkpt>
    <trkpt lat="48.431427" lon="2.629086">
      <ele>132.088</ele>
      <time>2015-09-06T08:52:03Z</time>
    </trkpt>
    <trkpt lat="48.431382" lon="2.62921">
      <ele>131.918</ele>
      <time>2015-09-06T08:52:05Z</time>
    </trkpt>
    <trkpt lat="48.431359" lon="2.629397">
      <ele>131.494</ele>
      <time>2015-09-06T08:52:07Z</time>
    </trkpt>
    <trkpt lat="48.431316" lon="2.629587">
      <ele>131.274</ele>
      <time>2015-09-06T08:52:09Z</time>
    </trkpt>
    <trkpt lat="48.431268" lon="2.629796">
      <ele>131.04</ele>
      <time>2015-09-06T08:52:11Z</time>
    </trkpt>
    <trkpt lat="48.431234" lon="2.629956">
      <ele>130.831</ele>
      <time>2015-09-06T08:52:14Z</time>
    </trkpt>
    <trkpt lat="48.431196" lon="2.630087">
      <ele>131.205</ele>
      <time>2015-09-06T08:52:18Z</time>
    </trkpt>
    <trkpt lat="48.431132" lon="2.630205">
      <ele>132.401</ele>
      <time>2015-09-06T08:52:23Z</time>
    </trkpt>
    <trkpt lat="48.431106" lon="2.630339">
      <ele>133.555</ele>
      <time>2015-09-06T08:52:30Z</time>
    </trkpt>
    <trkpt lat="48.431067" lon="2.630474">
      <ele>135.478</ele>
      <time>2015-09-06T08:52:38Z</time>
    </trkpt>
    <trkpt lat="48.431029" lon="2.630607">
      <ele>137.44</ele>
      <time>2015-09-06T08:52:48Z</time>
    </trkpt>
    <trkpt lat="48.430978" lon="2.630732">
      <ele>139.625</ele>
      <time>2015-09-06T08:52:57Z</time>
    </trkpt>
    <trkpt lat="48.430929" lon="2.631034">
      <ele>141.838</ele>
      <time>2015-09-06T08:53:22Z</time>
    </trkpt>
    <trkpt lat="48.430883" lon="2.631156">
      <ele>142.898</ele>
      <time>2015-09-06T08:53:29Z</time>
    </trkpt>
    <trkpt lat="48.430853" lon="2.631295">
      <ele>143.528</ele>
      <time>2015-09-06T08:53:35Z</time>
    </trkpt>
    <trkpt lat="48.430843" lon="2.631462">
      <ele>143.493</ele>
      <time>2015-09-06T08:53:40Z</time>
    </trkpt>
    <trkpt lat="48.430797" lon="2.631605">
      <ele>143.716</ele>
      <time>2015-09-06T08:53:45Z</time>
    </trkpt>
    <trkpt lat="48.43078" lon="2.631757">
      <ele>143.38</ele>
      <time>2015-09-06T08:53:50Z</time>
    </trkpt>
    <trkpt lat="48.430761" lon="2.631905">
      <ele>142.96</ele>
      <time>2015-09-06T08:53:57Z</time>
    </trkpt>
    <trkpt lat="48.430705" lon="2.632187">
      <ele>143.386</ele>
      <time>2015-09-06T08:54:08Z</time>
    </trkpt>
    <trkpt lat="48.430681" lon="2.632333">
      <ele>143.684</ele>
      <time>2015-09-06T08:54:13Z</time>
    </trkpt>
    <trkpt lat="48.430648" lon="2.632483">
      <ele>144.316</ele>
      <time>2015-09-06T08:54:19Z</time>
    </trkpt>
    <trkpt lat="48.430636" lon="2.632657">
      <ele>144.225</ele>
      <time>2015-09-06T08:54:24Z</time>
    </trkpt>
    <trkpt lat="48.430616" lon="2.632794">
      <ele>144.34</ele>
      <time>2015-09-06T08:54:29Z</time>
    </trkpt>
    <trkpt lat="48.430588" lon="2.632954">
      <ele>143.501</ele>
      <time>2015-09-06T08:54:34Z</time>
    </trkpt>
    <trkpt lat="48.430601" lon="2.633098">
      <ele>142.193</ele>
      <time>2015-09-06T08:54:37Z</time>
    </trkpt>
    <trkpt lat="48.430602" lon="2.633261">
      <ele>141.592</ele>
      <time>2015-09-06T08:54:41Z</time>
    </trkpt>
    <trkpt lat="48.430577" lon="2.633418">
      <ele>141.41</ele>
      <time>2015-09-06T08:54:45Z</time>
    </trkpt>
    <trkpt lat="48.43057" lon="2.633587">
      <ele>140.926</ele>
      <time>2015-09-06T08:54:48Z</time>
    </trkpt>
    <trkpt lat="48.430548" lon="2.63375">
      <ele>140.609</ele>
      <time>2015-09-06T08:54:51Z</time>
    </trkpt>
    <trkpt lat="48.430536" lon="2.633908">
      <ele>140.341</ele>
      <time>2015-09-06T08:54:54Z</time>
    </trkpt>
    <trkpt lat="48.43043" lon="2.634031">
      <ele>141.857</ele>
      <time>2015-09-06T08:54:57Z</time>
    </trkpt>
    <trkpt lat="48.430364" lon="2.634161">
      <ele>142.387</ele>
      <time>2015-09-06T08:55:00Z</time>
    </trkpt>
    <trkpt lat="48.430277" lon="2.634458">
      <ele>143.957</ele>
      <time>2015-09-06T08:55:07Z</time>
    </trkpt>
    <trkpt lat="48.430239" lon="2.634635">
      <ele>143.689</ele>
      <time>2015-09-06T08:55:10Z</time>
    </trkpt>
    <trkpt lat="48.43021" lon="2.634783">
      <ele>143.513</ele>
      <time>2015-09-06T08:55:13Z</time>
    </trkpt>
    <trkpt lat="48.430177" lon="2.63491">
      <ele>143.412</ele>
      <time>2015-09-06T08:55:16Z</time>
    </trkpt>
    <trkpt lat="48.4301" lon="2.635077">
      <ele>143.643</ele>
      <time>2015-09-06T08:55:19Z</time>
    </trkpt>
    <trkpt lat="48.430079" lon="2.635219">
      <ele>143.358</ele>
      <time>2015-09-06T08:55:22Z</time>
    </trkpt>
    <trkpt lat="48.430025" lon="2.635372">
      <ele>143.082</ele>
      <time>2015-09-06T08:55:25Z</time>
    </trkpt>
    <trkpt lat="48.42998" lon="2.635545">
      <ele>142.148</ele>
      <time>2015-09-06T08:55:28Z</time>
    </trkpt>
    <trkpt lat="48.429915" lon="2.635683">
      <ele>142.166</ele>
      <time>2015-09-06T08:55:31Z</time>
    </trkpt>
    <trkpt lat="48.429876" lon="2.635854">
      <ele>142.0</ele>
      <time>2015-09-06T08:55:34Z</time>
    </trkpt>
    <trkpt lat="48.429847" lon="2.635988">
      <ele>142.0</ele>
      <time>2015-09-06T08:55:36Z</time>
    </trkpt>
    <trkpt lat="48.429816" lon="2.63612">
      <ele>142.0</ele>
      <time>2015-09-06T08:55:38Z</time>
    </trkpt>
    <trkpt lat="48.429788" lon="2.636253">
      <ele>142.0</ele>
      <time>2015-09-06T08:55:40Z</time>
    </trkpt>
    <trkpt lat="48.429758" lon="2.636427">
      <ele>142.12</ele>
      <time>2015-09-06T08:55:43Z</time>
    </trkpt>
    <trkpt lat="48.429773" lon="2.636633">
      <ele>142.718</ele>
      <time>2015-09-06T08:55:46Z</time>
    </trkpt>
    <trkpt lat="48.429767" lon="2.636806">
      <ele>142.677</ele>
      <time>2015-09-06T08:55:50Z</time>
    </trkpt>
    <trkpt lat="48.42973" lon="2.636957">
      <ele>142.871</ele>
      <time>2015-09-06T08:55:54Z</time>
    </trkpt>
    <trkpt lat="48.429724" lon="2.637105">
      <ele>142.403</ele>
      <time>2015-09-06T08:55:56Z</time>
    </trkpt>
    <trkpt lat="48.429713" lon="2.637267">
      <ele>141.977</ele>
      <time>2015-09-06T08:55:59Z</time>
    </trkpt>
    <trkpt lat="48.429707" lon="2.637441">
      <ele>141.475</ele>
      <time>2015-09-06T08:56:02Z</time>
    </trkpt>
    <trkpt lat="48.429659" lon="2.637765">
      <ele>141.184</ele>
      <time>2015-09-06T08:56:09Z</time>
    </trkpt>
    <trkpt lat="48.429643" lon="2.637911">
      <ele>141.289</ele>
      <time>2015-09-06T08:56:12Z</time>
    </trkpt>
    <trkpt lat="48.4296" lon="2.638068">
      <ele>141.69</ele>
      <time>2015-09-06T08:56:15Z</time>
    </trkpt>
    <trkpt lat="48.429588" lon="2.638219">
      <ele>141.04</ele>
      <time>2015-09-06T08:56:18Z</time>
    </trkpt>
    <trkpt lat="48.429526" lon="2.638366">
      <ele>141.532</ele>
      <time>2015-09-06T08:56:22Z</time>
    </trkpt>
    <trkpt lat="48.42943" lon="2.638452">
      <ele>143.312</ele>
      <time>2015-09-06T08:56:26Z</time>
    </trkpt>
    <trkpt lat="48.42947" lon="2.638594">
      <ele>142.54</ele>
      <time>2015-09-06T08:56:28Z</time>
    </trkpt>
    <trkpt lat="48.42949" lon="2.638747">
      <ele>142.1</ele>
      <time>2015-09-06T08:56:31Z</time>
    </trkpt>
    <trkpt lat="48.429451" lon="2.638893">
      <ele>142.844</ele>
      <time>2015-09-06T08:56:36Z</time>
    </trkpt>
    <trkpt lat="48.429405" lon="2.639057">
      <ele>143.105</ele>
      <time>2015-09-06T08:56:41Z</time>
    </trkpt>
    <trkpt lat="48.429346" lon="2.639214">
      <ele>143.822</ele>
      <time>2015-09-06T08:56:45Z</time>
    </trkpt>
    <trkpt lat="48.429286" lon="2.63934">
      <ele>144.764</ele>
      <time>2015-09-06T08:56:48Z</time>
    </trkpt>
    <trkpt lat="48.429253" lon="2.639484">
      <ele>144.925</ele>
      <time>2015-09-06T08:56:51Z</time>
    </trkpt>
    <trkpt lat="48.42923" lon="2.639637">
      <ele>144.623</ele>
      <time>2015-09-06T08:56:54Z</time>
    </trkpt>
    <trkpt lat="48.429191" lon="2.639803">
      <ele>144.472</ele>
      <time>2015-09-06T08:56:57Z</time>
    </trkpt>
    <trkpt lat="48.429109" lon="2.63996">
      <ele>144.737</ele>
      <time>2015-09-06T08:57:00Z</time>
    </trkpt>
    <trkpt lat="48.429061" lon="2.640094">
      <ele>145.141</ele>
      <time>2015-09-06T08:57:02Z</time>
    </trkpt>
    <trkpt lat="48.42895" lon="2.640409">
      <ele>146.444</ele>
      <time>2015-09-06T08:57:08Z</time>
    </trkpt>
    <trkpt lat="48.428875" lon="2.640556">
      <ele>147.048</ele>
      <time>2015-09-06T08:57:11Z</time>
    </trkpt>
    <trkpt lat="48.428837" lon="2.6407">
      <ele>146.667</ele>
      <time>2015-09-06T08:57:14Z</time>
    </trkpt>
    <trkpt lat="48.428797" lon="2.64089">
      <ele>145.923</ele>
      <time>2015-09-06T08:57:18Z</time>
    </trkpt>
    <trkpt lat="48.428754" lon="2.641009">
      <ele>145.221</ele>
      <time>2015-09-06T08:57:21Z</time>
    </trkpt>
    <trkpt lat="48.428705" lon="2.641133">
      <ele>144.557</ele>
      <time>2015-09-06T08:57:24Z</time>
    </trkpt>
    <trkpt lat="48.428714" lon="2.641287">
      <ele>143.762</ele>
      <time>2015-09-06T08:57:27Z</time>
    </trkpt>
    <trkpt lat="48.428754" lon="2.641506">
      <ele>142.754</ele>
      <time>2015-09-06T08:57:30Z</time>
    </trkpt>
    <trkpt lat="48.428798" lon="2.641733">
      <ele>141.743</ele>
      <time>2015-09-06T08:57:32Z</time>
    </trkpt>
    <trkpt lat="48.42883" lon="2.641915">
      <ele>140.742</ele>
      <time>2015-09-06T08:57:34Z</time>
    </trkpt>
    <trkpt lat="48.428869" lon="2.642154">
      <ele>140.215</ele>
      <time>2015-09-06T08:57:36Z</time>
    </trkpt>
    <trkpt lat="48.428904" lon="2.642309">
      <ele>139.395</ele>
      <time>2015-09-06T08:57:38Z</time>
    </trkpt>
    <trkpt lat="48.428944" lon="2.642471">
      <ele>138.269</ele>
      <time>2015-09-06T08:57:40Z</time>
    </trkpt>
    <trkpt lat="48.428975" lon="2.642644">
      <ele>136.884</ele>
      <time>2015-09-06T08:57:43Z</time>
    </trkpt>
    <trkpt lat="48.428952" lon="2.642846">
      <ele>135.883</ele>
      <time>2015-09-06T08:57:46Z</time>
    </trkpt>
    <trkpt lat="48.428947" lon="2.643057">
      <ele>134.572</ele>
      <time>2015-09-06T08:57:49Z</time>
    </trkpt>
    <trkpt lat="48.428948" lon="2.643216">
      <ele>133.542</ele>
      <time>2015-09-06T08:57:51Z</time>
    </trkpt>
    <trkpt lat="48.428922" lon="2.643358">
      <ele>132.87</ele>
      <time>2015-09-06T08:57:53Z</time>
    </trkpt>
    <trkpt lat="48.428895" lon="2.643523">
      <ele>132.963</ele>
      <time>2015-09-06T08:57:55Z</time>
    </trkpt>
    <trkpt lat="48.428851" lon="2.643698">
      <ele>133.682</ele>
      <time>2015-09-06T08:57:57Z</time>
    </trkpt>
    <trkpt lat="48.428834" lon="2.643911">
      <ele>133.845</ele>
      <time>2015-09-06T08:57:59Z</time>
    </trkpt>
    <trkpt lat="48.428844" lon="2.644064">
      <ele>132.649</ele>
      <time>2015-09-06T08:58:01Z</time>
    </trkpt>
    <trkpt lat="48.428839" lon="2.644217">
      <ele>131.896</ele>
      <time>2015-09-06T08:58:03Z</time>
    </trkpt>
    <trkpt lat="48.428836" lon="2.644595">
      <ele>130.162</ele>
      <time>2015-09-06T08:58:08Z</time>
    </trkpt>
    <trkpt lat="48.42883" lon="2.644747">
      <ele>129.465</ele>
      <time>2015-09-06T08:58:10Z</time>
    </trkpt>
    <trkpt lat="48.428833" lon="2.644896">
      <ele>129.283</ele>
      <time>2015-09-06T08:58:12Z</time>
    </trkpt>
    <trkpt lat="48.428879" lon="2.645084">
      <ele>128.214</ele>
      <time>2015-09-06T08:58:15Z</time>
    </trkpt>
    <trkpt lat="48.428884" lon="2.645251">
      <ele>128.106</ele>
      <time>2015-09-06T08:58:18Z</time>
    </trkpt>
    <trkpt lat="48.428915" lon="2.645427">
      <ele>126.412</ele>
      <time>2015-09-06T08:58:21Z</time>
    </trkpt>
    <trkpt lat="48.428963" lon="2.645556">
      <ele>124.663</ele>
      <time>2015-09-06T08:58:23Z</time>
    </trkpt>
    <trkpt lat="48.429002" lon="2.645683">
      <ele>123.046</ele>
      <time>2015-09-06T08:58:25Z</time>
    </trkpt>
    <trkpt lat="48.429048" lon="2.645828">
      <ele>121.174</ele>
      <time>2015-09-06T08:58:28Z</time>
    </trkpt>
    <trkpt lat="48.429137" lon="2.645968">
      <ele>118.131</ele>
      <time>2015-09-06T08:58:31Z</time>
    </trkpt>
    <trkpt lat="48.429252" lon="2.64605">
      <ele>115.364</ele>
      <time>2015-09-06T08:58:34Z</time>
    </trkpt>
    <trkpt lat="48.429357" lon="2.646096">
      <ele>113.385</ele>
      <time>2015-09-06T08:58:37Z</time>
    </trkpt>
    <trkpt lat="48.429467" lon="2.646118">
      <ele>111.732</ele>
      <time>2015-09-06T08:58:39Z</time>
    </trkpt>
    <trkpt lat="48.429561" lon="2.646131">
      <ele>110.67</ele>
      <time>2015-09-06T08:58:41Z</time>
    </trkpt>
    <trkpt lat="48.429643" lon="2.646202">
      <ele>109.528</ele>
      <time>2015-09-06T08:58:43Z</time>
    </trkpt>
    <trkpt lat="48.429688" lon="2.646323">
      <ele>108.607</ele>
      <time>2015-09-06T08:58:46Z</time>
    </trkpt>
    <trkpt lat="48.42978" lon="2.646407">
      <ele>107.636</ele>
      <time>2015-09-06T08:58:49Z</time>
    </trkpt>
    <trkpt lat="48.42987" lon="2.646451">
      <ele>107.041</ele>
      <time>2015-09-06T08:58:51Z</time>
    </trkpt>
    <trkpt lat="48.429984" lon="2.646468">
      <ele>106.132</ele>
      <time>2015-09-06T08:58:54Z</time>
    </trkpt>
    <trkpt lat="48.430079" lon="2.64657">
      <ele>105.53</ele>
      <time>2015-09-06T08:58:57Z</time>
    </trkpt>
    <trkpt lat="48.430159" lon="2.64669">
      <ele>104.939</ele>
      <time>2015-09-06T08:59:00Z</time>
    </trkpt>
    <trkpt lat="48.430229" lon="2.646783">
      <ele>104.77</ele>
      <time>2015-09-06T08:59:02Z</time>
    </trkpt>
    <trkpt lat="48.430314" lon="2.646907">
      <ele>104.883</ele>
      <time>2015-09-06T08:59:05Z</time>
    </trkpt>
    <trkpt lat="48.430441" lon="2.647116">
      <ele>105.255</ele>
      <time>2015-09-06T08:59:09Z</time>
    </trkpt>
    <trkpt lat="48.430501" lon="2.647229">
      <ele>105.177</ele>
      <time>2015-09-06T08:59:11Z</time>
    </trkpt>
    <trkpt lat="48.430577" lon="2.647408">
      <ele>104.382</ele>
      <time>2015-09-06T08:59:14Z</time>
    </trkpt>
    <trkpt lat="48.43063" lon="2.647519">
      <ele>103.863</ele>
      <time>2015-09-06T08:59:16Z</time>
    </trkpt>
    <trkpt lat="48.430698" lon="2.647681">
      <ele>102.697</ele>
      <time>2015-09-06T08:59:19Z</time>
    </trkpt>
    <trkpt lat="48.430759" lon="2.647859">
      <ele>101.415</ele>
      <time>2015-09-06T08:59:22Z</time>
    </trkpt>
    <trkpt lat="48.430811" lon="2.647997">
      <ele>100.422</ele>
      <time>2015-09-06T08:59:25Z</time>
    </trkpt>
    <trkpt lat="48.430844" lon="2.648125">
      <ele>99.788</ele>
      <time>2015-09-06T08:59:28Z</time>
    </trkpt>
    <trkpt lat="48.430917" lon="2.64821">
      <ele>99.745</ele>
      <time>2015-09-06T08:59:32Z</time>
    </trkpt>
    <trkpt lat="48.431025" lon="2.648191">
      <ele>100.202</ele>
      <time>2015-09-06T08:59:38Z</time>
    </trkpt>
    <trkpt lat="48.431125" lon="2.648097">
      <ele>100.901</ele>
      <time>2015-09-06T08:59:43Z</time>
    </trkpt>
    <trkpt lat="48.431212" lon="2.648002">
      <ele>101.556</ele>
      <time>2015-09-06T08:59:47Z</time>
    </trkpt>
    <trkpt lat="48.431323" lon="2.647915">
      <ele>102.269</ele>
      <time>2015-09-06T08:59:51Z</time>
    </trkpt>
    <trkpt lat="48.431414" lon="2.647857">
      <ele>102.715</ele>
      <time>2015-09-06T08:59:54Z</time>
    </trkpt>
    <trkpt lat="48.431501" lon="2.647796">
      <ele>102.934</ele>
      <time>2015-09-06T08:59:57Z</time>
    </trkpt>
    <trkpt lat="48.431603" lon="2.647685">
      <ele>103.564</ele>
      <time>2015-09-06T09:00:01Z</time>
    </trkpt>
    <trkpt lat="48.431694" lon="2.647596">
      <ele>103.359</ele>
      <time>2015-09-06T09:00:05Z</time>
    </trkpt>
    <trkpt lat="48.431741" lon="2.647467">
      <ele>103.609</ele>
      <time>2015-09-06T09:00:08Z</time>
    </trkpt>
    <trkpt lat="48.431857" lon="2.647174">
      <ele>104.976</ele>
      <time>2015-09-06T09:00:19Z</time>
    </trkpt>
    <trkpt lat="48.431919" lon="2.647041">
      <ele>104.823</ele>
      <time>2015-09-06T09:00:22Z</time>
    </trkpt>
    <trkpt lat="48.43199" lon="2.646882">
      <ele>104.405</ele>
      <time>2015-09-06T09:00:26Z</time>
    </trkpt>
    <trkpt lat="48.432082" lon="2.646764">
      <ele>103.174</ele>
      <time>2015-09-06T09:00:29Z</time>
    </trkpt>
    <trkpt lat="48.432162" lon="2.646632">
      <ele>102.084</ele>
      <time>2015-09-06T09:00:32Z</time>
    </trkpt>
    <trkpt lat="48.432207" lon="2.646466">
      <ele>101.274</ele>
      <time>2015-09-06T09:00:35Z</time>
    </trkpt>
    <trkpt lat="48.432245" lon="2.64633">
      <ele>101.013</ele>
      <time>2015-09-06T09:00:38Z</time>
    </trkpt>
    <trkpt lat="48.43229" lon="2.646154">
      <ele>100.945</ele>
      <time>2015-09-06T09:00:41Z</time>
    </trkpt>
    <trkpt lat="48.432317" lon="2.645991">
      <ele>100.635</ele>
      <time>2015-09-06T09:00:44Z</time>
    </trkpt>
    <trkpt lat="48.432338" lon="2.645825">
      <ele>100.333</ele>
      <time>2015-09-06T09:00:47Z</time>
    </trkpt>
    <trkpt lat="48.432342" lon="2.645674">
      <ele>100.275</ele>
      <time>2015-09-06T09:00:50Z</time>
    </trkpt>
    <trkpt lat="48.432376" lon="2.645503">
      <ele>100.164</ele>
      <time>2015-09-06T09:00:54Z</time>
    </trkpt>
    <trkpt lat="48.432416" lon="2.645376">
      <ele>100.502</ele>
      <time>2015-09-06T09:00:56Z</time>
    </trkpt>
    <trkpt lat="48.432484" lon="2.645269">
      <ele>100.292</ele>
      <time>2015-09-06T09:00:59Z</time>
    </trkpt>
    <trkpt lat="48.432575" lon="2.64521">
      <ele>99.678</ele>
      <time>2015-09-06T09:01:01Z</time>
    </trkpt>
    <trkpt lat="48.432695" lon="2.645122">
      <ele>99.016</ele>
      <time>2015-09-06T09:01:04Z</time>
    </trkpt>
    <trkpt lat="48.432793" lon="2.645018">
      <ele>98.761</ele>
      <time>2015-09-06T09:01:07Z</time>
    </trkpt>
    <trkpt lat="48.432878" lon="2.644934">
      <ele>98.668</ele>
      <time>2015-09-06T09:01:10Z</time>
    </trkpt>
    <trkpt lat="48.433056" lon="2.644792">
      <ele>97.749</ele>
      <time>2015-09-06T09:01:16Z</time>
    </trkpt>
    <trkpt lat="48.433153" lon="2.644741">
      <ele>97.932</ele>
      <time>2015-09-06T09:01:18Z</time>
    </trkpt>
    <trkpt lat="48.433237" lon="2.64469">
      <ele>98.156</ele>
      <time>2015-09-06T09:01:20Z</time>
    </trkpt>
    <trkpt lat="48.433368" lon="2.644598">
      <ele>98.572</ele>
      <time>2015-09-06T09:01:22Z</time>
    </trkpt>
    <trkpt lat="48.433451" lon="2.644519">
      <ele>99.155</ele>
      <time>2015-09-06T09:01:24Z</time>
    </trkpt>
    <trkpt lat="48.433531" lon="2.644396">
      <ele>99.762</ele>
      <time>2015-09-06T09:01:27Z</time>
    </trkpt>
    <trkpt lat="48.433604" lon="2.644273">
      <ele>99.99</ele>
      <time>2015-09-06T09:01:30Z</time>
    </trkpt>
    <trkpt lat="48.433669" lon="2.644123">
      <ele>100.0</ele>
      <time>2015-09-06T09:01:33Z</time>
    </trkpt>
    <trkpt lat="48.433706" lon="2.643976">
      <ele>100.0</ele>
      <time>2015-09-06T09:01:36Z</time>
    </trkpt>
    <trkpt lat="48.433726" lon="2.643842">
      <ele>100.0</ele>
      <time>2015-09-06T09:01:39Z</time>
    </trkpt>
    <trkpt lat="48.433758" lon="2.643694">
      <ele>100.0</ele>
      <time>2015-09-06T09:01:42Z</time>
    </trkpt>
    <trkpt lat="48.433801" lon="2.643513">
      <ele>100.0</ele>
      <time>2015-09-06T09:01:45Z</time>
    </trkpt>
    <trkpt lat="48.433828" lon="2.643368">
      <ele>100.0</ele>
      <time>2015-09-06T09:01:47Z</time>
    </trkpt>
    <trkpt lat="48.433893" lon="2.643216">
      <ele>99.592</ele>
      <time>2015-09-06T09:01:50Z</time>
    </trkpt>
    <trkpt lat="48.43395" lon="2.643082">
      <ele>99.315</ele>
      <time>2015-09-06T09:01:54Z</time>
    </trkpt>
    <trkpt lat="48.433995" lon="2.642925">
      <ele>98.912</ele>
      <time>2015-09-06T09:01:58Z</time>
    </trkpt>
    <trkpt lat="48.434066" lon="2.642821">
      <ele>98.793</ele>
      <time>2015-09-06T09:02:02Z</time>
    </trkpt>
    <trkpt lat="48.43412" lon="2.64268">
      <ele>98.187</ele>
      <time>2015-09-06T09:02:07Z</time>
    </trkpt>
    <trkpt lat="48.434164" lon="2.642521">
      <ele>97.15</ele>
      <time>2015-09-06T09:02:10Z</time>
    </trkpt>
    <trkpt lat="48.434237" lon="2.642397">
      <ele>96.882</ele>
      <time>2015-09-06T09:02:13Z</time>
    </trkpt>
    <trkpt lat="48.434261" lon="2.642113">
      <ele>96.34</ele>
      <time>2015-09-06T09:02:20Z</time>
    </trkpt>
    <trkpt lat="48.434259" lon="2.641967">
      <ele>96.332</ele>
      <time>2015-09-06T09:02:23Z</time>
    </trkpt>
    <trkpt lat="48.434244" lon="2.6418">
      <ele>97.174</ele>
      <time>2015-09-06T09:02:27Z</time>
    </trkpt>
    <trkpt lat="48.43426" lon="2.641643">
      <ele>98.142</ele>
      <time>2015-09-06T09:02:31Z</time>
    </trkpt>
    <trkpt lat="48.43428" lon="2.641497">
      <ele>98.972</ele>
      <time>2015-09-06T09:02:37Z</time>
    </trkpt>
    <trkpt lat="48.434354" lon="2.6414">
      <ele>99.273</ele>
      <time>2015-09-06T09:02:45Z</time>
    </trkpt>
    <trkpt lat="48.434442" lon="2.641336">
      <ele>99.388</ele>
      <time>2015-09-06T09:02:54Z</time>
    </trkpt>
    <trkpt lat="48.434519" lon="2.641263">
      <ele>100.175</ele>
      <time>2015-09-06T09:03:02Z</time>
    </trkpt>
    <trkpt lat="48.434607" lon="2.641196">
      <ele>100.974</ele>
      <time>2015-09-06T09:03:09Z</time>
    </trkpt>
    <trkpt lat="48.434664" lon="2.641085">
      <ele>101.904</ele>
      <time>2015-09-06T09:03:17Z</time>
    </trkpt>
    <trkpt lat="48.434712" lon="2.640802">
      <ele>103.221</ele>
      <time>2015-09-06T09:03:33Z</time>
    </trkpt>
    <trkpt lat="48.434733" lon="2.640668">
      <ele>104.307</ele>
      <time>2015-09-06T09:03:42Z</time>
    </trkpt>
    <trkpt lat="48.434763" lon="2.640538">
      <ele>105.576</ele>
      <time>2015-09-06T09:03:59Z</time>
    </trkpt>
    <trkpt lat="48.434779" lon="2.640394">
      <ele>106.895</ele>
      <time>2015-09-06T09:04:14Z</time>
    </trkpt>
    <trkpt lat="48.434758" lon="2.640249">
      <ele>107.916</ele>
      <time>2015-09-06T09:04:30Z</time>
    </trkpt>
    <trkpt lat="48.43476" lon="2.640019">
      <ele>111.144</ele>
      <time>2015-09-06T09:04:52Z</time>
    </trkpt>
    <trkpt lat="48.434731" lon="2.639887">
      <ele>112.722</ele>
      <time>2015-09-06T09:05:06Z</time>
    </trkpt>
    <trkpt lat="48.434725" lon="2.639749">
      <ele>114.644</ele>
      <time>2015-09-06T09:05:44Z</time>
    </trkpt>
    <trkpt lat="48.434758" lon="2.639479">
      <ele>118.889</ele>
      <time>2015-09-06T09:06:23Z</time>
    </trkpt>
    <trkpt lat="48.434773" lon="2.639329">
      <ele>120.719</ele>
      <time>2015-09-06T09:06:31Z</time>
    </trkpt>
    <trkpt lat="48.434764" lon="2.639185">
      <ele>122.113</ele>
      <time>2015-09-06T09:06:38Z</time>
    </trkpt>
    <trkpt lat="48.43478" lon="2.639046">
      <ele>122.506</ele>
      <time>2015-09-06T09:06:47Z</time>
    </trkpt>
    <trkpt lat="48.434741" lon="2.638772">
      <ele>122.624</ele>
      <time>2015-09-06T09:07:03Z</time>
    </trkpt>
    <trkpt lat="48.434717" lon="2.638635">
      <ele>122.914</ele>
      <time>2015-09-06T09:07:10Z</time>
    </trkpt>
    <trkpt lat="48.434737" lon="2.638487">
      <ele>123.606</ele>
      <time>2015-09-06T09:07:20Z</time>
    </trkpt>
    <trkpt lat="48.434726" lon="2.638341">
      <ele>124.013</ele>
      <time>2015-09-06T09:07:27Z</time>
    </trkpt>
    <trkpt lat="48.434725" lon="2.63819">
      <ele>124.546</ele>
      <time>2015-09-06T09:07:33Z</time>
    </trkpt>
    <trkpt lat="48.434715" lon="2.638053">
      <ele>125.018</ele>
      <time>2015-09-06T09:07:40Z</time>
    </trkpt>
    <trkpt lat="48.434712" lon="2.63791">
      <ele>126.029</ele>
      <time>2015-09-06T09:07:47Z</time>
    </trkpt>
    <trkpt lat="48.434641" lon="2.637684">
      <ele>127.045</ele>
      <time>2015-09-06T09:08:00Z</time>
    </trkpt>
    <trkpt lat="48.434652" lon="2.637536">
      <ele>127.618</ele>
      <time>2015-09-06T09:08:09Z</time>
    </trkpt>
    <trkpt lat="48.434607" lon="2.637406">
      <ele>127.726</ele>
      <time>2015-09-06T09:08:15Z</time>
    </trkpt>
    <trkpt lat="48.434618" lon="2.637265">
      <ele>127.942</ele>
      <time>2015-09-06T09:08:26Z</time>
    </trkpt>
    <trkpt lat="48.434655" lon="2.637138">
      <ele>128.303</ele>
      <time>2015-09-06T09:08:35Z</time>
    </trkpt>
    <trkpt lat="48.434577" lon="2.637067">
      <ele>128.559</ele>
      <time>2015-09-06T09:08:59Z</time>
    </trkpt>
    <trkpt lat="48.434456" lon="2.636855">
      <ele>129.0</ele>
      <time>2015-09-06T09:09:21Z</time>
    </trkpt>
    <trkpt lat="48.434348" lon="2.636878">
      <ele>129.083</ele>
      <time>2015-09-06T09:09:56Z</time>
    </trkpt>
    <trkpt lat="48.434258" lon="2.636832">
      <ele>129.272</ele>
      <time>2015-09-06T09:10:26Z</time>
    </trkpt>
    <trkpt lat="48.434101" lon="2.636669">
      <ele>129.99</ele>
      <time>2015-09-06T09:10:56Z</time>
    </trkpt>
    <trkpt lat="48.434007" lon="2.636695">
      <ele>129.839</ele>
      <time>2015-09-06T09:11:39Z</time>
    </trkpt>
    <trkpt lat="48.433828" lon="2.636607">
      <ele>129.441</ele>
      <time>2015-09-06T09:12:34Z</time>
    </trkpt>
    <trkpt lat="48.433745" lon="2.636544">
      <ele>128.98</ele>
      <time>2015-09-06T09:12:46Z</time>
    </trkpt>
    <trkpt lat="48.433566" lon="2.636499">
      <ele>128.052</ele>
      <time>2015-09-06T09:13:10Z</time>
    </trkpt>
    <trkpt lat="48.433477" lon="2.636539">
      <ele>126.75</ele>
      <time>2015-09-06T09:13:46Z</time>
    </trkpt>
    <trkpt lat="48.433363" lon="2.636324">
      <ele>126.271</ele>
      <time>2015-09-06T09:14:20Z</time>
    </trkpt>
    <trkpt lat="48.433272" lon="2.636308">
      <ele>125.402</ele>
      <time>2015-09-06T09:14:37Z</time>
    </trkpt>
    <trkpt lat="48.433203" lon="2.636217">
      <ele>124.883</ele>
      <time>2015-09-06T09:15:15Z</time>
    </trkpt>
    <trkpt lat="48.433083" lon="2.636013">
      <ele>124.093</ele>
      <time>2015-09-06T09:15:44Z</time>
    </trkpt>
    <trkpt lat="48.432994" lon="2.635976">
      <ele>124.216</ele>
      <time>2015-09-06T09:15:53Z</time>
    </trkpt>
    <trkpt lat="48.432925" lon="2.63607">
      <ele>124.139</ele>
      <time>2015-09-06T09:16:09Z</time>
    </trkpt>
    <trkpt lat="48.432846" lon="2.636">
      <ele>124.604</ele>
      <time>2015-09-06T09:16:21Z</time>
    </trkpt>
    <trkpt lat="48.432853" lon="2.635722">
      <ele>124.949</ele>
      <time>2015-09-06T09:17:31Z</time>
    </trkpt>
    <trkpt lat="48.433019" lon="2.635399">
      <ele>121.342</ele>
      <time>2015-09-06T09:19:19Z</time>
    </trkpt>
    <trkpt lat="48.433112" lon="2.635439">
      <ele>120.669</ele>
      <time>2015-09-06T09:20:02Z</time>
    </trkpt>
    <trkpt lat="48.43328" lon="2.63531">
      <ele>117.902</ele>
      <time>2015-09-06T09:20:40Z</time>
    </trkpt>
    <trkpt lat="48.433334" lon="2.63519">
      <ele>116.679</ele>
      <time>2015-09-06T09:20:46Z</time>
    </trkpt>
    <trkpt lat="48.433372" lon="2.635024">
      <ele>115.808</ele>
      <time>2015-09-06T09:21:01Z</time>
    </trkpt>
    <trkpt lat="48.433405" lon="2.63488">
      <ele>115.052</ele>
      <time>2015-09-06T09:21:15Z</time>
    </trkpt>
    <trkpt lat="48.433577" lon="2.634646">
      <ele>112.971</ele>
      <time>2015-09-06T09:21:23Z</time>
    </trkpt>
    <trkpt lat="48.433659" lon="2.634538">
      <ele>111.878</ele>
      <time>2015-09-06T09:21:26Z</time>
    </trkpt>
    <trkpt lat="48.433717" lon="2.634406">
      <ele>110.751</ele>
      <time>2015-09-06T09:21:29Z</time>
    </trkpt>
    <trkpt lat="48.433801" lon="2.634266">
      <ele>109.071</ele>
      <time>2015-09-06T09:21:32Z</time>
    </trkpt>
    <trkpt lat="48.433887" lon="2.634123">
      <ele>107.19</ele>
      <time>2015-09-06T09:21:35Z</time>
    </trkpt>
    <trkpt lat="48.43398" lon="2.633989">
      <ele>107.22</ele>
      <time>2015-09-06T09:21:38Z</time>
    </trkpt>
    <trkpt lat="48.434065" lon="2.63391">
      <ele>106.752</ele>
      <time>2015-09-06T09:21:41Z</time>
    </trkpt>
    <trkpt lat="48.434158" lon="2.633943">
      <ele>106.245</ele>
      <time>2015-09-06T09:21:48Z</time>
    </trkpt>
    <trkpt lat="48.434276" lon="2.633875">
      <ele>106.374</ele>
      <time>2015-09-06T09:21:53Z</time>
    </trkpt>
    <trkpt lat="48.434356" lon="2.633769">
      <ele>106.387</ele>
      <time>2015-09-06T09:21:57Z</time>
    </trkpt>
    <trkpt lat="48.434411" lon="2.633658">
      <ele>106.148</ele>
      <time>2015-09-06T09:22:00Z</time>
    </trkpt>
    <trkpt lat="48.434421" lon="2.633487">
      <ele>105.182</ele>
      <time>2015-09-06T09:22:04Z</time>
    </trkpt>
    <trkpt lat="48.434485" lon="2.633361">
      <ele>104.36</ele>
      <time>2015-09-06T09:22:08Z</time>
    </trkpt>
    <trkpt lat="48.434564" lon="2.633234">
      <ele>104.123</ele>
      <time>2015-09-06T09:22:12Z</time>
    </trkpt>
    <trkpt lat="48.434628" lon="2.633084">
      <ele>103.475</ele>
      <time>2015-09-06T09:22:15Z</time>
    </trkpt>
    <trkpt lat="48.4347" lon="2.632932">
      <ele>103.08</ele>
      <time>2015-09-06T09:22:18Z</time>
    </trkpt>
    <trkpt lat="48.434784" lon="2.632659">
      <ele>102.683</ele>
      <time>2015-09-06T09:22:24Z</time>
    </trkpt>
    <trkpt lat="48.434836" lon="2.632532">
      <ele>102.228</ele>
      <time>2015-09-06T09:22:28Z</time>
    </trkpt>
    <trkpt lat="48.434733" lon="2.632499">
      <ele>102.926</ele>
      <time>2015-09-06T09:22:35Z</time>
    </trkpt>
    <trkpt lat="48.434633" lon="2.6325">
      <ele>103.642</ele>
      <time>2015-09-06T09:22:40Z</time>
    </trkpt>
    <trkpt lat="48.434541" lon="2.632473">
      <ele>104.402</ele>
      <time>2015-09-06T09:22:44Z</time>
    </trkpt>
    <trkpt lat="48.434447" lon="2.632392">
      <ele>105.37</ele>
      <time>2015-09-06T09:22:49Z</time>
    </trkpt>
    <trkpt lat="48.434361" lon="2.632326">
      <ele>106.339</ele>
      <time>2015-09-06T09:22:55Z</time>
    </trkpt>
    <trkpt lat="48.434278" lon="2.63225">
      <ele>107.158</ele>
      <time>2015-09-06T09:23:02Z</time>
    </trkpt>
    <trkpt lat="48.434186" lon="2.632175">
      <ele>108.031</ele>
      <time>2015-09-06T09:23:08Z</time>
    </trkpt>
    <trkpt lat="48.434092" lon="2.632109">
      <ele>108.676</ele>
      <time>2015-09-06T09:23:14Z</time>
    </trkpt>
    <trkpt lat="48.434" lon="2.632034">
      <ele>109.278</ele>
      <time>2015-09-06T09:23:21Z</time>
    </trkpt>
    <trkpt lat="48.433817" lon="2.631997">
      <ele>110.168</ele>
      <time>2015-09-06T09:23:33Z</time>
    </trkpt>
    <trkpt lat="48.433704" lon="2.632014">
      <ele>110.749</ele>
      <time>2015-09-06T09:23:39Z</time>
    </trkpt>
    <trkpt lat="48.433609" lon="2.631998">
      <ele>111.208</ele>
      <time>2015-09-06T09:23:44Z</time>
    </trkpt>
    <trkpt lat="48.433519" lon="2.631939">
      <ele>111.683</ele>
      <time>2015-09-06T09:23:49Z</time>
    </trkpt>
    <trkpt lat="48.433435" lon="2.63187">
      <ele>112.536</ele>
      <time>2015-09-06T09:23:55Z</time>
    </trkpt>
    <trkpt lat="48.433362" lon="2.631772">
      <ele>113.414</ele>
      <time>2015-09-06T09:24:02Z</time>
    </trkpt>
    <trkpt lat="48.433316" lon="2.63165">
      <ele>114.119</ele>
      <time>2015-09-06T09:24:08Z</time>
    </trkpt>
    <trkpt lat="48.43327" lon="2.631508">
      <ele>114.669</ele>
      <time>2015-09-06T09:24:17Z</time>
    </trkpt>
    <trkpt lat="48.433188" lon="2.631448">
      <ele>114.899</ele>
      <time>2015-09-06T09:24:23Z</time>
    </trkpt>
    <trkpt lat="48.433007" lon="2.631352">
      <ele>114.802</ele>
      <time>2015-09-06T09:24:37Z</time>
    </trkpt>
    <trkpt lat="48.432919" lon="2.631319">
      <ele>114.385</ele>
      <time>2015-09-06T09:24:43Z</time>
    </trkpt>
    <trkpt lat="48.432818" lon="2.631281">
      <ele>113.813</ele>
      <time>2015-09-06T09:24:48Z</time>
    </trkpt>
    <trkpt lat="48.43272" lon="2.631303">
      <ele>113.834</ele>
      <time>2015-09-06T09:24:54Z</time>
    </trkpt>
    <trkpt lat="48.432632" lon="2.631344">
      <ele>114.278</ele>
      <time>2015-09-06T09:25:00Z</time>
    </trkpt>
    <trkpt lat="48.432541" lon="2.631368">
      <ele>114.713</ele>
      <time>2015-09-06T09:25:05Z</time>
    </trkpt>
    <trkpt lat="48.432455" lon="2.63141">
      <ele>115.702</ele>
      <time>2015-09-06T09:27:22Z</time>
    </trkpt>
    <trkpt lat="48.432229" lon="2.631498">
      <ele>118.722</ele>
      <time>2015-09-06T09:27:31Z</time>
    </trkpt>
    <trkpt lat="48.432137" lon="2.631529">
      <ele>119.009</ele>
      <time>2015-09-06T09:27:34Z</time>
    </trkpt>
    <trkpt lat="48.432047" lon="2.631608">
      <ele>119.578</ele>
      <time>2015-09-06T09:27:38Z</time>
    </trkpt>
    <trkpt lat="48.431945" lon="2.631606">
      <ele>119.563</ele>
      <time>2015-09-06T09:27:46Z</time>
    </trkpt>
    <trkpt lat="48.431981" lon="2.631471">
      <ele>118.591</ele>
      <time>2015-09-06T09:27:53Z</time>
    </trkpt>
    <trkpt lat="48.432057" lon="2.63138">
      <ele>117.974</ele>
      <time>2015-09-06T09:27:58Z</time>
    </trkpt>
    <trkpt lat="48.432143" lon="2.631268">
      <ele>117.378</ele>
      <time>2015-09-06T09:28:03Z</time>
    </trkpt>
    <trkpt lat="48.432253" lon="2.631107">
      <ele>115.654</ele>
      <time>2015-09-06T09:28:07Z</time>
    </trkpt>
    <trkpt lat="48.43234" lon="2.630944">
      <ele>114.381</ele>
      <time>2015-09-06T09:28:10Z</time>
    </trkpt>
    <trkpt lat="48.432398" lon="2.630827">
      <ele>113.712</ele>
      <time>2015-09-06T09:28:12Z</time>
    </trkpt>
    <trkpt lat="48.432449" lon="2.630658">
      <ele>112.736</ele>
      <time>2015-09-06T09:28:15Z</time>
    </trkpt>
    <trkpt lat="48.432502" lon="2.630485">
      <ele>111.744</ele>
      <time>2015-09-06T09:28:18Z</time>
    </trkpt>
    <trkpt lat="48.432523" lon="2.630323">
      <ele>111.093</ele>
      <time>2015-09-06T09:28:20Z</time>
    </trkpt>
    <trkpt lat="48.432561" lon="2.630146">
      <ele>110.306</ele>
      <time>2015-09-06T09:28:23Z</time>
    </trkpt>
    <trkpt lat="48.432627" lon="2.629823">
      <ele>108.614</ele>
      <time>2015-09-06T09:28:29Z</time>
    </trkpt>
    <trkpt lat="48.432676" lon="2.629645">
      <ele>107.733</ele>
      <time>2015-09-06T09:28:32Z</time>
    </trkpt>
    <trkpt lat="48.432738" lon="2.629495">
      <ele>107.286</ele>
      <time>2015-09-06T09:28:35Z</time>
    </trkpt>
    <trkpt lat="48.432789" lon="2.629339">
      <ele>106.985</ele>
      <time>2015-09-06T09:28:38Z</time>
    </trkpt>
    <trkpt lat="48.432798" lon="2.629185">
      <ele>106.932</ele>
      <time>2015-09-06T09:28:41Z</time>
    </trkpt>
    <trkpt lat="48.432808" lon="2.629035">
      <ele>107.314</ele>
      <time>2015-09-06T09:28:44Z</time>
    </trkpt>
    <trkpt lat="48.432824" lon="2.628888">
      <ele>107.67</ele>
      <time>2015-09-06T09:28:47Z</time>
    </trkpt>
    <trkpt lat="48.432858" lon="2.628745">
      <ele>107.791</ele>
      <time>2015-09-06T09:28:50Z</time>
    </trkpt>
    <trkpt lat="48.432784" lon="2.628632">
      <ele>108.859</ele>
      <time>2015-09-06T09:28:55Z</time>
    </trkpt>
    <trkpt lat="48.432821" lon="2.6285">
      <ele>108.871</ele>
      <time>2015-09-06T09:29:00Z</time>
    </trkpt>
    <trkpt lat="48.432872" lon="2.628388">
      <ele>108.513</ele>
      <time>2015-09-06T09:29:04Z</time>
    </trkpt>
    <trkpt lat="48.432966" lon="2.628224">
      <ele>107.543</ele>
      <time>2015-09-06T09:29:08Z</time>
    </trkpt>
    <trkpt lat="48.433046" lon="2.628152">
      <ele>106.183</ele>
      <time>2015-09-06T09:29:12Z</time>
    </trkpt>
    <trkpt lat="48.433136" lon="2.628159">
      <ele>105.421</ele>
      <time>2015-09-06T09:29:19Z</time>
    </trkpt>
    <trkpt lat="48.43323" lon="2.628094">
      <ele>104.744</ele>
      <time>2015-09-06T09:29:23Z</time>
    </trkpt>
    <trkpt lat="48.43342" lon="2.627984">
      <ele>102.752</ele>
      <time>2015-09-06T09:29:40Z</time>
    </trkpt>
    <trkpt lat="48.433524" lon="2.627871">
      <ele>101.254</ele>
      <time>2015-09-06T09:29:46Z</time>
    </trkpt>
    <trkpt lat="48.433603" lon="2.627781">
      <ele>100.117</ele>
      <time>2015-09-06T09:30:07Z</time>
    </trkpt>
    <trkpt lat="48.433588" lon="2.627637">
      <ele>100.291</ele>
      <time>2015-09-06T09:30:15Z</time>
    </trkpt>
    <trkpt lat="48.433621" lon="2.627487">
      <ele>99.848</ele>
      <time>2015-09-06T09:30:20Z</time>
    </trkpt>
    <trkpt lat="48.433567" lon="2.627355">
      <ele>100.037</ele>
      <time>2015-09-06T09:30:27Z</time>
    </trkpt>
    <trkpt lat="48.433438" lon="2.627152">
      <ele>101.398</ele>
      <time>2015-09-06T09:30:40Z</time>
    </trkpt>
    <trkpt lat="48.433396" lon="2.627027">
      <ele>101.939</ele>
      <time>2015-09-06T09:30:47Z</time>
    </trkpt>
    <trkpt lat="48.433463" lon="2.627141">
      <ele>100.996</ele>
      <time>2015-09-06T09:32:02Z</time>
    </trkpt>
    <trkpt lat="48.433564" lon="2.627379">
      <ele>100.147</ele>
      <time>2015-09-06T09:32:14Z</time>
    </trkpt>
    <trkpt lat="48.433604" lon="2.627512">
      <ele>100.078</ele>
      <time>2015-09-06T09:32:17Z</time>
    </trkpt>
    <trkpt lat="48.433607" lon="2.627664">
      <ele>100.053</ele>
      <time>2015-09-06T09:32:21Z</time>
    </trkpt>
    <trkpt lat="48.433583" lon="2.627802">
      <ele>100.405</ele>
      <time>2015-09-06T09:32:27Z</time>
    </trkpt>
    <trkpt lat="48.433488" lon="2.627841">
      <ele>101.773</ele>
      <time>2015-09-06T09:32:34Z</time>
    </trkpt>
    <trkpt lat="48.433377" lon="2.627847">
      <ele>103.371</ele>
      <time>2015-09-06T09:32:40Z</time>
    </trkpt>
    <trkpt lat="48.433318" lon="2.627961">
      <ele>104.129</ele>
      <time>2015-09-06T09:32:49Z</time>
    </trkpt>
    <trkpt lat="48.433252" lon="2.628066">
      <ele>104.586</ele>
      <time>2015-09-06T09:32:58Z</time>
    </trkpt>
    <trkpt lat="48.433172" lon="2.628134">
      <ele>105.162</ele>
      <time>2015-09-06T09:33:07Z</time>
    </trkpt>
    <trkpt lat="48.432987" lon="2.628212">
      <ele>107.203</ele>
      <time>2015-09-06T09:33:23Z</time>
    </trkpt>
    <trkpt lat="48.432907" lon="2.628291">
      <ele>108.302</ele>
      <time>2015-09-06T09:33:30Z</time>
    </trkpt>
    <trkpt lat="48.432832" lon="2.628371">
      <ele>109.11</ele>
      <time>2015-09-06T09:33:36Z</time>
    </trkpt>
    <trkpt lat="48.432759" lon="2.628474">
      <ele>109.899</ele>
      <time>2015-09-06T09:33:46Z</time>
    </trkpt>
    <trkpt lat="48.432769" lon="2.628618">
      <ele>109.163</ele>
      <time>2015-09-06T09:33:52Z</time>
    </trkpt>
    <trkpt lat="48.432822" lon="2.628737">
      <ele>108.141</ele>
      <time>2015-09-06T09:33:58Z</time>
    </trkpt>
    <trkpt lat="48.432829" lon="2.628884">
      <ele>107.646</ele>
      <time>2015-09-06T09:34:04Z</time>
    </trkpt>
    <trkpt lat="48.432799" lon="2.629033">
      <ele>107.368</ele>
      <time>2015-09-06T09:34:10Z</time>
    </trkpt>
    <trkpt lat="48.432754" lon="2.629322">
      <ele>107.209</ele>
      <time>2015-09-06T09:34:21Z</time>
    </trkpt>
    <trkpt lat="48.43271" lon="2.629476">
      <ele>107.488</ele>
      <time>2015-09-06T09:34:26Z</time>
    </trkpt>
    <trkpt lat="48.432672" lon="2.629612">
      <ele>107.762</ele>
      <time>2015-09-06T09:34:32Z</time>
    </trkpt>
    <trkpt lat="48.432629" lon="2.629738">
      <ele>108.154</ele>
      <time>2015-09-06T09:34:36Z</time>
    </trkpt>
    <trkpt lat="48.43262" lon="2.629896">
      <ele>109.032</ele>
      <time>2015-09-06T09:34:41Z</time>
    </trkpt>
    <trkpt lat="48.432595" lon="2.630034">
      <ele>109.78</ele>
      <time>2015-09-06T09:34:46Z</time>
    </trkpt>
    <trkpt lat="48.432561" lon="2.630183">
      <ele>110.439</ele>
      <time>2015-09-06T09:34:51Z</time>
    </trkpt>
    <trkpt lat="48.43253" lon="2.630316">
      <ele>111.044</ele>
      <time>2015-09-06T09:34:56Z</time>
    </trkpt>
    <trkpt lat="48.432506" lon="2.630466">
      <ele>111.671</ele>
      <time>2015-09-06T09:35:04Z</time>
    </trkpt>
    <trkpt lat="48.432463" lon="2.630606">
      <ele>112.448</ele>
      <time>2015-09-06T09:35:09Z</time>
    </trkpt>
    <trkpt lat="48.43241" lon="2.630723">
      <ele>113.251</ele>
      <time>2015-09-06T09:35:14Z</time>
    </trkpt>
    <trkpt lat="48.432319" lon="2.630981">
      <ele>114.65</ele>
      <time>2015-09-06T09:35:24Z</time>
    </trkpt>
    <trkpt lat="48.432269" lon="2.631101">
      <ele>115.465</ele>
      <time>2015-09-06T09:35:30Z</time>
    </trkpt>
    <trkpt lat="48.43221" lon="2.631208">
      <ele>116.755</ele>
      <time>2015-09-06T09:35:36Z</time>
    </trkpt>
    <trkpt lat="48.43214" lon="2.631297">
      <ele>117.534</ele>
      <time>2015-09-06T09:35:43Z</time>
    </trkpt>
    <trkpt lat="48.432058" lon="2.631375">
      <ele>117.959</ele>
      <time>2015-09-06T09:35:51Z</time>
    </trkpt>
    <trkpt lat="48.431978" lon="2.631449">
      <ele>118.433</ele>
      <time>2015-09-06T09:36:00Z</time>
    </trkpt>
    <trkpt lat="48.431957" lon="2.631582">
      <ele>119.39</ele>
      <time>2015-09-06T09:36:07Z</time>
    </trkpt>
    <trkpt lat="48.431928" lon="2.631712">
      <ele>120.821</ele>
      <time>2015-09-06T09:36:14Z</time>
    </trkpt>
    <trkpt lat="48.431835" lon="2.63195">
      <ele>124.82</ele>
      <time>2015-09-06T09:36:28Z</time>
    </trkpt>
    <trkpt lat="48.431774" lon="2.632057">
      <ele>125.789</ele>
      <time>2015-09-06T09:36:37Z</time>
    </trkpt>
    <trkpt lat="48.43176" lon="2.632199">
      <ele>126.552</ele>
      <time>2015-09-06T09:37:39Z</time>
    </trkpt>
    <trkpt lat="48.431793" lon="2.632465">
      <ele>128.691</ele>
      <time>2015-09-06T09:38:38Z</time>
    </trkpt>
    <trkpt lat="48.431761" lon="2.632601">
      <ele>130.091</ele>
      <time>2015-09-06T09:38:54Z</time>
    </trkpt>
    <trkpt lat="48.431685" lon="2.632863">
      <ele>132.88</ele>
      <time>2015-09-06T09:39:36Z</time>
    </trkpt>
    <trkpt lat="48.431653" lon="2.633">
      <ele>134.459</ele>
      <time>2015-09-06T09:39:59Z</time>
    </trkpt>
    <trkpt lat="48.431602" lon="2.633263">
      <ele>136.153</ele>
      <time>2015-09-06T09:40:24Z</time>
    </trkpt>
    <trkpt lat="48.431568" lon="2.633397">
      <ele>136.858</ele>
      <time>2015-09-06T09:40:43Z</time>
    </trkpt>
    <trkpt lat="48.431572" lon="2.633542">
      <ele>137.177</ele>
      <time>2015-09-06T09:40:58Z</time>
    </trkpt>
    <trkpt lat="48.431568" lon="2.633678">
      <ele>137.2</ele>
      <time>2015-09-06T09:41:28Z</time>
    </trkpt>
    <trkpt lat="48.431632" lon="2.634123">
      <ele>135.407</ele>
      <time>2015-09-06T09:42:53Z</time>
    </trkpt>
    <trkpt lat="48.431563" lon="2.634231">
      <ele>135.66</ele>
      <time>2015-09-06T09:42:57Z</time>
    </trkpt>
    <trkpt lat="48.431506" lon="2.634338">
      <ele>135.8</ele>
      <time>2015-09-06T09:43:01Z</time>
    </trkpt>
    <trkpt lat="48.431416" lon="2.634437">
      <ele>135.927</ele>
      <time>2015-09-06T09:43:05Z</time>
    </trkpt>
    <trkpt lat="48.431367" lon="2.634577">
      <ele>136.56</ele>
      <time>2015-09-06T09:43:09Z</time>
    </trkpt>
    <trkpt lat="48.431373" lon="2.634723">
      <ele>137.0</ele>
      <time>2015-09-06T09:43:12Z</time>
    </trkpt>
    <trkpt lat="48.431409" lon="2.634872">
      <ele>136.783</ele>
      <time>2015-09-06T09:43:15Z</time>
    </trkpt>
    <trkpt lat="48.431444" lon="2.635019">
      <ele>136.364</ele>
      <time>2015-09-06T09:43:18Z</time>
    </trkpt>
    <trkpt lat="48.431436" lon="2.63519">
      <ele>136.039</ele>
      <time>2015-09-06T09:43:22Z</time>
    </trkpt>
    <trkpt lat="48.431427" lon="2.635359">
      <ele>135.823</ele>
      <time>2015-09-06T09:43:26Z</time>
    </trkpt>
    <trkpt lat="48.431381" lon="2.635524">
      <ele>136.028</ele>
      <time>2015-09-06T09:43:30Z</time>
    </trkpt>
    <trkpt lat="48.431365" lon="2.635673">
      <ele>135.7</ele>
      <time>2015-09-06T09:43:34Z</time>
    </trkpt>
    <trkpt lat="48.431294" lon="2.635769">
      <ele>135.836</ele>
      <time>2015-09-06T09:43:40Z</time>
    </trkpt>
    <trkpt lat="48.431208" lon="2.635889">
      <ele>136.102</ele>
      <time>2015-09-06T09:43:45Z</time>
    </trkpt>
    <trkpt lat="48.431043" lon="2.63609">
      <ele>136.321</ele>
      <time>2015-09-06T09:43:54Z</time>
    </trkpt>
    <trkpt lat="48.430978" lon="2.636199">
      <ele>136.163</ele>
      <time>2015-09-06T09:44:02Z</time>
    </trkpt>
    <trkpt lat="48.431008" lon="2.636341">
      <ele>135.544</ele>
      <time>2015-09-06T09:44:08Z</time>
    </trkpt>
    <trkpt lat="48.430975" lon="2.636478">
      <ele>135.006</ele>
      <time>2015-09-06T09:44:15Z</time>
    </trkpt>
    <trkpt lat="48.430946" lon="2.636614">
      <ele>134.455</ele>
      <time>2015-09-06T09:44:20Z</time>
    </trkpt>
    <trkpt lat="48.430943" lon="2.636762">
      <ele>133.867</ele>
      <time>2015-09-06T09:44:25Z</time>
    </trkpt>
    <trkpt lat="48.430932" lon="2.636902">
      <ele>133.442</ele>
      <time>2015-09-06T09:44:29Z</time>
    </trkpt>
    <trkpt lat="48.43091" lon="2.637058">
      <ele>133.335</ele>
      <time>2015-09-06T09:44:35Z</time>
    </trkpt>
    <trkpt lat="48.430854" lon="2.63717">
      <ele>133.791</ele>
      <time>2015-09-06T09:44:40Z</time>
    </trkpt>
    <trkpt lat="48.430772" lon="2.637232">
      <ele>134.186</ele>
      <time>2015-09-06T09:44:44Z</time>
    </trkpt>
    <trkpt lat="48.430678" lon="2.637214">
      <ele>134.559</ele>
      <time>2015-09-06T09:44:49Z</time>
    </trkpt>
    <trkpt lat="48.430487" lon="2.637161">
      <ele>135.301</ele>
      <time>2015-09-06T09:44:56Z</time>
    </trkpt>
    <trkpt lat="48.430389" lon="2.637216">
      <ele>135.613</ele>
      <time>2015-09-06T09:44:59Z</time>
    </trkpt>
    <trkpt lat="48.430286" lon="2.637285">
      <ele>135.744</ele>
      <time>2015-09-06T09:45:02Z</time>
    </trkpt>
    <trkpt lat="48.430214" lon="2.637369">
      <ele>136.16</ele>
      <time>2015-09-06T09:45:05Z</time>
    </trkpt>
    <trkpt lat="48.430137" lon="2.637446">
      <ele>136.715</ele>
      <time>2015-09-06T09:45:08Z</time>
    </trkpt>
    <trkpt lat="48.430052" lon="2.637566">
      <ele>137.245</ele>
      <time>2015-09-06T09:45:12Z</time>
    </trkpt>
    <trkpt lat="48.429993" lon="2.637688">
      <ele>137.399</ele>
      <time>2015-09-06T09:45:15Z</time>
    </trkpt>
    <trkpt lat="48.42993" lon="2.637833">
      <ele>137.607</ele>
      <time>2015-09-06T09:45:18Z</time>
    </trkpt>
    <trkpt lat="48.429862" lon="2.637968">
      <ele>138.146</ele>
      <time>2015-09-06T09:45:22Z</time>
    </trkpt>
    <trkpt lat="48.429809" lon="2.638079">
      <ele>138.608</ele>
      <time>2015-09-06T09:45:26Z</time>
    </trkpt>
    <trkpt lat="48.429774" lon="2.638222">
      <ele>138.168</ele>
      <time>2015-09-06T09:45:42Z</time>
    </trkpt>
    <trkpt lat="48.429745" lon="2.638395">
      <ele>137.754</ele>
      <time>2015-09-06T09:45:46Z</time>
    </trkpt>
    <trkpt lat="48.42969" lon="2.638529">
      <ele>138.58</ele>
      <time>2015-09-06T09:45:49Z</time>
    </trkpt>
    <trkpt lat="48.429645" lon="2.638659">
      <ele>139.266</ele>
      <time>2015-09-06T09:45:52Z</time>
    </trkpt>
    <trkpt lat="48.429553" lon="2.638943">
      <ele>140.613</ele>
      <time>2015-09-06T09:45:59Z</time>
    </trkpt>
    <trkpt lat="48.429457" lon="2.638973">
      <ele>142.453</ele>
      <time>2015-09-06T09:46:02Z</time>
    </trkpt>
    <trkpt lat="48.429455" lon="2.638834">
      <ele>142.78</ele>
      <time>2015-09-06T09:46:07Z</time>
    </trkpt>
    <trkpt lat="48.429383" lon="2.638685">
      <ele>144.268</ele>
      <time>2015-09-06T09:46:10Z</time>
    </trkpt>
    <trkpt lat="48.42938" lon="2.638534">
      <ele>144.392</ele>
      <time>2015-09-06T09:46:13Z</time>
    </trkpt>
    <trkpt lat="48.429458" lon="2.638385">
      <ele>142.756</ele>
      <time>2015-09-06T09:46:15Z</time>
    </trkpt>
    <trkpt lat="48.429499" lon="2.638244">
      <ele>142.403</ele>
      <time>2015-09-06T09:46:17Z</time>
    </trkpt>
    <trkpt lat="48.429545" lon="2.638099">
      <ele>142.339</ele>
      <time>2015-09-06T09:46:19Z</time>
    </trkpt>
    <trkpt lat="48.429563" lon="2.637906">
      <ele>142.601</ele>
      <time>2015-09-06T09:46:22Z</time>
    </trkpt>
    <trkpt lat="48.429592" lon="2.637762">
      <ele>142.401</ele>
      <time>2015-09-06T09:46:24Z</time>
    </trkpt>
    <trkpt lat="48.42963" lon="2.637599">
      <ele>142.304</ele>
      <time>2015-09-06T09:46:26Z</time>
    </trkpt>
    <trkpt lat="48.429658" lon="2.637462">
      <ele>142.261</ele>
      <time>2015-09-06T09:46:28Z</time>
    </trkpt>
    <trkpt lat="48.429667" lon="2.637321">
      <ele>142.51</ele>
      <time>2015-09-06T09:46:30Z</time>
    </trkpt>
    <trkpt lat="48.429702" lon="2.637116">
      <ele>142.646</ele>
      <time>2015-09-06T09:46:33Z</time>
    </trkpt>
    <trkpt lat="48.429742" lon="2.636983">
      <ele>142.648</ele>
      <time>2015-09-06T09:46:35Z</time>
    </trkpt>
    <trkpt lat="48.429792" lon="2.636799">
      <ele>142.509</ele>
      <time>2015-09-06T09:46:38Z</time>
    </trkpt>
    <trkpt lat="48.429778" lon="2.636631">
      <ele>142.697</ele>
      <time>2015-09-06T09:46:41Z</time>
    </trkpt>
    <trkpt lat="48.429821" lon="2.636461">
      <ele>142.167</ele>
      <time>2015-09-06T09:46:43Z</time>
    </trkpt>
    <trkpt lat="48.42984" lon="2.636312">
      <ele>142.0</ele>
      <time>2015-09-06T09:46:45Z</time>
    </trkpt>
    <trkpt lat="48.429864" lon="2.63617">
      <ele>142.0</ele>
      <time>2015-09-06T09:46:47Z</time>
    </trkpt>
    <trkpt lat="48.429886" lon="2.636014">
      <ele>142.0</ele>
      <time>2015-09-06T09:46:49Z</time>
    </trkpt>
    <trkpt lat="48.429906" lon="2.635824">
      <ele>142.011</ele>
      <time>2015-09-06T09:46:52Z</time>
    </trkpt>
    <trkpt lat="48.430003" lon="2.635522">
      <ele>142.219</ele>
      <time>2015-09-06T09:46:58Z</time>
    </trkpt>
    <trkpt lat="48.430029" lon="2.635372">
      <ele>143.044</ele>
      <time>2015-09-06T09:47:01Z</time>
    </trkpt>
    <trkpt lat="48.430108" lon="2.635221">
      <ele>143.038</ele>
      <time>2015-09-06T09:47:04Z</time>
    </trkpt>
    <trkpt lat="48.430151" lon="2.635089">
      <ele>143.049</ele>
      <time>2015-09-06T09:47:06Z</time>
    </trkpt>
    <trkpt lat="48.430203" lon="2.634917">
      <ele>143.106</ele>
      <time>2015-09-06T09:47:09Z</time>
    </trkpt>
    <trkpt lat="48.430247" lon="2.634777">
      <ele>143.135</ele>
      <time>2015-09-06T09:47:11Z</time>
    </trkpt>
    <trkpt lat="48.430279" lon="2.63461">
      <ele>143.386</ele>
      <time>2015-09-06T09:47:14Z</time>
    </trkpt>
    <trkpt lat="48.430305" lon="2.634426">
      <ele>143.555</ele>
      <time>2015-09-06T09:47:17Z</time>
    </trkpt>
    <trkpt lat="48.430341" lon="2.634265">
      <ele>142.738</ele>
      <time>2015-09-06T09:47:20Z</time>
    </trkpt>
    <trkpt lat="48.43042" lon="2.634156">
      <ele>141.975</ele>
      <time>2015-09-06T09:47:22Z</time>
    </trkpt>
    <trkpt lat="48.430466" lon="2.633984">
      <ele>141.411</ele>
      <time>2015-09-06T09:47:25Z</time>
    </trkpt>
    <trkpt lat="48.430511" lon="2.633823">
      <ele>140.879</ele>
      <time>2015-09-06T09:47:28Z</time>
    </trkpt>
    <trkpt lat="48.430539" lon="2.633663">
      <ele>141.052</ele>
      <time>2015-09-06T09:47:31Z</time>
    </trkpt>
    <trkpt lat="48.43057" lon="2.633484">
      <ele>141.278</ele>
      <time>2015-09-06T09:47:34Z</time>
    </trkpt>
    <trkpt lat="48.430604" lon="2.633336">
      <ele>141.294</ele>
      <time>2015-09-06T09:47:38Z</time>
    </trkpt>
    <trkpt lat="48.430617" lon="2.633164">
      <ele>141.725</ele>
      <time>2015-09-06T09:47:42Z</time>
    </trkpt>
    <trkpt lat="48.430641" lon="2.633028">
      <ele>141.976</ele>
      <time>2015-09-06T09:47:45Z</time>
    </trkpt>
    <trkpt lat="48.430683" lon="2.632853">
      <ele>142.349</ele>
      <time>2015-09-06T09:47:48Z</time>
    </trkpt>
    <trkpt lat="48.430718" lon="2.632702">
      <ele>142.225</ele>
      <time>2015-09-06T09:47:51Z</time>
    </trkpt>
    <trkpt lat="48.430746" lon="2.632536">
      <ele>142.394</ele>
      <time>2015-09-06T09:47:54Z</time>
    </trkpt>
    <trkpt lat="48.430781" lon="2.632258">
      <ele>142.485</ele>
      <time>2015-09-06T09:47:58Z</time>
    </trkpt>
    <trkpt lat="48.430823" lon="2.632134">
      <ele>142.112</ele>
      <time>2015-09-06T09:48:00Z</time>
    </trkpt>
    <trkpt lat="48.430848" lon="2.632001">
      <ele>141.672</ele>
      <time>2015-09-06T09:48:02Z</time>
    </trkpt>
    <trkpt lat="48.430865" lon="2.631866">
      <ele>141.566</ele>
      <time>2015-09-06T09:48:04Z</time>
    </trkpt>
    <trkpt lat="48.430895" lon="2.631697">
      <ele>141.361</ele>
      <time>2015-09-06T09:48:06Z</time>
    </trkpt>
    <trkpt lat="48.430913" lon="2.631521">
      <ele>141.517</ele>
      <time>2015-09-06T09:48:08Z</time>
    </trkpt>
    <trkpt lat="48.430939" lon="2.63139">
      <ele>141.333</ele>
      <time>2015-09-06T09:48:10Z</time>
    </trkpt>
    <trkpt lat="48.430977" lon="2.631235">
      <ele>140.666</ele>
      <time>2015-09-06T09:48:12Z</time>
    </trkpt>
    <trkpt lat="48.431003" lon="2.631091">
      <ele>140.291</ele>
      <time>2015-09-06T09:48:14Z</time>
    </trkpt>
    <trkpt lat="48.431042" lon="2.630949">
      <ele>139.054</ele>
      <time>2015-09-06T09:48:16Z</time>
    </trkpt>
    <trkpt lat="48.431056" lon="2.630812">
      <ele>138.235</ele>
      <time>2015-09-06T09:48:18Z</time>
    </trkpt>
    <trkpt lat="48.431085" lon="2.630641">
      <ele>136.273</ele>
      <time>2015-09-06T09:48:21Z</time>
    </trkpt>
    <trkpt lat="48.431142" lon="2.63046">
      <ele>133.61</ele>
      <time>2015-09-06T09:48:23Z</time>
    </trkpt>
    <trkpt lat="48.431188" lon="2.630331">
      <ele>131.893</ele>
      <time>2015-09-06T09:48:25Z</time>
    </trkpt>
    <trkpt lat="48.431225" lon="2.630164">
      <ele>130.876</ele>
      <time>2015-09-06T09:48:27Z</time>
    </trkpt>
    <trkpt lat="48.431249" lon="2.63001">
      <ele>130.511</ele>
      <time>2015-09-06T09:48:29Z</time>
    </trkpt>
    <trkpt lat="48.431295" lon="2.62981">
      <ele>130.698</ele>
      <time>2015-09-06T09:48:31Z</time>
    </trkpt>
    <trkpt lat="48.431334" lon="2.629639">
      <ele>130.892</ele>
      <time>2015-09-06T09:48:33Z</time>
    </trkpt>
    <trkpt lat="48.431385" lon="2.629527">
      <ele>130.745</ele>
      <time>2015-09-06T09:48:36Z</time>
    </trkpt>
    <trkpt lat="48.431406" lon="2.629382">
      <ele>130.855</ele>
      <time>2015-09-06T09:48:40Z</time>
    </trkpt>
    <trkpt lat="48.431424" lon="2.629246">
      <ele>130.956</ele>
      <time>2015-09-06T09:48:45Z</time>
    </trkpt>
    <trkpt lat="48.431469" lon="2.629113">
      <ele>130.905</ele>
      <time>2015-09-06T09:48:52Z</time>
    </trkpt>
    <trkpt lat="48.431497" lon="2.628968">
      <ele>132.089</ele>
      <time>2015-09-06T09:48:59Z</time>
    </trkpt>
    <trkpt lat="48.431558" lon="2.628708">
      <ele>133.004</ele>
      <time>2015-09-06T09:49:10Z</time>
    </trkpt>
    <trkpt lat="48.431599" lon="2.628555">
      <ele>133.329</ele>
      <time>2015-09-06T09:49:15Z</time>
    </trkpt>
    <trkpt lat="48.431636" lon="2.628388">
      <ele>133.959</ele>
      <time>2015-09-06T09:49:18Z</time>
    </trkpt>
    <trkpt lat="48.431678" lon="2.628197">
      <ele>133.714</ele>
      <time>2015-09-06T09:49:21Z</time>
    </trkpt>
    <trkpt lat="48.431726" lon="2.628051">
      <ele>132.706</ele>
      <time>2015-09-06T09:49:23Z</time>
    </trkpt>
    <trkpt lat="48.431759" lon="2.627917">
      <ele>131.673</ele>
      <time>2015-09-06T09:49:25Z</time>
    </trkpt>
    <trkpt lat="48.431782" lon="2.627783">
      <ele>130.935</ele>
      <time>2015-09-06T09:49:27Z</time>
    </trkpt>
    <trkpt lat="48.431822" lon="2.627648">
      <ele>129.531</ele>
      <time>2015-09-06T09:49:29Z</time>
    </trkpt>
    <trkpt lat="48.431836" lon="2.627444">
      <ele>128.237</ele>
      <time>2015-09-06T09:49:31Z</time>
    </trkpt>
    <trkpt lat="48.431868" lon="2.627274">
      <ele>126.698</ele>
      <time>2015-09-06T09:49:33Z</time>
    </trkpt>
    <trkpt lat="48.431904" lon="2.627136">
      <ele>125.948</ele>
      <time>2015-09-06T09:49:35Z</time>
    </trkpt>
    <trkpt lat="48.431949" lon="2.626994">
      <ele>125.772</ele>
      <time>2015-09-06T09:49:38Z</time>
    </trkpt>
    <trkpt lat="48.431975" lon="2.626856">
      <ele>125.705</ele>
      <time>2015-09-06T09:49:43Z</time>
    </trkpt>
    <trkpt lat="48.432021" lon="2.626718">
      <ele>125.398</ele>
      <time>2015-09-06T09:49:50Z</time>
    </trkpt>
    <trkpt lat="48.432049" lon="2.626586">
      <ele>125.647</ele>
      <time>2015-09-06T09:49:57Z</time>
    </trkpt>
    <trkpt lat="48.432077" lon="2.626439">
      <ele>126.256</ele>
      <time>2015-09-06T09:50:04Z</time>
    </trkpt>
    <trkpt lat="48.43213" lon="2.626159">
      <ele>127.434</ele>
      <time>2015-09-06T09:50:14Z</time>
    </trkpt>
    <trkpt lat="48.43216" lon="2.626016">
      <ele>128.133</ele>
      <time>2015-09-06T09:50:21Z</time>
    </trkpt>
    <trkpt lat="48.43218" lon="2.625857">
      <ele>129.134</ele>
      <time>2015-09-06T09:50:28Z</time>
    </trkpt>
    <trkpt lat="48.4322" lon="2.625709">
      <ele>129.232</ele>
      <time>2015-09-06T09:50:33Z</time>
    </trkpt>
    <trkpt lat="48.432209" lon="2.625568">
      <ele>129.186</ele>
      <time>2015-09-06T09:50:36Z</time>
    </trkpt>
    <trkpt lat="48.432243" lon="2.625396">
      <ele>130.106</ele>
      <time>2015-09-06T09:50:39Z</time>
    </trkpt>
    <trkpt lat="48.432276" lon="2.62519">
      <ele>131.061</ele>
      <time>2015-09-06T09:50:42Z</time>
    </trkpt>
    <trkpt lat="48.432305" lon="2.625042">
      <ele>131.298</ele>
      <time>2015-09-06T09:50:44Z</time>
    </trkpt>
    <trkpt lat="48.432318" lon="2.624905">
      <ele>131.534</ele>
      <time>2015-09-06T09:50:46Z</time>
    </trkpt>
    <trkpt lat="48.432317" lon="2.624766">
      <ele>131.873</ele>
      <time>2015-09-06T09:50:48Z</time>
    </trkpt>
    <trkpt lat="48.432386" lon="2.624623">
      <ele>131.231</ele>
      <time>2015-09-06T09:50:51Z</time>
    </trkpt>
    <trkpt lat="48.432402" lon="2.624463">
      <ele>131.058</ele>
      <time>2015-09-06T09:50:54Z</time>
    </trkpt>
    <trkpt lat="48.432405" lon="2.624307">
      <ele>131.026</ele>
      <time>2015-09-06T09:50:56Z</time>
    </trkpt>
    <trkpt lat="48.432396" lon="2.62417">
      <ele>131.123</ele>
      <time>2015-09-06T09:50:58Z</time>
    </trkpt>
    <trkpt lat="48.432376" lon="2.62396">
      <ele>131.339</ele>
      <time>2015-09-06T09:51:01Z</time>
    </trkpt>
    <trkpt lat="48.432372" lon="2.623785">
      <ele>131.008</ele>
      <time>2015-09-06T09:51:04Z</time>
    </trkpt>
    <trkpt lat="48.432356" lon="2.623504">
      <ele>130.17</ele>
      <time>2015-09-06T09:51:12Z</time>
    </trkpt>
    <trkpt lat="48.432284" lon="2.623382">
      <ele>130.508</ele>
      <time>2015-09-06T09:51:17Z</time>
    </trkpt>
    <trkpt lat="48.432221" lon="2.623271">
      <ele>130.798</ele>
      <time>2015-09-06T09:51:22Z</time>
    </trkpt>
    <trkpt lat="48.432146" lon="2.623184">
      <ele>131.834</ele>
      <time>2015-09-06T09:51:27Z</time>
    </trkpt>
    <trkpt lat="48.432079" lon="2.623074">
      <ele>132.644</ele>
      <time>2015-09-06T09:51:34Z</time>
    </trkpt>
    <trkpt lat="48.432013" lon="2.622966">
      <ele>133.603</ele>
      <time>2015-09-06T09:51:40Z</time>
    </trkpt>
    <trkpt lat="48.431933" lon="2.622877">
      <ele>134.454</ele>
      <time>2015-09-06T09:51:48Z</time>
    </trkpt>
    <trkpt lat="48.431857" lon="2.622785">
      <ele>134.664</ele>
      <time>2015-09-06T09:51:56Z</time>
    </trkpt>
    <trkpt lat="48.43176" lon="2.622761">
      <ele>135.328</ele>
      <time>2015-09-06T09:52:05Z</time>
    </trkpt>
    <trkpt lat="48.431571" lon="2.62269">
      <ele>137.269</ele>
      <time>2015-09-06T09:52:22Z</time>
    </trkpt>
    <trkpt lat="48.431588" lon="2.622553">
      <ele>136.904</ele>
      <time>2015-09-06T09:52:56Z</time>
    </trkpt>
    <trkpt lat="48.431644" lon="2.622425">
      <ele>136.223</ele>
      <time>2015-09-06T09:53:01Z</time>
    </trkpt>
    <trkpt lat="48.431698" lon="2.622298">
      <ele>135.856</ele>
      <time>2015-09-06T09:53:07Z</time>
    </trkpt>
    <trkpt lat="48.431834" lon="2.622027">
      <ele>135.398</ele>
      <time>2015-09-06T09:53:14Z</time>
    </trkpt>
    <trkpt lat="48.43191" lon="2.621908">
      <ele>135.354</ele>
      <time>2015-09-06T09:53:17Z</time>
    </trkpt>
    <trkpt lat="48.431985" lon="2.621768">
      <ele>136.47</ele>
      <time>2015-09-06T09:53:20Z</time>
    </trkpt>
    <trkpt lat="48.432063" lon="2.621663">
      <ele>137.427</ele>
      <time>2015-09-06T09:53:23Z</time>
    </trkpt>
    <trkpt lat="48.432122" lon="2.621552">
      <ele>137.639</ele>
      <time>2015-09-06T09:53:26Z</time>
    </trkpt>
    <trkpt lat="48.432188" lon="2.621427">
      <ele>137.877</ele>
      <time>2015-09-06T09:53:30Z</time>
    </trkpt>
    <trkpt lat="48.432246" lon="2.621306">
      <ele>138.06</ele>
      <time>2015-09-06T09:53:34Z</time>
    </trkpt>
    <trkpt lat="48.432309" lon="2.621189">
      <ele>138.088</ele>
      <time>2015-09-06T09:53:38Z</time>
    </trkpt>
    <trkpt lat="48.432383" lon="2.621066">
      <ele>138.0</ele>
      <time>2015-09-06T09:53:42Z</time>
    </trkpt>
    <trkpt lat="48.43244" lon="2.620942">
      <ele>138.0</ele>
      <time>2015-09-06T09:53:46Z</time>
    </trkpt>
    <trkpt lat="48.43251" lon="2.620816">
      <ele>138.0</ele>
      <time>2015-09-06T09:53:49Z</time>
    </trkpt>
    <trkpt lat="48.432583" lon="2.620699">
      <ele>138.0</ele>
      <time>2015-09-06T09:53:54Z</time>
    </trkpt>
    <trkpt lat="48.432673" lon="2.62057">
      <ele>138.0</ele>
      <time>2015-09-06T09:53:57Z</time>
    </trkpt>
    <trkpt lat="48.432729" lon="2.620463">
      <ele>137.667</ele>
      <time>2015-09-06T09:54:00Z</time>
    </trkpt>
    <trkpt lat="48.432823" lon="2.620354">
      <ele>137.112</ele>
      <time>2015-09-06T09:54:04Z</time>
    </trkpt>
    <trkpt lat="48.432922" lon="2.620342">
      <ele>136.712</ele>
      <time>2015-09-06T09:54:08Z</time>
    </trkpt>
    <trkpt lat="48.433087" lon="2.620482">
      <ele>136.486</ele>
      <time>2015-09-06T09:54:17Z</time>
    </trkpt>
    <trkpt lat="48.433161" lon="2.620581">
      <ele>135.826</ele>
      <time>2015-09-06T09:54:22Z</time>
    </trkpt>
    <trkpt lat="48.433261" lon="2.620667">
      <ele>134.484</ele>
      <time>2015-09-06T09:54:26Z</time>
    </trkpt>
    <trkpt lat="48.433359" lon="2.620739">
      <ele>132.756</ele>
      <time>2015-09-06T09:54:30Z</time>
    </trkpt>
    <trkpt lat="48.433391" lon="2.620601">
      <ele>132.73</ele>
      <time>2015-09-06T09:55:04Z</time>
    </trkpt>
    <trkpt lat="48.433406" lon="2.620457">
      <ele>133.402</ele>
      <time>2015-09-06T09:55:10Z</time>
    </trkpt>
    <trkpt lat="48.43349" lon="2.62011">
      <ele>133.861</ele>
      <time>2015-09-06T09:55:19Z</time>
    </trkpt>
    <trkpt lat="48.433522" lon="2.61994">
      <ele>134.109</ele>
      <time>2015-09-06T09:55:23Z</time>
    </trkpt>
    <trkpt lat="48.433535" lon="2.619787">
      <ele>134.379</ele>
      <time>2015-09-06T09:55:27Z</time>
    </trkpt>
    <trkpt lat="48.43355" lon="2.61965">
      <ele>134.383</ele>
      <time>2015-09-06T09:55:33Z</time>
    </trkpt>
    <trkpt lat="48.433585" lon="2.619503">
      <ele>134.114</ele>
      <time>2015-09-06T09:55:52Z</time>
    </trkpt>
    <trkpt lat="48.433575" lon="2.619356">
      <ele>133.853</ele>
      <time>2015-09-06T09:55:59Z</time>
    </trkpt>
    <trkpt lat="48.433605" lon="2.619217">
      <ele>133.221</ele>
      <time>2015-09-06T09:56:05Z</time>
    </trkpt>
    <trkpt lat="48.433618" lon="2.619059">
      <ele>133.279</ele>
      <time>2015-09-06T09:56:09Z</time>
    </trkpt>
    <trkpt lat="48.433621" lon="2.618908">
      <ele>133.756</ele>
      <time>2015-09-06T09:56:13Z</time>
    </trkpt>
    <trkpt lat="48.433707" lon="2.618639">
      <ele>132.585</ele>
      <time>2015-09-06T09:56:22Z</time>
    </trkpt>
    <trkpt lat="48.433797" lon="2.618623">
      <ele>131.295</ele>
      <time>2015-09-06T09:56:29Z</time>
    </trkpt>
    <trkpt lat="48.433711" lon="2.618568">
      <ele>132.617</ele>
      <time>2015-09-06T09:56:53Z</time>
    </trkpt>
    <trkpt lat="48.43365" lon="2.61846">
      <ele>133.516</ele>
      <time>2015-09-06T09:57:04Z</time>
    </trkpt>
    <trkpt lat="48.43363" lon="2.618316">
      <ele>133.738</ele>
      <time>2015-09-06T09:57:10Z</time>
    </trkpt>
    <trkpt lat="48.433661" lon="2.618165">
      <ele>132.964</ele>
      <time>2015-09-06T09:57:14Z</time>
    </trkpt>
    <trkpt lat="48.433693" lon="2.617867">
      <ele>131.932</ele>
      <time>2015-09-06T09:57:23Z</time>
    </trkpt>
    <trkpt lat="48.433729" lon="2.61773">
      <ele>131.55</ele>
      <time>2015-09-06T09:57:27Z</time>
    </trkpt>
    <trkpt lat="48.433765" lon="2.617573">
      <ele>131.526</ele>
      <time>2015-09-06T09:57:34Z</time>
    </trkpt>
    <trkpt lat="48.43378" lon="2.617432">
      <ele>131.512</ele>
      <time>2015-09-06T09:57:40Z</time>
    </trkpt>
    <trkpt lat="48.433764" lon="2.617292">
      <ele>131.214</ele>
      <time>2015-09-06T09:57:47Z</time>
    </trkpt>
    <trkpt lat="48.433766" lon="2.617148">
      <ele>130.73</ele>
      <time>2015-09-06T09:57:53Z</time>
    </trkpt>
    <trkpt lat="48.433844" lon="2.617064">
      <ele>131.015</ele>
      <time>2015-09-06T09:57:56Z</time>
    </trkpt>
    <trkpt lat="48.433927" lon="2.616953">
      <ele>130.615</ele>
      <time>2015-09-06T09:57:59Z</time>
    </trkpt>
    <trkpt lat="48.433983" lon="2.616844">
      <ele>130.106</ele>
      <time>2015-09-06T09:58:03Z</time>
    </trkpt>
    <trkpt lat="48.434025" lon="2.616713">
      <ele>129.938</ele>
      <time>2015-09-06T09:58:07Z</time>
    </trkpt>
    <trkpt lat="48.434051" lon="2.616542">
      <ele>129.908</ele>
      <time>2015-09-06T09:58:12Z</time>
    </trkpt>
    <trkpt lat="48.434054" lon="2.616406">
      <ele>129.988</ele>
      <time>2015-09-06T09:58:18Z</time>
    </trkpt>
    <trkpt lat="48.434062" lon="2.616109">
      <ele>129.997</ele>
      <time>2015-09-06T09:58:45Z</time>
    </trkpt>
    <trkpt lat="48.434094" lon="2.615961">
      <ele>129.859</ele>
      <time>2015-09-06T09:58:54Z</time>
    </trkpt>
    <trkpt lat="48.434121" lon="2.615819">
      <ele>129.776</ele>
      <time>2015-09-06T09:59:05Z</time>
    </trkpt>
    <trkpt lat="48.434115" lon="2.615668">
      <ele>129.108</ele>
      <time>2015-09-06T09:59:12Z</time>
    </trkpt>
    <trkpt lat="48.43417" lon="2.615537">
      <ele>128.977</ele>
      <time>2015-09-06T09:59:18Z</time>
    </trkpt>
    <trkpt lat="48.434226" lon="2.615414">
      <ele>128.682</ele>
      <time>2015-09-06T09:59:22Z</time>
    </trkpt>
    <trkpt lat="48.434296" lon="2.615149">
      <ele>128.75</ele>
      <time>2015-09-06T09:59:41Z</time>
    </trkpt>
    <trkpt lat="48.434342" lon="2.61501">
      <ele>128.977</ele>
      <time>2015-09-06T09:59:46Z</time>
    </trkpt>
    <trkpt lat="48.43436" lon="2.614873">
      <ele>128.861</ele>
      <time>2015-09-06T09:59:51Z</time>
    </trkpt>
    <trkpt lat="48.434455" lon="2.614868">
      <ele>128.79</ele>
      <time>2015-09-06T10:00:18Z</time>
    </trkpt>
    <trkpt lat="48.434541" lon="2.614815">
      <ele>127.146</ele>
      <time>2015-09-06T10:00:49Z</time>
    </trkpt>
    <trkpt lat="48.434646" lon="2.614972">
      <ele>124.72</ele>
      <time>2015-09-06T10:02:17Z</time>
    </trkpt>
    <trkpt lat="48.43479" lon="2.615145">
      <ele>119.238</ele>
      <time>2015-09-06T10:03:14Z</time>
    </trkpt>
    <trkpt lat="48.434882" lon="2.615206">
      <ele>115.598</ele>
      <time>2015-09-06T10:04:02Z</time>
    </trkpt>
    <trkpt lat="48.435049" lon="2.615324">
      <ele>109.668</ele>
      <time>2015-09-06T10:04:10Z</time>
    </trkpt>
    <trkpt lat="48.435136" lon="2.615364">
      <ele>107.746</ele>
      <time>2015-09-06T10:04:13Z</time>
    </trkpt>
    <trkpt lat="48.435179" lon="2.615512">
      <ele>106.534</ele>
      <time>2015-09-06T10:04:20Z</time>
    </trkpt>
    <trkpt lat="48.43523" lon="2.615655">
      <ele>104.972</ele>
      <time>2015-09-06T10:04:24Z</time>
    </trkpt>
    <trkpt lat="48.435299" lon="2.615758">
      <ele>103.216</ele>
      <time>2015-09-06T10:04:26Z</time>
    </trkpt>
    <trkpt lat="48.43541" lon="2.615892">
      <ele>100.885</ele>
      <time>2015-09-06T10:04:29Z</time>
    </trkpt>
    <trkpt lat="48.435497" lon="2.615991">
      <ele>99.276</ele>
      <time>2015-09-06T10:04:31Z</time>
    </trkpt>
    <trkpt lat="48.435586" lon="2.616027">
      <ele>98.303</ele>
      <time>2015-09-06T10:04:33Z</time>
    </trkpt>
    <trkpt lat="48.435681" lon="2.616063">
      <ele>98.173</ele>
      <time>2015-09-06T10:04:35Z</time>
    </trkpt>
    <trkpt lat="48.435783" lon="2.616171">
      <ele>97.961</ele>
      <time>2015-09-06T10:04:38Z</time>
    </trkpt>
    <trkpt lat="48.435864" lon="2.616251">
      <ele>97.999</ele>
      <time>2015-09-06T10:04:41Z</time>
    </trkpt>
    <trkpt lat="48.435934" lon="2.616358">
      <ele>97.718</ele>
      <time>2015-09-06T10:04:47Z</time>
    </trkpt>
    <trkpt lat="48.436018" lon="2.616475">
      <ele>97.231</ele>
      <time>2015-09-06T10:04:50Z</time>
    </trkpt>
    <trkpt lat="48.436127" lon="2.6166">
      <ele>96.943</ele>
      <time>2015-09-06T10:04:52Z</time>
    </trkpt>
    <trkpt lat="48.436225" lon="2.61668">
      <ele>96.522</ele>
      <time>2015-09-06T10:04:54Z</time>
    </trkpt>
    <trkpt lat="48.436306" lon="2.616766">
      <ele>95.69</ele>
      <time>2015-09-06T10:04:56Z</time>
    </trkpt>
    <trkpt lat="48.436388" lon="2.616851">
      <ele>94.678</ele>
      <time>2015-09-06T10:04:59Z</time>
    </trkpt>
    <trkpt lat="48.436495" lon="2.616911">
      <ele>94.577</ele>
      <time>2015-09-06T10:05:01Z</time>
    </trkpt>
    <trkpt lat="48.436634" lon="2.616984">
      <ele>94.598</ele>
      <time>2015-09-06T10:05:05Z</time>
    </trkpt>
    <trkpt lat="48.43686" lon="2.617183">
      <ele>93.88</ele>
      <time>2015-09-06T10:05:11Z</time>
    </trkpt>
    <trkpt lat="48.43695" lon="2.617264">
      <ele>93.833</ele>
      <time>2015-09-06T10:05:13Z</time>
    </trkpt>
    <trkpt lat="48.437062" lon="2.617362">
      <ele>93.287</ele>
      <time>2015-09-06T10:05:16Z</time>
    </trkpt>
    <trkpt lat="48.437175" lon="2.617447">
      <ele>93.032</ele>
      <time>2015-09-06T10:05:19Z</time>
    </trkpt>
    <trkpt lat="48.437294" lon="2.617558">
      <ele>92.796</ele>
      <time>2015-09-06T10:05:22Z</time>
    </trkpt>
    <trkpt lat="48.437371" lon="2.617642">
      <ele>92.738</ele>
      <time>2015-09-06T10:05:24Z</time>
    </trkpt>
    <trkpt lat="48.437448" lon="2.617717">
      <ele>92.822</ele>
      <time>2015-09-06T10:05:26Z</time>
    </trkpt>
    <trkpt lat="48.43752" lon="2.617813">
      <ele>93.0</ele>
      <time>2015-09-06T10:05:28Z</time>
    </trkpt>
    <trkpt lat="48.437596" lon="2.617942">
      <ele>93.0</ele>
      <time>2015-09-06T10:05:31Z</time>
    </trkpt>
    <trkpt lat="48.4377" lon="2.618037">
      <ele>93.0</ele>
      <time>2015-09-06T10:05:34Z</time>
    </trkpt>
    <trkpt lat="48.437803" lon="2.61811">
      <ele>93.287</ele>
      <time>2015-09-06T10:05:37Z</time>
    </trkpt>
    <trkpt lat="48.437918" lon="2.618205">
      <ele>94.043</ele>
      <time>2015-09-06T10:05:40Z</time>
    </trkpt>
    <trkpt lat="48.438027" lon="2.618307">
      <ele>94.802</ele>
      <time>2015-09-06T10:05:43Z</time>
    </trkpt>
    <trkpt lat="48.438111" lon="2.618385">
      <ele>95.2</ele>
      <time>2015-09-06T10:05:45Z</time>
    </trkpt>
    <trkpt lat="48.4382" lon="2.61847">
      <ele>95.52</ele>
      <time>2015-09-06T10:05:47Z</time>
    </trkpt>
    <trkpt lat="48.438286" lon="2.61853">
      <ele>95.83</ele>
      <time>2015-09-06T10:05:49Z</time>
    </trkpt>
    <trkpt lat="48.438369" lon="2.618585">
      <ele>96.116</ele>
      <time>2015-09-06T10:05:51Z</time>
    </trkpt>
    <trkpt lat="48.438461" lon="2.618683">
      <ele>96.46</ele>
      <time>2015-09-06T10:05:54Z</time>
    </trkpt>
    <trkpt lat="48.438549" lon="2.618761">
      <ele>96.776</ele>
      <time>2015-09-06T10:05:57Z</time>
    </trkpt>
    <trkpt lat="48.438658" lon="2.618845">
      <ele>97.195</ele>
      <time>2015-09-06T10:06:01Z</time>
    </trkpt>
    <trkpt lat="48.438758" lon="2.618891">
      <ele>97.525</ele>
      <time>2015-09-06T10:06:05Z</time>
    </trkpt>
    <trkpt lat="48.438835" lon="2.618961">
      <ele>97.597</ele>
      <time>2015-09-06T10:06:10Z</time>
    </trkpt>
    <trkpt lat="48.439017" lon="2.619036">
      <ele>98.393</ele>
      <time>2015-09-06T10:06:18Z</time>
    </trkpt>
    <trkpt lat="48.439128" lon="2.619041">
      <ele>99.174</ele>
      <time>2015-09-06T10:06:23Z</time>
    </trkpt>
    <trkpt lat="48.439232" lon="2.619095">
      <ele>99.668</ele>
      <time>2015-09-06T10:06:31Z</time>
    </trkpt>
    <trkpt lat="48.439326" lon="2.61914">
      <ele>100.188</ele>
      <time>2015-09-06T10:06:36Z</time>
    </trkpt>
    <trkpt lat="48.439427" lon="2.619199">
      <ele>100.649</ele>
      <time>2015-09-06T10:06:40Z</time>
    </trkpt>
    <trkpt lat="48.439523" lon="2.619263">
      <ele>100.589</ele>
      <time>2015-09-06T10:06:44Z</time>
    </trkpt>
    <trkpt lat="48.43962" lon="2.619289">
      <ele>100.751</ele>
      <time>2015-09-06T10:06:48Z</time>
    </trkpt>
    <trkpt lat="48.439714" lon="2.619341">
      <ele>100.715</ele>
      <time>2015-09-06T10:06:52Z</time>
    </trkpt>
    <trkpt lat="48.439804" lon="2.619436">
      <ele>99.775</ele>
      <time>2015-09-06T10:06:59Z</time>
    </trkpt>
    <trkpt lat="48.439879" lon="2.619568">
      <ele>99.242</ele>
      <time>2015-09-06T10:07:04Z</time>
    </trkpt>
    <trkpt lat="48.439955" lon="2.619653">
      <ele>99.04</ele>
      <time>2015-09-06T10:07:13Z</time>
    </trkpt>
    <trkpt lat="48.440146" lon="2.619491">
      <ele>98.474</ele>
      <time>2015-09-06T10:07:25Z</time>
    </trkpt>
    <trkpt lat="48.440238" lon="2.619424">
      <ele>98.238</ele>
      <time>2015-09-06T10:07:29Z</time>
    </trkpt>
    <trkpt lat="48.440304" lon="2.61933">
      <ele>98.318</ele>
      <time>2015-09-06T10:07:33Z</time>
    </trkpt>
    <trkpt lat="48.440398" lon="2.619246">
      <ele>98.282</ele>
      <time>2015-09-06T10:07:36Z</time>
    </trkpt>
    <trkpt lat="48.440475" lon="2.619128">
      <ele>98.47</ele>
      <time>2015-09-06T10:07:39Z</time>
    </trkpt>
    <trkpt lat="48.440552" lon="2.61904">
      <ele>98.475</ele>
      <time>2015-09-06T10:07:43Z</time>
    </trkpt>
    <trkpt lat="48.440652" lon="2.618937">
      <ele>99.174</ele>
      <time>2015-09-06T10:07:47Z</time>
    </trkpt>
    <trkpt lat="48.440744" lon="2.618844">
      <ele>99.892</ele>
      <time>2015-09-06T10:07:49Z</time>
    </trkpt>
    <trkpt lat="48.440847" lon="2.618757">
      <ele>100.426</ele>
      <time>2015-09-06T10:07:52Z</time>
    </trkpt>
    <trkpt lat="48.440967" lon="2.618653">
      <ele>100.368</ele>
      <time>2015-09-06T10:07:55Z</time>
    </trkpt>
    <trkpt lat="48.441053" lon="2.618579">
      <ele>100.233</ele>
      <time>2015-09-06T10:07:57Z</time>
    </trkpt>
    <trkpt lat="48.441156" lon="2.618471">
      <ele>99.677</ele>
      <time>2015-09-06T10:08:01Z</time>
    </trkpt>
    <trkpt lat="48.44125" lon="2.618372">
      <ele>99.0</ele>
      <time>2015-09-06T10:08:05Z</time>
    </trkpt>
    <trkpt lat="48.441333" lon="2.618272">
      <ele>98.226</ele>
      <time>2015-09-06T10:08:09Z</time>
    </trkpt>
    <trkpt lat="48.44144" lon="2.61815">
      <ele>97.031</ele>
      <time>2015-09-06T10:08:12Z</time>
    </trkpt>
    <trkpt lat="48.441536" lon="2.618052">
      <ele>96.476</ele>
      <time>2015-09-06T10:08:15Z</time>
    </trkpt>
    <trkpt lat="48.441722" lon="2.61788">
      <ele>95.927</ele>
      <time>2015-09-06T10:08:22Z</time>
    </trkpt>
    <trkpt lat="48.441781" lon="2.617989">
      <ele>95.687</ele>
      <time>2015-09-06T10:08:30Z</time>
    </trkpt>
    <trkpt lat="48.441767" lon="2.618137">
      <ele>95.452</ele>
      <time>2015-09-06T10:08:34Z</time>
    </trkpt>
    <trkpt lat="48.441768" lon="2.61832">
      <ele>95.03</ele>
      <time>2015-09-06T10:08:37Z</time>
    </trkpt>
    <trkpt lat="48.441767" lon="2.618509">
      <ele>94.772</ele>
      <time>2015-09-06T10:08:40Z</time>
    </trkpt>
    <trkpt lat="48.441734" lon="2.618647">
      <ele>94.855</ele>
      <time>2015-09-06T10:08:42Z</time>
    </trkpt>
    <trkpt lat="48.441716" lon="2.618841">
      <ele>95.503</ele>
      <time>2015-09-06T10:08:45Z</time>
    </trkpt>
    <trkpt lat="48.4417" lon="2.619001">
      <ele>95.405</ele>
      <time>2015-09-06T10:08:48Z</time>
    </trkpt>
    <trkpt lat="48.441699" lon="2.619138">
      <ele>94.975</ele>
      <time>2015-09-06T10:08:50Z</time>
    </trkpt>
    <trkpt lat="48.441675" lon="2.61927">
      <ele>94.981</ele>
      <time>2015-09-06T10:08:52Z</time>
    </trkpt>
    <trkpt lat="48.441663" lon="2.619411">
      <ele>95.028</ele>
      <time>2015-09-06T10:08:54Z</time>
    </trkpt>
    <trkpt lat="48.44162" lon="2.619606">
      <ele>95.336</ele>
      <time>2015-09-06T10:08:56Z</time>
    </trkpt>
    <trkpt lat="48.441598" lon="2.619748">
      <ele>95.541</ele>
      <time>2015-09-06T10:08:58Z</time>
    </trkpt>
    <trkpt lat="48.441591" lon="2.619928">
      <ele>95.882</ele>
      <time>2015-09-06T10:09:00Z</time>
    </trkpt>
    <trkpt lat="48.441571" lon="2.620093">
      <ele>96.0</ele>
      <time>2015-09-06T10:09:02Z</time>
    </trkpt>
    <trkpt lat="48.441567" lon="2.620295">
      <ele>96.022</ele>
      <time>2015-09-06T10:09:04Z</time>
    </trkpt>
    <trkpt lat="48.441567" lon="2.620474">
      <ele>96.253</ele>
      <time>2015-09-06T10:09:06Z</time>
    </trkpt>
    <trkpt lat="48.441552" lon="2.620632">
      <ele>96.526</ele>
      <time>2015-09-06T10:09:08Z</time>
    </trkpt>
    <trkpt lat="48.441479" lon="2.620798">
      <ele>97.265</ele>
      <time>2015-09-06T10:09:10Z</time>
    </trkpt>
    <trkpt lat="48.441459" lon="2.620933">
      <ele>97.495</ele>
      <time>2015-09-06T10:09:12Z</time>
    </trkpt>
    <trkpt lat="48.441411" lon="2.621095">
      <ele>97.841</ele>
      <time>2015-09-06T10:09:15Z</time>
    </trkpt>
    <trkpt lat="48.441366" lon="2.621377">
      <ele>97.204</ele>
      <time>2015-09-06T10:09:19Z</time>
    </trkpt>
    <trkpt lat="48.441343" lon="2.621534">
      <ele>97.244</ele>
      <time>2015-09-06T10:09:21Z</time>
    </trkpt>
    <trkpt lat="48.441326" lon="2.621707">
      <ele>97.226</ele>
      <time>2015-09-06T10:09:23Z</time>
    </trkpt>
    <trkpt lat="48.441312" lon="2.621846">
      <ele>97.277</ele>
      <time>2015-09-06T10:09:25Z</time>
    </trkpt>
    <trkpt lat="48.441245" lon="2.622007">
      <ele>97.409</ele>
      <time>2015-09-06T10:09:27Z</time>
    </trkpt>
    <trkpt lat="48.441223" lon="2.622149">
      <ele>97.301</ele>
      <time>2015-09-06T10:09:29Z</time>
    </trkpt>
    <trkpt lat="48.441188" lon="2.62234">
      <ele>97.022</ele>
      <time>2015-09-06T10:09:32Z</time>
    </trkpt>
    <trkpt lat="48.441154" lon="2.622528">
      <ele>96.59</ele>
      <time>2015-09-06T10:09:35Z</time>
    </trkpt>
    <trkpt lat="48.441127" lon="2.6227">
      <ele>96.166</ele>
      <time>2015-09-06T10:09:38Z</time>
    </trkpt>
    <trkpt lat="48.441108" lon="2.622835">
      <ele>95.613</ele>
      <time>2015-09-06T10:09:40Z</time>
    </trkpt>
    <trkpt lat="48.44108" lon="2.622971">
      <ele>94.911</ele>
      <time>2015-09-06T10:09:42Z</time>
    </trkpt>
    <trkpt lat="48.441065" lon="2.623121">
      <ele>94.262</ele>
      <time>2015-09-06T10:09:44Z</time>
    </trkpt>
    <trkpt lat="48.44103" lon="2.62325">
      <ele>94.176</ele>
      <time>2015-09-06T10:09:46Z</time>
    </trkpt>
    <trkpt lat="48.441004" lon="2.623391">
      <ele>93.822</ele>
      <time>2015-09-06T10:09:49Z</time>
    </trkpt>
    <trkpt lat="48.440945" lon="2.623554">
      <ele>93.68</ele>
      <time>2015-09-06T10:09:52Z</time>
    </trkpt>
    <trkpt lat="48.440908" lon="2.62369">
      <ele>93.433</ele>
      <time>2015-09-06T10:09:54Z</time>
    </trkpt>
    <trkpt lat="48.440852" lon="2.623844">
      <ele>93.111</ele>
      <time>2015-09-06T10:09:57Z</time>
    </trkpt>
    <trkpt lat="48.440812" lon="2.624007">
      <ele>92.413</ele>
      <time>2015-09-06T10:10:01Z</time>
    </trkpt>
    <trkpt lat="48.440771" lon="2.624152">
      <ele>91.991</ele>
      <time>2015-09-06T10:10:06Z</time>
    </trkpt>
    <trkpt lat="48.440844" lon="2.624273">
      <ele>90.947</ele>
      <time>2015-09-06T10:10:12Z</time>
    </trkpt>
    <trkpt lat="48.440922" lon="2.624371">
      <ele>90.446</ele>
      <time>2015-09-06T10:10:16Z</time>
    </trkpt>
    <trkpt lat="48.441074" lon="2.62459">
      <ele>89.651</ele>
      <time>2015-09-06T10:10:48Z</time>
    </trkpt>
    <trkpt lat="48.441115" lon="2.624759">
      <ele>90.145</ele>
      <time>2015-09-06T10:10:51Z</time>
    </trkpt>
    <trkpt lat="48.441164" lon="2.624928">
      <ele>90.79</ele>
      <time>2015-09-06T10:10:54Z</time>
    </trkpt>
    <trkpt lat="48.441211" lon="2.625046">
      <ele>91.166</ele>
      <time>2015-09-06T10:10:56Z</time>
    </trkpt>
    <trkpt lat="48.441266" lon="2.625202">
      <ele>91.727</ele>
      <time>2015-09-06T10:10:59Z</time>
    </trkpt>
    <trkpt lat="48.441319" lon="2.625317">
      <ele>92.036</ele>
      <time>2015-09-06T10:11:01Z</time>
    </trkpt>
    <trkpt lat="48.441374" lon="2.625475">
      <ele>92.038</ele>
      <time>2015-09-06T10:11:04Z</time>
    </trkpt>
    <trkpt lat="48.441414" lon="2.625637">
      <ele>91.883</ele>
      <time>2015-09-06T10:11:07Z</time>
    </trkpt>
    <trkpt lat="48.441468" lon="2.625781">
      <ele>91.484</ele>
      <time>2015-09-06T10:11:10Z</time>
    </trkpt>
    <trkpt lat="48.441502" lon="2.625927">
      <ele>91.385</ele>
      <time>2015-09-06T10:11:13Z</time>
    </trkpt>
    <trkpt lat="48.44155" lon="2.62611">
      <ele>91.258</ele>
      <time>2015-09-06T10:11:16Z</time>
    </trkpt>
    <trkpt lat="48.441665" lon="2.626416">
      <ele>90.116</ele>
      <time>2015-09-06T10:11:21Z</time>
    </trkpt>
    <trkpt lat="48.44172" lon="2.626572">
      <ele>89.573</ele>
      <time>2015-09-06T10:11:23Z</time>
    </trkpt>
    <trkpt lat="48.441777" lon="2.626716">
      <ele>88.617</ele>
      <time>2015-09-06T10:11:25Z</time>
    </trkpt>
    <trkpt lat="48.441843" lon="2.626873">
      <ele>87.191</ele>
      <time>2015-09-06T10:11:27Z</time>
    </trkpt>
    <trkpt lat="48.441897" lon="2.627026">
      <ele>86.318</ele>
      <time>2015-09-06T10:11:29Z</time>
    </trkpt>
    <trkpt lat="48.441945" lon="2.627176">
      <ele>85.83</ele>
      <time>2015-09-06T10:11:31Z</time>
    </trkpt>
    <trkpt lat="48.442005" lon="2.627324">
      <ele>86.137</ele>
      <time>2015-09-06T10:11:33Z</time>
    </trkpt>
    <trkpt lat="48.442062" lon="2.627463">
      <ele>86.154</ele>
      <time>2015-09-06T10:11:35Z</time>
    </trkpt>
    <trkpt lat="48.442104" lon="2.627619">
      <ele>86.067</ele>
      <time>2015-09-06T10:11:37Z</time>
    </trkpt>
    <trkpt lat="48.442139" lon="2.627745">
      <ele>85.727</ele>
      <time>2015-09-06T10:11:39Z</time>
    </trkpt>
    <trkpt lat="48.442192" lon="2.627916">
      <ele>85.594</ele>
      <time>2015-09-06T10:11:42Z</time>
    </trkpt>
    <trkpt lat="48.442241" lon="2.628105">
      <ele>86.387</ele>
      <time>2015-09-06T10:11:45Z</time>
    </trkpt>
    <trkpt lat="48.442264" lon="2.628243">
      <ele>87.622</ele>
      <time>2015-09-06T10:11:47Z</time>
    </trkpt>
    <trkpt lat="48.4423" lon="2.628436">
      <ele>89.165</ele>
      <time>2015-09-06T10:11:50Z</time>
    </trkpt>
    <trkpt lat="48.442334" lon="2.628573">
      <ele>90.034</ele>
      <time>2015-09-06T10:11:52Z</time>
    </trkpt>
    <trkpt lat="48.442372" lon="2.628699">
      <ele>90.305</ele>
      <time>2015-09-06T10:11:54Z</time>
    </trkpt>
    <trkpt lat="48.442399" lon="2.628835">
      <ele>90.553</ele>
      <time>2015-09-06T10:11:56Z</time>
    </trkpt>
    <trkpt lat="48.442436" lon="2.628975">
      <ele>90.772</ele>
      <time>2015-09-06T10:11:58Z</time>
    </trkpt>
    <trkpt lat="48.442477" lon="2.629102">
      <ele>90.948</ele>
      <time>2015-09-06T10:12:00Z</time>
    </trkpt>
    <trkpt lat="48.442554" lon="2.629277">
      <ele>90.705</ele>
      <time>2015-09-06T10:12:03Z</time>
    </trkpt>
    <trkpt lat="48.442615" lon="2.629421">
      <ele>90.726</ele>
      <time>2015-09-06T10:12:05Z</time>
    </trkpt>
    <trkpt lat="48.442673" lon="2.629559">
      <ele>91.38</ele>
      <time>2015-09-06T10:12:08Z</time>
    </trkpt>
    <trkpt lat="48.442759" lon="2.629687">
      <ele>91.772</ele>
      <time>2015-09-06T10:12:10Z</time>
    </trkpt>
    <trkpt lat="48.442843" lon="2.629846">
      <ele>92.608</ele>
      <time>2015-09-06T10:12:13Z</time>
    </trkpt>
    <trkpt lat="48.442913" lon="2.629958">
      <ele>92.961</ele>
      <time>2015-09-06T10:12:15Z</time>
    </trkpt>
    <trkpt lat="48.442984" lon="2.630062">
      <ele>92.9</ele>
      <time>2015-09-06T10:12:17Z</time>
    </trkpt>
    <trkpt lat="48.443172" lon="2.63022">
      <ele>91.367</ele>
      <time>2015-09-06T10:12:21Z</time>
    </trkpt>
    <trkpt lat="48.443249" lon="2.630344">
      <ele>90.663</ele>
      <time>2015-09-06T10:12:24Z</time>
    </trkpt>
    <trkpt lat="48.443317" lon="2.630511">
      <ele>89.393</ele>
      <time>2015-09-06T10:12:28Z</time>
    </trkpt>
    <trkpt lat="48.443374" lon="2.630662">
      <ele>89.542</ele>
      <time>2015-09-06T10:12:30Z</time>
    </trkpt>
    <trkpt lat="48.443425" lon="2.630814">
      <ele>89.88</ele>
      <time>2015-09-06T10:12:32Z</time>
    </trkpt>
    <trkpt lat="48.443464" lon="2.630968">
      <ele>90.147</ele>
      <time>2015-09-06T10:12:34Z</time>
    </trkpt>
    <trkpt lat="48.443539" lon="2.631127">
      <ele>89.7</ele>
      <time>2015-09-06T10:12:36Z</time>
    </trkpt>
    <trkpt lat="48.443581" lon="2.631254">
      <ele>90.082</ele>
      <time>2015-09-06T10:12:38Z</time>
    </trkpt>
    <trkpt lat="48.443649" lon="2.63138">
      <ele>90.499</ele>
      <time>2015-09-06T10:12:41Z</time>
    </trkpt>
    <trkpt lat="48.443687" lon="2.631517">
      <ele>91.103</ele>
      <time>2015-09-06T10:12:43Z</time>
    </trkpt>
    <trkpt lat="48.443749" lon="2.631679">
      <ele>91.578</ele>
      <time>2015-09-06T10:12:45Z</time>
    </trkpt>
    <trkpt lat="48.44379" lon="2.631801">
      <ele>91.724</ele>
      <time>2015-09-06T10:12:47Z</time>
    </trkpt>
    <trkpt lat="48.44384" lon="2.631959">
      <ele>91.756</ele>
      <time>2015-09-06T10:12:50Z</time>
    </trkpt>
    <trkpt lat="48.443879" lon="2.632087">
      <ele>91.656</ele>
      <time>2015-09-06T10:12:52Z</time>
    </trkpt>
    <trkpt lat="48.443912" lon="2.632226">
      <ele>91.584</ele>
      <time>2015-09-06T10:12:54Z</time>
    </trkpt>
    <trkpt lat="48.443964" lon="2.632412">
      <ele>90.648</ele>
      <time>2015-09-06T10:12:57Z</time>
    </trkpt>
    <trkpt lat="48.443994" lon="2.632576">
      <ele>90.212</ele>
      <time>2015-09-06T10:13:00Z</time>
    </trkpt>
    <trkpt lat="48.444027" lon="2.632731">
      <ele>89.927</ele>
      <time>2015-09-06T10:13:03Z</time>
    </trkpt>
    <trkpt lat="48.444066" lon="2.632912">
      <ele>90.416</ele>
      <time>2015-09-06T10:13:06Z</time>
    </trkpt>
    <trkpt lat="48.444102" lon="2.633046">
      <ele>90.862</ele>
      <time>2015-09-06T10:13:08Z</time>
    </trkpt>
    <trkpt lat="48.444133" lon="2.633231">
      <ele>91.116</ele>
      <time>2015-09-06T10:13:11Z</time>
    </trkpt>
    <trkpt lat="48.444164" lon="2.633397">
      <ele>91.265</ele>
      <time>2015-09-06T10:13:14Z</time>
    </trkpt>
    <trkpt lat="48.44419" lon="2.63355">
      <ele>91.36</ele>
      <time>2015-09-06T10:13:17Z</time>
    </trkpt>
    <trkpt lat="48.444229" lon="2.633688">
      <ele>91.093</ele>
      <time>2015-09-06T10:13:21Z</time>
    </trkpt>
    <trkpt lat="48.44428" lon="2.633994">
      <ele>91.085</ele>
      <time>2015-09-06T10:13:26Z</time>
    </trkpt>
    <trkpt lat="48.444327" lon="2.634153">
      <ele>91.036</ele>
      <time>2015-09-06T10:13:29Z</time>
    </trkpt>
    <trkpt lat="48.444374" lon="2.63432">
      <ele>90.82</ele>
      <time>2015-09-06T10:13:32Z</time>
    </trkpt>
    <trkpt lat="48.444423" lon="2.634508">
      <ele>90.808</ele>
      <time>2015-09-06T10:13:35Z</time>
    </trkpt>
    <trkpt lat="48.444449" lon="2.634687">
      <ele>91.683</ele>
      <time>2015-09-06T10:13:38Z</time>
    </trkpt>
    <trkpt lat="48.44453" lon="2.63481">
      <ele>91.4</ele>
      <time>2015-09-06T10:13:40Z</time>
    </trkpt>
    <trkpt lat="48.444582" lon="2.634981">
      <ele>91.882</ele>
      <time>2015-09-06T10:13:43Z</time>
    </trkpt>
    <trkpt lat="48.44465" lon="2.635157">
      <ele>91.458</ele>
      <time>2015-09-06T10:13:47Z</time>
    </trkpt>
    <trkpt lat="48.444715" lon="2.635336">
      <ele>91.288</ele>
      <time>2015-09-06T10:13:50Z</time>
    </trkpt>
    <trkpt lat="48.444768" lon="2.635481">
      <ele>91.072</ele>
      <time>2015-09-06T10:13:53Z</time>
    </trkpt>
    <trkpt lat="48.444824" lon="2.63565">
      <ele>90.874</ele>
      <time>2015-09-06T10:13:56Z</time>
    </trkpt>
    <trkpt lat="48.444886" lon="2.635793">
      <ele>90.496</ele>
      <time>2015-09-06T10:13:59Z</time>
    </trkpt>
    <trkpt lat="48.444951" lon="2.635909">
      <ele>89.706</ele>
      <time>2015-09-06T10:14:03Z</time>
    </trkpt>
    <trkpt lat="48.445014" lon="2.636043">
      <ele>88.887</ele>
      <time>2015-09-06T10:14:06Z</time>
    </trkpt>
    <trkpt lat="48.445071" lon="2.63618">
      <ele>88.8</ele>
      <time>2015-09-06T10:14:09Z</time>
    </trkpt>
    <trkpt lat="48.445127" lon="2.636315">
      <ele>89.155</ele>
      <time>2015-09-06T10:14:12Z</time>
    </trkpt>
    <trkpt lat="48.445195" lon="2.636476">
      <ele>89.298</ele>
      <time>2015-09-06T10:14:15Z</time>
    </trkpt>
    <trkpt lat="48.44526" lon="2.63658">
      <ele>89.064</ele>
      <time>2015-09-06T10:14:18Z</time>
    </trkpt>
    <trkpt lat="48.445319" lon="2.636733">
      <ele>88.852</ele>
      <time>2015-09-06T10:14:22Z</time>
    </trkpt>
    <trkpt lat="48.445362" lon="2.637026">
      <ele>88.608</ele>
      <time>2015-09-06T10:14:28Z</time>
    </trkpt>
    <trkpt lat="48.445323" lon="2.637167">
      <ele>88.707</ele>
      <time>2015-09-06T10:14:31Z</time>
    </trkpt>
    <trkpt lat="48.445285" lon="2.637308">
      <ele>89.257</ele>
      <time>2015-09-06T10:14:34Z</time>
    </trkpt>
    <trkpt lat="48.445378" lon="2.637296">
      <ele>88.544</ele>
      <time>2015-09-06T10:14:42Z</time>
    </trkpt>
    <trkpt lat="48.445476" lon="2.6373">
      <ele>87.853</ele>
      <time>2015-09-06T10:14:44Z</time>
    </trkpt>
    <trkpt lat="48.445576" lon="2.637328">
      <ele>87.381</ele>
      <time>2015-09-06T10:14:46Z</time>
    </trkpt>
    <trkpt lat="48.445677" lon="2.637357">
      <ele>87.485</ele>
      <time>2015-09-06T10:14:48Z</time>
    </trkpt>
    <trkpt lat="48.445776" lon="2.637379">
      <ele>87.564</ele>
      <time>2015-09-06T10:14:50Z</time>
    </trkpt>
    <trkpt lat="48.44587" lon="2.637397">
      <ele>87.761</ele>
      <time>2015-09-06T10:14:55Z</time>
    </trkpt>
    <trkpt lat="48.445939" lon="2.63753">
      <ele>88.488</ele>
      <time>2015-09-06T10:15:00Z</time>
    </trkpt>
    <trkpt lat="48.445978" lon="2.637675">
      <ele>89.151</ele>
      <time>2015-09-06T10:15:04Z</time>
    </trkpt>
    <trkpt lat="48.446018" lon="2.637807">
      <ele>89.805</ele>
      <time>2015-09-06T10:15:07Z</time>
    </trkpt>
    <trkpt lat="48.446085" lon="2.637906">
      <ele>90.411</ele>
      <time>2015-09-06T10:15:10Z</time>
    </trkpt>
    <trkpt lat="48.446106" lon="2.638044">
      <ele>90.958</ele>
      <time>2015-09-06T10:15:13Z</time>
    </trkpt>
    <trkpt lat="48.446106" lon="2.638189">
      <ele>91.48</ele>
      <time>2015-09-06T10:15:16Z</time>
    </trkpt>
    <trkpt lat="48.446103" lon="2.638356">
      <ele>92.082</ele>
      <time>2015-09-06T10:15:19Z</time>
    </trkpt>
    <trkpt lat="48.446082" lon="2.638515">
      <ele>92.654</ele>
      <time>2015-09-06T10:15:22Z</time>
    </trkpt>
    <trkpt lat="48.446033" lon="2.638811">
      <ele>94.237</ele>
      <time>2015-09-06T10:15:28Z</time>
    </trkpt>
    <trkpt lat="48.446012" lon="2.638953">
      <ele>94.643</ele>
      <time>2015-09-06T10:15:31Z</time>
    </trkpt>
    <trkpt lat="48.44597" lon="2.639125">
      <ele>94.492</ele>
      <time>2015-09-06T10:15:34Z</time>
    </trkpt>
    <trkpt lat="48.445952" lon="2.639277">
      <ele>94.427</ele>
      <time>2015-09-06T10:15:37Z</time>
    </trkpt>
    <trkpt lat="48.445917" lon="2.639444">
      <ele>94.301</ele>
      <time>2015-09-06T10:15:40Z</time>
    </trkpt>
    <trkpt lat="48.44588" lon="2.639617">
      <ele>94.789</ele>
      <time>2015-09-06T10:15:43Z</time>
    </trkpt>
    <trkpt lat="48.445851" lon="2.639798">
      <ele>95.609</ele>
      <time>2015-09-06T10:15:46Z</time>
    </trkpt>
    <trkpt lat="48.445826" lon="2.639974">
      <ele>96.762</ele>
      <time>2015-09-06T10:15:49Z</time>
    </trkpt>
    <trkpt lat="48.4458" lon="2.640137">
      <ele>97.253</ele>
      <time>2015-09-06T10:15:52Z</time>
    </trkpt>
    <trkpt lat="48.445765" lon="2.640288">
      <ele>97.545</ele>
      <time>2015-09-06T10:15:55Z</time>
    </trkpt>
    <trkpt lat="48.445727" lon="2.640428">
      <ele>97.775</ele>
      <time>2015-09-06T10:15:58Z</time>
    </trkpt>
    <trkpt lat="48.445716" lon="2.640601">
      <ele>98.319</ele>
      <time>2015-09-06T10:16:02Z</time>
    </trkpt>
    <trkpt lat="48.445664" lon="2.640768">
      <ele>98.546</ele>
      <time>2015-09-06T10:16:06Z</time>
    </trkpt>
    <trkpt lat="48.445636" lon="2.640936">
      <ele>98.686</ele>
      <time>2015-09-06T10:16:10Z</time>
    </trkpt>
    <trkpt lat="48.445579" lon="2.641079">
      <ele>98.243</ele>
      <time>2015-09-06T10:16:13Z</time>
    </trkpt>
    <trkpt lat="48.445544" lon="2.641248">
      <ele>98.389</ele>
      <time>2015-09-06T10:16:16Z</time>
    </trkpt>
    <trkpt lat="48.445518" lon="2.641434">
      <ele>98.616</ele>
      <time>2015-09-06T10:16:19Z</time>
    </trkpt>
    <trkpt lat="48.445488" lon="2.641591">
      <ele>98.447</ele>
      <time>2015-09-06T10:16:22Z</time>
    </trkpt>
    <trkpt lat="48.445473" lon="2.641951">
      <ele>98.429</ele>
      <time>2015-09-06T10:16:28Z</time>
    </trkpt>
    <trkpt lat="48.445482" lon="2.642129">
      <ele>99.135</ele>
      <time>2015-09-06T10:16:31Z</time>
    </trkpt>
    <trkpt lat="48.445487" lon="2.642315">
      <ele>99.84</ele>
      <time>2015-09-06T10:16:34Z</time>
    </trkpt>
    <trkpt lat="48.445457" lon="2.642506">
      <ele>100.312</ele>
      <time>2015-09-06T10:16:37Z</time>
    </trkpt>
    <trkpt lat="48.445422" lon="2.642701">
      <ele>100.762</ele>
      <time>2015-09-06T10:16:40Z</time>
    </trkpt>
    <trkpt lat="48.445425" lon="2.642848">
      <ele>101.06</ele>
      <time>2015-09-06T10:16:42Z</time>
    </trkpt>
    <trkpt lat="48.445431" lon="2.643004">
      <ele>101.103</ele>
      <time>2015-09-06T10:16:44Z</time>
    </trkpt>
    <trkpt lat="48.445445" lon="2.643159">
      <ele>101.204</ele>
      <time>2015-09-06T10:16:46Z</time>
    </trkpt>
    <trkpt lat="48.445441" lon="2.643306">
      <ele>101.175</ele>
      <time>2015-09-06T10:16:48Z</time>
    </trkpt>
    <trkpt lat="48.445461" lon="2.643465">
      <ele>100.694</ele>
      <time>2015-09-06T10:16:51Z</time>
    </trkpt>
    <trkpt lat="48.445517" lon="2.643589">
      <ele>100.137</ele>
      <time>2015-09-06T10:16:54Z</time>
    </trkpt>
    <trkpt lat="48.445602" lon="2.643677">
      <ele>99.596</ele>
      <time>2015-09-06T10:16:57Z</time>
    </trkpt>
    <trkpt lat="48.445698" lon="2.643733">
      <ele>99.048</ele>
      <time>2015-09-06T10:17:01Z</time>
    </trkpt>
    <trkpt lat="48.445789" lon="2.643761">
      <ele>98.62</ele>
      <time>2015-09-06T10:17:05Z</time>
    </trkpt>
    <trkpt lat="48.445884" lon="2.64371">
      <ele>98.944</ele>
      <time>2015-09-06T10:17:10Z</time>
    </trkpt>
    <trkpt lat="48.445979" lon="2.643659">
      <ele>99.786</ele>
      <time>2015-09-06T10:17:13Z</time>
    </trkpt>
    <trkpt lat="48.446075" lon="2.643612">
      <ele>100.734</ele>
      <time>2015-09-06T10:17:17Z</time>
    </trkpt>
    <trkpt lat="48.446175" lon="2.643624">
      <ele>101.597</ele>
      <time>2015-09-06T10:17:22Z</time>
    </trkpt>
    <trkpt lat="48.446372" lon="2.643637">
      <ele>103.631</ele>
      <time>2015-09-06T10:17:31Z</time>
    </trkpt>
    <trkpt lat="48.446435" lon="2.643798">
      <ele>103.264</ele>
      <time>2015-09-06T10:17:35Z</time>
    </trkpt>
    <trkpt lat="48.446477" lon="2.643962">
      <ele>103.102</ele>
      <time>2015-09-06T10:17:39Z</time>
    </trkpt>
    <trkpt lat="48.44647" lon="2.644134">
      <ele>102.653</ele>
      <time>2015-09-06T10:17:43Z</time>
    </trkpt>
    <trkpt lat="48.44644" lon="2.644271">
      <ele>102.062</ele>
      <time>2015-09-06T10:17:47Z</time>
    </trkpt>
    <trkpt lat="48.446447" lon="2.64444">
      <ele>101.64</ele>
      <time>2015-09-06T10:17:51Z</time>
    </trkpt>
    <trkpt lat="48.446521" lon="2.644559">
      <ele>102.643</ele>
      <time>2015-09-06T10:17:55Z</time>
    </trkpt>
    <trkpt lat="48.446603" lon="2.644622">
      <ele>103.459</ele>
      <time>2015-09-06T10:18:01Z</time>
    </trkpt>
    <trkpt lat="48.446696" lon="2.644574">
      <ele>104.422</ele>
      <time>2015-09-06T10:18:05Z</time>
    </trkpt>
    <trkpt lat="48.446806" lon="2.644533">
      <ele>106.006</ele>
      <time>2015-09-06T10:18:09Z</time>
    </trkpt>
    <trkpt lat="48.446895" lon="2.644616">
      <ele>107.288</ele>
      <time>2015-09-06T10:18:13Z</time>
    </trkpt>
    <trkpt lat="48.447013" lon="2.644707">
      <ele>108.987</ele>
      <time>2015-09-06T10:18:19Z</time>
    </trkpt>
    <trkpt lat="48.447094" lon="2.644821">
      <ele>110.126</ele>
      <time>2015-09-06T10:18:23Z</time>
    </trkpt>
    <trkpt lat="48.447276" lon="2.644942">
      <ele>111.556</ele>
      <time>2015-09-06T10:18:37Z</time>
    </trkpt>
    <trkpt lat="48.447366" lon="2.644999">
      <ele>112.037</ele>
      <time>2015-09-06T10:18:42Z</time>
    </trkpt>
    <trkpt lat="48.447489" lon="2.645048">
      <ele>112.928</ele>
      <time>2015-09-06T10:18:45Z</time>
    </trkpt>
    <trkpt lat="48.44756" lon="2.645133">
      <ele>113.432</ele>
      <time>2015-09-06T10:18:49Z</time>
    </trkpt>
    <trkpt lat="48.447674" lon="2.645304">
      <ele>114.382</ele>
      <time>2015-09-06T10:18:58Z</time>
    </trkpt>
    <trkpt lat="48.447772" lon="2.645282">
      <ele>114.974</ele>
      <time>2015-09-06T10:19:04Z</time>
    </trkpt>
    <trkpt lat="48.447904" lon="2.645238">
      <ele>116.883</ele>
      <time>2015-09-06T10:19:09Z</time>
    </trkpt>
    <trkpt lat="48.448005" lon="2.645203">
      <ele>118.492</ele>
      <time>2015-09-06T10:19:15Z</time>
    </trkpt>
    <trkpt lat="48.448061" lon="2.645317">
      <ele>119.078</ele>
      <time>2015-09-06T10:19:21Z</time>
    </trkpt>
    <trkpt lat="48.448085" lon="2.645457">
      <ele>119.424</ele>
      <time>2015-09-06T10:19:27Z</time>
    </trkpt>
    <trkpt lat="48.448213" lon="2.645675">
      <ele>122.127</ele>
      <time>2015-09-06T10:19:45Z</time>
    </trkpt>
    <trkpt lat="48.448314" lon="2.645704">
      <ele>123.79</ele>
      <time>2015-09-06T10:19:50Z</time>
    </trkpt>
    <trkpt lat="48.448394" lon="2.645618">
      <ele>124.323</ele>
      <time>2015-09-06T10:19:56Z</time>
    </trkpt>
    <trkpt lat="48.44847" lon="2.645531">
      <ele>125.011</ele>
      <time>2015-09-06T10:20:01Z</time>
    </trkpt>
    <trkpt lat="48.448552" lon="2.645449">
      <ele>126.451</ele>
      <time>2015-09-06T10:20:13Z</time>
    </trkpt>
    <trkpt lat="48.448608" lon="2.645328">
      <ele>127.765</ele>
      <time>2015-09-06T10:20:22Z</time>
    </trkpt>
    <trkpt lat="48.448672" lon="2.645221">
      <ele>128.702</ele>
      <time>2015-09-06T10:20:27Z</time>
    </trkpt>
    <trkpt lat="48.448771" lon="2.645196">
      <ele>129.896</ele>
      <time>2015-09-06T10:20:33Z</time>
    </trkpt>
    <trkpt lat="48.448932" lon="2.645336">
      <ele>131.411</ele>
      <time>2015-09-06T10:20:49Z</time>
    </trkpt>
    <trkpt lat="48.448952" lon="2.645469">
      <ele>131.22</ele>
      <time>2015-09-06T10:20:52Z</time>
    </trkpt>
    <trkpt lat="48.448994" lon="2.645624">
      <ele>131.574</ele>
      <time>2015-09-06T10:21:00Z</time>
    </trkpt>
    <trkpt lat="48.449015" lon="2.645767">
      <ele>131.886</ele>
      <time>2015-09-06T10:21:07Z</time>
    </trkpt>
    <trkpt lat="48.449042" lon="2.645898">
      <ele>132.568</ele>
      <time>2015-09-06T10:21:13Z</time>
    </trkpt>
    <trkpt lat="48.449074" lon="2.646026">
      <ele>133.72</ele>
      <time>2015-09-06T10:21:17Z</time>
    </trkpt>
    <trkpt lat="48.449144" lon="2.646177">
      <ele>135.35</ele>
      <time>2015-09-06T10:21:22Z</time>
    </trkpt>
    <trkpt lat="48.452483" lon="2.648664">
      <ele>153.772</ele>
      <time>2015-09-06T10:23:34Z</time>
    </trkpt>
    <trkpt lat="48.45272" lon="2.648823">
      <ele>153.237</ele>
      <time>2015-09-06T10:23:41Z</time>
    </trkpt>
    <trkpt lat="48.452796" lon="2.648903">
      <ele>152.946</ele>
      <time>2015-09-06T10:23:44Z</time>
    </trkpt>
    <trkpt lat="48.45288" lon="2.648989">
      <ele>152.507</ele>
      <time>2015-09-06T10:23:46Z</time>
    </trkpt>
    <trkpt lat="48.452977" lon="2.649098">
      <ele>151.707</ele>
      <time>2015-09-06T10:23:49Z</time>
    </trkpt>
    <trkpt lat="48.453066" lon="2.649125">
      <ele>151.332</ele>
      <time>2015-09-06T10:23:50Z</time>
    </trkpt>
    <trkpt lat="48.453183" lon="2.649211">
      <ele>151.299</ele>
      <time>2015-09-06T10:23:53Z</time>
    </trkpt>
    <trkpt lat="48.453289" lon="2.649336">
      <ele>151.231</ele>
      <time>2015-09-06T10:23:55Z</time>
    </trkpt>
    <trkpt lat="48.453409" lon="2.649411">
      <ele>151.153</ele>
      <time>2015-09-06T10:23:58Z</time>
    </trkpt>
    <trkpt lat="48.453532" lon="2.64951">
      <ele>150.764</ele>
      <time>2015-09-06T10:24:00Z</time>
    </trkpt>
    <trkpt lat="48.453616" lon="2.649595">
      <ele>150.476</ele>
      <time>2015-09-06T10:24:02Z</time>
    </trkpt>
    <trkpt lat="48.453742" lon="2.649675">
      <ele>150.641</ele>
      <time>2015-09-06T10:24:04Z</time>
    </trkpt>
    <trkpt lat="48.453829" lon="2.649748">
      <ele>150.692</ele>
      <time>2015-09-06T10:24:07Z</time>
    </trkpt>
    <trkpt lat="48.453922" lon="2.64981">
      <ele>150.684</ele>
      <time>2015-09-06T10:24:08Z</time>
    </trkpt>
    <trkpt lat="48.454024" lon="2.649889">
      <ele>150.4</ele>
      <time>2015-09-06T10:24:11Z</time>
    </trkpt>
    <trkpt lat="48.454117" lon="2.649989">
      <ele>150.04</ele>
      <time>2015-09-06T10:24:13Z</time>
    </trkpt>
    <trkpt lat="48.454197" lon="2.650053">
      <ele>149.782</ele>
      <time>2015-09-06T10:24:15Z</time>
    </trkpt>
    <trkpt lat="48.454336" lon="2.650137">
      <ele>148.781</ele>
      <time>2015-09-06T10:24:17Z</time>
    </trkpt>
    <trkpt lat="48.454451" lon="2.650234">
      <ele>147.957</ele>
      <time>2015-09-06T10:24:20Z</time>
    </trkpt>
    <trkpt lat="48.45457" lon="2.650274">
      <ele>147.102</ele>
      <time>2015-09-06T10:24:22Z</time>
    </trkpt>
    <trkpt lat="48.454733" lon="2.650464">
      <ele>145.948</ele>
      <time>2015-09-06T10:24:25Z</time>
    </trkpt>
    <trkpt lat="48.454862" lon="2.650565">
      <ele>145.531</ele>
      <time>2015-09-06T10:24:28Z</time>
    </trkpt>
    <trkpt lat="48.454986" lon="2.650625">
      <ele>145.3</ele>
      <time>2015-09-06T10:24:31Z</time>
    </trkpt>
    <trkpt lat="48.45508" lon="2.650721">
      <ele>145.308</ele>
      <time>2015-09-06T10:24:33Z</time>
    </trkpt>
    <trkpt lat="48.455189" lon="2.650825">
      <ele>145.29</ele>
      <time>2015-09-06T10:24:35Z</time>
    </trkpt>
    <trkpt lat="48.455462" lon="2.651112">
      <ele>145.334</ele>
      <time>2015-09-06T10:24:41Z</time>
    </trkpt>
    <trkpt lat="48.455623" lon="2.651224">
      <ele>144.108</ele>
      <time>2015-09-06T10:24:44Z</time>
    </trkpt>
    <trkpt lat="48.45574" lon="2.651304">
      <ele>142.978</ele>
      <time>2015-09-06T10:24:47Z</time>
    </trkpt>
    <trkpt lat="48.455821" lon="2.651404">
      <ele>141.98</ele>
      <time>2015-09-06T10:24:49Z</time>
    </trkpt>
    <trkpt lat="48.456002" lon="2.651523">
      <ele>139.213</ele>
      <time>2015-09-06T10:24:53Z</time>
    </trkpt>
    <trkpt lat="48.456101" lon="2.651597">
      <ele>137.611</ele>
      <time>2015-09-06T10:24:55Z</time>
    </trkpt>
    <trkpt lat="48.456186" lon="2.651666">
      <ele>136.735</ele>
      <time>2015-09-06T10:24:57Z</time>
    </trkpt>
    <trkpt lat="48.456297" lon="2.651747">
      <ele>136.042</ele>
      <time>2015-09-06T10:24:59Z</time>
    </trkpt>
    <trkpt lat="48.456412" lon="2.651835">
      <ele>135.311</ele>
      <time>2015-09-06T10:25:01Z</time>
    </trkpt>
    <trkpt lat="48.456522" lon="2.651902">
      <ele>134.674</ele>
      <time>2015-09-06T10:25:03Z</time>
    </trkpt>
    <trkpt lat="48.456622" lon="2.651964">
      <ele>134.09</ele>
      <time>2015-09-06T10:25:05Z</time>
    </trkpt>
    <trkpt lat="48.45677" lon="2.652044">
      <ele>133.27</ele>
      <time>2015-09-06T10:25:07Z</time>
    </trkpt>
    <trkpt lat="48.45691" lon="2.652162">
      <ele>132.341</ele>
      <time>2015-09-06T10:25:10Z</time>
    </trkpt>
    <trkpt lat="48.457013" lon="2.652233">
      <ele>132.0</ele>
      <time>2015-09-06T10:25:13Z</time>
    </trkpt>
    <trkpt lat="48.457103" lon="2.652306">
      <ele>132.0</ele>
      <time>2015-09-06T10:25:15Z</time>
    </trkpt>
    <trkpt lat="48.457185" lon="2.652399">
      <ele>132.0</ele>
      <time>2015-09-06T10:25:17Z</time>
    </trkpt>
    <trkpt lat="48.457276" lon="2.652486">
      <ele>132.0</ele>
      <time>2015-09-06T10:25:19Z</time>
    </trkpt>
    <trkpt lat="48.457368" lon="2.65257">
      <ele>132.0</ele>
      <time>2015-09-06T10:25:21Z</time>
    </trkpt>
    <trkpt lat="48.457477" lon="2.652623">
      <ele>132.0</ele>
      <time>2015-09-06T10:25:23Z</time>
    </trkpt>
    <trkpt lat="48.457568" lon="2.65271">
      <ele>132.0</ele>
      <time>2015-09-06T10:25:25Z</time>
    </trkpt>
    <trkpt lat="48.457615" lon="2.65287">
      <ele>131.863</ele>
      <time>2015-09-06T10:25:27Z</time>
    </trkpt>
    <trkpt lat="48.457718" lon="2.65305">
      <ele>131.231</ele>
      <time>2015-09-06T10:25:29Z</time>
    </trkpt>
    <trkpt lat="48.45781" lon="2.653185">
      <ele>131.0</ele>
      <time>2015-09-06T10:25:31Z</time>
    </trkpt>
    <trkpt lat="48.457891" lon="2.653283">
      <ele>131.0</ele>
      <time>2015-09-06T10:25:33Z</time>
    </trkpt>
    <trkpt lat="48.457986" lon="2.653326">
      <ele>131.0</ele>
      <time>2015-09-06T10:25:35Z</time>
    </trkpt>
    <trkpt lat="48.458109" lon="2.653357">
      <ele>131.0</ele>
      <time>2015-09-06T10:25:37Z</time>
    </trkpt>
    <trkpt lat="48.458313" lon="2.653341">
      <ele>131.0</ele>
      <time>2015-09-06T10:25:42Z</time>
    </trkpt>
    <trkpt lat="48.458409" lon="2.653307">
      <ele>130.905</ele>
      <time>2015-09-06T10:25:46Z</time>
    </trkpt>
    <trkpt lat="48.45852" lon="2.653287">
      <ele>130.833</ele>
      <time>2015-09-06T10:25:50Z</time>
    </trkpt>
    <trkpt lat="48.458632" lon="2.653282">
      <ele>130.665</ele>
      <time>2015-09-06T10:25:52Z</time>
    </trkpt>
    <trkpt lat="48.458729" lon="2.653278">
      <ele>129.952</ele>
      <time>2015-09-06T10:25:54Z</time>
    </trkpt>
    <trkpt lat="48.458869" lon="2.653248">
      <ele>128.836</ele>
      <time>2015-09-06T10:25:57Z</time>
    </trkpt>
    <trkpt lat="48.458975" lon="2.653279">
      <ele>128.744</ele>
      <time>2015-09-06T10:25:59Z</time>
    </trkpt>
    <trkpt lat="48.45907" lon="2.653295">
      <ele>128.772</ele>
      <time>2015-09-06T10:26:01Z</time>
    </trkpt>
    <trkpt lat="48.45922" lon="2.653327">
      <ele>128.95</ele>
      <time>2015-09-06T10:26:04Z</time>
    </trkpt>
    <trkpt lat="48.459306" lon="2.653442">
      <ele>129.391</ele>
      <time>2015-09-06T10:26:06Z</time>
    </trkpt>
    <trkpt lat="48.459416" lon="2.653537">
      <ele>129.733</ele>
      <time>2015-09-06T10:26:09Z</time>
    </trkpt>
    <trkpt lat="48.459508" lon="2.653644">
      <ele>129.89</ele>
      <time>2015-09-06T10:26:12Z</time>
    </trkpt>
    <trkpt lat="48.459596" lon="2.65375">
      <ele>129.954</ele>
      <time>2015-09-06T10:26:15Z</time>
    </trkpt>
    <trkpt lat="48.45963" lon="2.653891">
      <ele>130.335</ele>
      <time>2015-09-06T10:26:18Z</time>
    </trkpt>
    <trkpt lat="48.459675" lon="2.654014">
      <ele>130.247</ele>
      <time>2015-09-06T10:26:35Z</time>
    </trkpt>
    <trkpt lat="48.459696" lon="2.654211">
      <ele>130.333</ele>
      <time>2015-09-06T10:26:39Z</time>
    </trkpt>
    <trkpt lat="48.459681" lon="2.654515">
      <ele>130.932</ele>
      <time>2015-09-06T10:26:45Z</time>
    </trkpt>
    <trkpt lat="48.459659" lon="2.65465">
      <ele>130.656</ele>
      <time>2015-09-06T10:26:48Z</time>
    </trkpt>
    <trkpt lat="48.459623" lon="2.654785">
      <ele>130.795</ele>
      <time>2015-09-06T10:26:51Z</time>
    </trkpt>
    <trkpt lat="48.459583" lon="2.654939">
      <ele>131.394</ele>
      <time>2015-09-06T10:26:54Z</time>
    </trkpt>
    <trkpt lat="48.459542" lon="2.655095">
      <ele>131.706</ele>
      <time>2015-09-06T10:26:57Z</time>
    </trkpt>
    <trkpt lat="48.459477" lon="2.655262">
      <ele>132.427</ele>
      <time>2015-09-06T10:27:00Z</time>
    </trkpt>
    <trkpt lat="48.459414" lon="2.655407">
      <ele>132.121</ele>
      <time>2015-09-06T10:27:03Z</time>
    </trkpt>
    <trkpt lat="48.459395" lon="2.655566">
      <ele>131.072</ele>
      <time>2015-09-06T10:27:06Z</time>
    </trkpt>
    <trkpt lat="48.459384" lon="2.655703">
      <ele>129.741</ele>
      <time>2015-09-06T10:27:09Z</time>
    </trkpt>
    <trkpt lat="48.459376" lon="2.655879">
      <ele>128.04</ele>
      <time>2015-09-06T10:27:13Z</time>
    </trkpt>
    <trkpt lat="48.459346" lon="2.656016">
      <ele>126.969</ele>
      <time>2015-09-06T10:27:16Z</time>
    </trkpt>
    <trkpt lat="48.459288" lon="2.656144">
      <ele>126.483</ele>
      <time>2015-09-06T10:27:20Z</time>
    </trkpt>
    <trkpt lat="48.459239" lon="2.656305">
      <ele>126.492</ele>
      <time>2015-09-06T10:27:29Z</time>
    </trkpt>
    <trkpt lat="48.459179" lon="2.656433">
      <ele>127.675</ele>
      <time>2015-09-06T10:27:32Z</time>
    </trkpt>
    <trkpt lat="48.459127" lon="2.65657">
      <ele>128.428</ele>
      <time>2015-09-06T10:27:36Z</time>
    </trkpt>
    <trkpt lat="48.459076" lon="2.656696">
      <ele>128.871</ele>
      <time>2015-09-06T10:27:40Z</time>
    </trkpt>
    <trkpt lat="48.458935" lon="2.656866">
      <ele>130.862</ele>
      <time>2015-09-06T10:27:50Z</time>
    </trkpt>
    <trkpt lat="48.45886" lon="2.656963">
      <ele>131.873</ele>
      <time>2015-09-06T10:27:55Z</time>
    </trkpt>
    <trkpt lat="48.458807" lon="2.657104">
      <ele>131.021</ele>
      <time>2015-09-06T10:28:01Z</time>
    </trkpt>
    <trkpt lat="48.45878" lon="2.657259">
      <ele>129.966</ele>
      <time>2015-09-06T10:28:04Z</time>
    </trkpt>
    <trkpt lat="48.458747" lon="2.657395">
      <ele>128.658</ele>
      <time>2015-09-06T10:28:08Z</time>
    </trkpt>
    <trkpt lat="48.45873" lon="2.657548">
      <ele>127.124</ele>
      <time>2015-09-06T10:28:12Z</time>
    </trkpt>
    <trkpt lat="48.458685" lon="2.657715">
      <ele>125.674</ele>
      <time>2015-09-06T10:28:15Z</time>
    </trkpt>
    <trkpt lat="48.458623" lon="2.657819">
      <ele>125.513</ele>
      <time>2015-09-06T10:28:17Z</time>
    </trkpt>
    <trkpt lat="48.458546" lon="2.657949">
      <ele>125.236</ele>
      <time>2015-09-06T10:28:19Z</time>
    </trkpt>
    <trkpt lat="48.45845" lon="2.65805">
      <ele>125.2</ele>
      <time>2015-09-06T10:28:22Z</time>
    </trkpt>
    <trkpt lat="48.458338" lon="2.658012">
      <ele>126.28</ele>
      <time>2015-09-06T10:28:25Z</time>
    </trkpt>
    <trkpt lat="48.458246" lon="2.65802">
      <ele>126.57</ele>
      <time>2015-09-06T10:28:27Z</time>
    </trkpt>
    <trkpt lat="48.458145" lon="2.657944">
      <ele>127.481</ele>
      <time>2015-09-06T10:28:30Z</time>
    </trkpt>
    <trkpt lat="48.458068" lon="2.657846">
      <ele>128.464</ele>
      <time>2015-09-06T10:28:36Z</time>
    </trkpt>
    <trkpt lat="48.457977" lon="2.657881">
      <ele>128.079</ele>
      <time>2015-09-06T10:28:42Z</time>
    </trkpt>
    <trkpt lat="48.457776" lon="2.657923">
      <ele>127.481</ele>
      <time>2015-09-06T10:28:48Z</time>
    </trkpt>
    <trkpt lat="48.457687" lon="2.657882">
      <ele>127.747</ele>
      <time>2015-09-06T10:28:51Z</time>
    </trkpt>
    <trkpt lat="48.457587" lon="2.657885">
      <ele>127.879</ele>
      <time>2015-09-06T10:28:55Z</time>
    </trkpt>
    <trkpt lat="48.457649" lon="2.658062">
      <ele>127.428</ele>
      <time>2015-09-06T10:29:00Z</time>
    </trkpt>
    <trkpt lat="48.457751" lon="2.658091">
      <ele>126.854</ele>
      <time>2015-09-06T10:29:02Z</time>
    </trkpt>
    <trkpt lat="48.457851" lon="2.6581">
      <ele>126.638</ele>
      <time>2015-09-06T10:29:04Z</time>
    </trkpt>
    <trkpt lat="48.457962" lon="2.658145">
      <ele>126.142</ele>
      <time>2015-09-06T10:29:06Z</time>
    </trkpt>
    <trkpt lat="48.458062" lon="2.658368">
      <ele>123.501</ele>
      <time>2015-09-06T10:29:09Z</time>
    </trkpt>
    <trkpt lat="48.458127" lon="2.658561">
      <ele>120.722</ele>
      <time>2015-09-06T10:29:11Z</time>
    </trkpt>
    <trkpt lat="48.458201" lon="2.65875">
      <ele>118.238</ele>
      <time>2015-09-06T10:29:13Z</time>
    </trkpt>
    <trkpt lat="48.458297" lon="2.658908">
      <ele>115.933</ele>
      <time>2015-09-06T10:29:15Z</time>
    </trkpt>
    <trkpt lat="48.458414" lon="2.65906">
      <ele>112.812</ele>
      <time>2015-09-06T10:29:17Z</time>
    </trkpt>
    <trkpt lat="48.458554" lon="2.659284">
      <ele>108.01</ele>
      <time>2015-09-06T10:29:20Z</time>
    </trkpt>
    <trkpt lat="48.458573" lon="2.659439">
      <ele>106.456</ele>
      <time>2015-09-06T10:29:23Z</time>
    </trkpt>
    <trkpt lat="48.458581" lon="2.659639">
      <ele>104.924</ele>
      <time>2015-09-06T10:29:25Z</time>
    </trkpt>
    <trkpt lat="48.458583" lon="2.659918">
      <ele>103.527</ele>
      <time>2015-09-06T10:29:28Z</time>
    </trkpt>
    <trkpt lat="48.458581" lon="2.660092">
      <ele>102.554</ele>
      <time>2015-09-06T10:29:30Z</time>
    </trkpt>
    <trkpt lat="48.458636" lon="2.660382">
      <ele>100.446</ele>
      <time>2015-09-06T10:29:33Z</time>
    </trkpt>
    <trkpt lat="48.45866" lon="2.660623">
      <ele>99.691</ele>
      <time>2015-09-06T10:29:36Z</time>
    </trkpt>
    <trkpt lat="48.458782" lon="2.660714">
      <ele>99.121</ele>
      <time>2015-09-06T10:29:38Z</time>
    </trkpt>
    <trkpt lat="48.458878" lon="2.660749">
      <ele>98.748</ele>
      <time>2015-09-06T10:29:40Z</time>
    </trkpt>
    <trkpt lat="48.45899" lon="2.660835">
      <ele>99.008</ele>
      <time>2015-09-06T10:29:42Z</time>
    </trkpt>
    <trkpt lat="48.459082" lon="2.660901">
      <ele>99.413</ele>
      <time>2015-09-06T10:29:44Z</time>
    </trkpt>
    <trkpt lat="48.459309" lon="2.66105">
      <ele>100.16</ele>
      <time>2015-09-06T10:29:50Z</time>
    </trkpt>
    <trkpt lat="48.459419" lon="2.661123">
      <ele>100.096</ele>
      <time>2015-09-06T10:29:53Z</time>
    </trkpt>
    <trkpt lat="48.459502" lon="2.661205">
      <ele>100.0</ele>
      <time>2015-09-06T10:29:55Z</time>
    </trkpt>
    <trkpt lat="48.459615" lon="2.661272">
      <ele>100.0</ele>
      <time>2015-09-06T10:29:56Z</time>
    </trkpt>
    <trkpt lat="48.45974" lon="2.661342">
      <ele>100.139</ele>
      <time>2015-09-06T10:29:59Z</time>
    </trkpt>
    <trkpt lat="48.459837" lon="2.661358">
      <ele>100.872</ele>
      <time>2015-09-06T10:30:02Z</time>
    </trkpt>
    <trkpt lat="48.459963" lon="2.661316">
      <ele>101.961</ele>
      <time>2015-09-06T10:30:05Z</time>
    </trkpt>
    <trkpt lat="48.460063" lon="2.661259">
      <ele>103.042</ele>
      <time>2015-09-06T10:30:08Z</time>
    </trkpt>
    <trkpt lat="48.460177" lon="2.66122">
      <ele>104.132</ele>
      <time>2015-09-06T10:30:10Z</time>
    </trkpt>
    <trkpt lat="48.460268" lon="2.661186">
      <ele>104.92</ele>
      <time>2015-09-06T10:30:12Z</time>
    </trkpt>
    <trkpt lat="48.460382" lon="2.661124">
      <ele>105.375</ele>
      <time>2015-09-06T10:30:15Z</time>
    </trkpt>
    <trkpt lat="48.460483" lon="2.66103">
      <ele>105.739</ele>
      <time>2015-09-06T10:30:18Z</time>
    </trkpt>
    <trkpt lat="48.46054" lon="2.660891">
      <ele>105.944</ele>
      <time>2015-09-06T10:30:20Z</time>
    </trkpt>
    <trkpt lat="48.460629" lon="2.660786">
      <ele>106.045</ele>
      <time>2015-09-06T10:30:23Z</time>
    </trkpt>
    <trkpt lat="48.46074" lon="2.660672">
      <ele>106.386</ele>
      <time>2015-09-06T10:30:26Z</time>
    </trkpt>
    <trkpt lat="48.460832" lon="2.660551">
      <ele>106.995</ele>
      <time>2015-09-06T10:30:29Z</time>
    </trkpt>
    <trkpt lat="48.460922" lon="2.660476">
      <ele>106.681</ele>
      <time>2015-09-06T10:30:32Z</time>
    </trkpt>
    <trkpt lat="48.461025" lon="2.66049">
      <ele>106.31</ele>
      <time>2015-09-06T10:30:37Z</time>
    </trkpt>
    <trkpt lat="48.461131" lon="2.660441">
      <ele>105.785</ele>
      <time>2015-09-06T10:30:42Z</time>
    </trkpt>
    <trkpt lat="48.461229" lon="2.660435">
      <ele>104.727</ele>
      <time>2015-09-06T10:30:44Z</time>
    </trkpt>
    <trkpt lat="48.461454" lon="2.660459">
      <ele>102.297</ele>
      <time>2015-09-06T10:30:48Z</time>
    </trkpt>
    <trkpt lat="48.461555" lon="2.660446">
      <ele>101.206</ele>
      <time>2015-09-06T10:30:50Z</time>
    </trkpt>
    <trkpt lat="48.461647" lon="2.660429">
      <ele>100.212</ele>
      <time>2015-09-06T10:30:52Z</time>
    </trkpt>
    <trkpt lat="48.461743" lon="2.66041">
      <ele>99.725</ele>
      <time>2015-09-06T10:30:54Z</time>
    </trkpt>
    <trkpt lat="48.46184" lon="2.660389">
      <ele>99.376</ele>
      <time>2015-09-06T10:30:56Z</time>
    </trkpt>
    <trkpt lat="48.462022" lon="2.660335">
      <ele>99.222</ele>
      <time>2015-09-06T10:30:59Z</time>
    </trkpt>
    <trkpt lat="48.462153" lon="2.660304">
      <ele>99.68</ele>
      <time>2015-09-06T10:31:02Z</time>
    </trkpt>
    <trkpt lat="48.462235" lon="2.6602">
      <ele>99.746</ele>
      <time>2015-09-06T10:31:03Z</time>
    </trkpt>
    <trkpt lat="48.462361" lon="2.660112">
      <ele>100.0</ele>
      <time>2015-09-06T10:31:05Z</time>
    </trkpt>
    <trkpt lat="48.46246" lon="2.660052">
      <ele>100.579</ele>
      <time>2015-09-06T10:31:07Z</time>
    </trkpt>
    <trkpt lat="48.462552" lon="2.660013">
      <ele>101.149</ele>
      <time>2015-09-06T10:31:09Z</time>
    </trkpt>
    <trkpt lat="48.462664" lon="2.659919">
      <ele>101.471</ele>
      <time>2015-09-06T10:31:12Z</time>
    </trkpt>
    <trkpt lat="48.462776" lon="2.659792">
      <ele>101.989</ele>
      <time>2015-09-06T10:31:15Z</time>
    </trkpt>
    <trkpt lat="48.462853" lon="2.659717">
      <ele>102.252</ele>
      <time>2015-09-06T10:31:17Z</time>
    </trkpt>
    <trkpt lat="48.462957" lon="2.659643">
      <ele>102.36</ele>
      <time>2015-09-06T10:31:19Z</time>
    </trkpt>
    <trkpt lat="48.463058" lon="2.659596">
      <ele>102.545</ele>
      <time>2015-09-06T10:31:23Z</time>
    </trkpt>
    <trkpt lat="48.463162" lon="2.65951">
      <ele>102.438</ele>
      <time>2015-09-06T10:31:25Z</time>
    </trkpt>
    <trkpt lat="48.463253" lon="2.659436">
      <ele>102.702</ele>
      <time>2015-09-06T10:31:27Z</time>
    </trkpt>
    <trkpt lat="48.463361" lon="2.659346">
      <ele>102.9</ele>
      <time>2015-09-06T10:31:29Z</time>
    </trkpt>
    <trkpt lat="48.463479" lon="2.659253">
      <ele>102.476</ele>
      <time>2015-09-06T10:31:32Z</time>
    </trkpt>
    <trkpt lat="48.463568" lon="2.65918">
      <ele>102.155</ele>
      <time>2015-09-06T10:31:34Z</time>
    </trkpt>
    <trkpt lat="48.463699" lon="2.659079">
      <ele>102.0</ele>
      <time>2015-09-06T10:31:36Z</time>
    </trkpt>
    <trkpt lat="48.463812" lon="2.659024">
      <ele>102.0</ele>
      <time>2015-09-06T10:31:39Z</time>
    </trkpt>
    <trkpt lat="48.463901" lon="2.65896">
      <ele>102.0</ele>
      <time>2015-09-06T10:31:41Z</time>
    </trkpt>
    <trkpt lat="48.463993" lon="2.658884">
      <ele>101.993</ele>
      <time>2015-09-06T10:31:43Z</time>
    </trkpt>
    <trkpt lat="48.464063" lon="2.658795">
      <ele>101.788</ele>
      <time>2015-09-06T10:31:45Z</time>
    </trkpt>
    <trkpt lat="48.464258" lon="2.65863">
      <ele>100.717</ele>
      <time>2015-09-06T10:31:49Z</time>
    </trkpt>
    <trkpt lat="48.464393" lon="2.65851">
      <ele>100.185</ele>
      <time>2015-09-06T10:31:52Z</time>
    </trkpt>
    <trkpt lat="48.46449" lon="2.65844">
      <ele>99.937</ele>
      <time>2015-09-06T10:31:53Z</time>
    </trkpt>
    <trkpt lat="48.464618" lon="2.658386">
      <ele>99.882</ele>
      <time>2015-09-06T10:31:55Z</time>
    </trkpt>
    <trkpt lat="48.464725" lon="2.65839">
      <ele>99.806</ele>
      <time>2015-09-06T10:31:57Z</time>
    </trkpt>
    <trkpt lat="48.464874" lon="2.658411">
      <ele>100.267</ele>
      <time>2015-09-06T10:32:00Z</time>
    </trkpt>
    <trkpt lat="48.464978" lon="2.658386">
      <ele>100.731</ele>
      <time>2015-09-06T10:32:02Z</time>
    </trkpt>
    <trkpt lat="48.465113" lon="2.658338">
      <ele>100.99</ele>
      <time>2015-09-06T10:32:05Z</time>
    </trkpt>
    <trkpt lat="48.465229" lon="2.658308">
      <ele>101.0</ele>
      <time>2015-09-06T10:32:08Z</time>
    </trkpt>
    <trkpt lat="48.465323" lon="2.658252">
      <ele>100.837</ele>
      <time>2015-09-06T10:32:10Z</time>
    </trkpt>
    <trkpt lat="48.46542" lon="2.658277">
      <ele>100.488</ele>
      <time>2015-09-06T10:32:12Z</time>
    </trkpt>
    <trkpt lat="48.465539" lon="2.658384">
      <ele>100.06</ele>
      <time>2015-09-06T10:32:14Z</time>
    </trkpt>
    <trkpt lat="48.465627" lon="2.658441">
      <ele>99.486</ele>
      <time>2015-09-06T10:32:16Z</time>
    </trkpt>
    <trkpt lat="48.46576" lon="2.658372">
      <ele>98.528</ele>
      <time>2015-09-06T10:32:19Z</time>
    </trkpt>
    <trkpt lat="48.465857" lon="2.658325">
      <ele>97.915</ele>
      <time>2015-09-06T10:32:21Z</time>
    </trkpt>
    <trkpt lat="48.466006" lon="2.658208">
      <ele>97.378</ele>
      <time>2015-09-06T10:32:24Z</time>
    </trkpt>
    <trkpt lat="48.46611" lon="2.658185">
      <ele>97.004</ele>
      <time>2015-09-06T10:32:26Z</time>
    </trkpt>
    <trkpt lat="48.466244" lon="2.658228">
      <ele>97.0</ele>
      <time>2015-09-06T10:32:28Z</time>
    </trkpt>
    <trkpt lat="48.46636" lon="2.658267">
      <ele>97.0</ele>
      <time>2015-09-06T10:32:30Z</time>
    </trkpt>
    <trkpt lat="48.466526" lon="2.65823">
      <ele>97.184</ele>
      <time>2015-09-06T10:32:34Z</time>
    </trkpt>
    <trkpt lat="48.466646" lon="2.65831">
      <ele>97.078</ele>
      <time>2015-09-06T10:32:37Z</time>
    </trkpt>
    <trkpt lat="48.466786" lon="2.658277">
      <ele>97.975</ele>
      <time>2015-09-06T10:32:39Z</time>
    </trkpt>
    <trkpt lat="48.466888" lon="2.658288">
      <ele>98.627</ele>
      <time>2015-09-06T10:32:42Z</time>
    </trkpt>
    <trkpt lat="48.467035" lon="2.658344">
      <ele>98.648</ele>
      <time>2015-09-06T10:32:45Z</time>
    </trkpt>
    <trkpt lat="48.467189" lon="2.658284">
      <ele>98.12</ele>
      <time>2015-09-06T10:32:48Z</time>
    </trkpt>
    <trkpt lat="48.467432" lon="2.658303">
      <ele>95.817</ele>
      <time>2015-09-06T10:32:53Z</time>
    </trkpt>
    <trkpt lat="48.467595" lon="2.658334">
      <ele>94.658</ele>
      <time>2015-09-06T10:32:56Z</time>
    </trkpt>
    <trkpt lat="48.467693" lon="2.65834">
      <ele>94.305</ele>
      <time>2015-09-06T10:32:58Z</time>
    </trkpt>
    <trkpt lat="48.46783" lon="2.65832">
      <ele>94.0</ele>
      <time>2015-09-06T10:33:01Z</time>
    </trkpt>
    <trkpt lat="48.467942" lon="2.658321">
      <ele>94.0</ele>
      <time>2015-09-06T10:33:02Z</time>
    </trkpt>
    <trkpt lat="48.468064" lon="2.658388">
      <ele>94.0</ele>
      <time>2015-09-06T10:33:04Z</time>
    </trkpt>
    <trkpt lat="48.468197" lon="2.658447">
      <ele>94.0</ele>
      <time>2015-09-06T10:33:06Z</time>
    </trkpt>
    <trkpt lat="48.468363" lon="2.658444">
      <ele>94.043</ele>
      <time>2015-09-06T10:33:10Z</time>
    </trkpt>
    <trkpt lat="48.468458" lon="2.658465">
      <ele>94.213</ele>
      <time>2015-09-06T10:33:12Z</time>
    </trkpt>
    <trkpt lat="48.468562" lon="2.658487">
      <ele>94.455</ele>
      <time>2015-09-06T10:33:15Z</time>
    </trkpt>
    <trkpt lat="48.468717" lon="2.658544">
      <ele>94.561</ele>
      <time>2015-09-06T10:33:18Z</time>
    </trkpt>
    <trkpt lat="48.468856" lon="2.658578">
      <ele>94.209</ele>
      <time>2015-09-06T10:33:20Z</time>
    </trkpt>
    <trkpt lat="48.468981" lon="2.658581">
      <ele>93.777</ele>
      <time>2015-09-06T10:33:22Z</time>
    </trkpt>
    <trkpt lat="48.469073" lon="2.658565">
      <ele>93.503</ele>
      <time>2015-09-06T10:33:26Z</time>
    </trkpt>
    <trkpt lat="48.469202" lon="2.658565">
      <ele>92.89</ele>
      <time>2015-09-06T10:33:28Z</time>
    </trkpt>
    <trkpt lat="48.469313" lon="2.658552">
      <ele>92.047</ele>
      <time>2015-09-06T10:33:30Z</time>
    </trkpt>
    <trkpt lat="48.469431" lon="2.658592">
      <ele>91.1</ele>
      <time>2015-09-06T10:33:32Z</time>
    </trkpt>
    <trkpt lat="48.46955" lon="2.658635">
      <ele>90.273</ele>
      <time>2015-09-06T10:33:34Z</time>
    </trkpt>
    <trkpt lat="48.469663" lon="2.658664">
      <ele>89.576</ele>
      <time>2015-09-06T10:33:36Z</time>
    </trkpt>
    <trkpt lat="48.469788" lon="2.65867">
      <ele>89.449</ele>
      <time>2015-09-06T10:33:39Z</time>
    </trkpt>
    <trkpt lat="48.469884" lon="2.658663">
      <ele>89.769</ele>
      <time>2015-09-06T10:33:41Z</time>
    </trkpt>
    <trkpt lat="48.47003" lon="2.658709">
      <ele>90.422</ele>
      <time>2015-09-06T10:33:44Z</time>
    </trkpt>
    <trkpt lat="48.470161" lon="2.658704">
      <ele>90.72</ele>
      <time>2015-09-06T10:33:47Z</time>
    </trkpt>
    <trkpt lat="48.470296" lon="2.658706">
      <ele>90.914</ele>
      <time>2015-09-06T10:33:50Z</time>
    </trkpt>
    <trkpt lat="48.470546" lon="2.658738">
      <ele>89.951</ele>
      <time>2015-09-06T10:33:53Z</time>
    </trkpt>
    <trkpt lat="48.470643" lon="2.658695">
      <ele>88.755</ele>
      <time>2015-09-06T10:33:57Z</time>
    </trkpt>
    <trkpt lat="48.470748" lon="2.658698">
      <ele>87.764</ele>
      <time>2015-09-06T10:33:59Z</time>
    </trkpt>
    <trkpt lat="48.470846" lon="2.658698">
      <ele>86.802</ele>
      <time>2015-09-06T10:34:01Z</time>
    </trkpt>
    <trkpt lat="48.47097" lon="2.658766">
      <ele>86.197</ele>
      <time>2015-09-06T10:34:03Z</time>
    </trkpt>
    <trkpt lat="48.471166" lon="2.658741">
      <ele>84.02</ele>
      <time>2015-09-06T10:34:06Z</time>
    </trkpt>
    <trkpt lat="48.471254" lon="2.658684">
      <ele>83.003</ele>
      <time>2015-09-06T10:34:09Z</time>
    </trkpt>
    <trkpt lat="48.471355" lon="2.658648">
      <ele>82.287</ele>
      <time>2015-09-06T10:34:12Z</time>
    </trkpt>
    <trkpt lat="48.471464" lon="2.658576">
      <ele>81.637</ele>
      <time>2015-09-06T10:34:15Z</time>
    </trkpt>
    <trkpt lat="48.471543" lon="2.658507">
      <ele>81.278</ele>
      <time>2015-09-06T10:34:17Z</time>
    </trkpt>
    <trkpt lat="48.471634" lon="2.658427">
      <ele>81.04</ele>
      <time>2015-09-06T10:34:19Z</time>
    </trkpt>
    <trkpt lat="48.471731" lon="2.658315">
      <ele>81.514</ele>
      <time>2015-09-06T10:34:22Z</time>
    </trkpt>
    <trkpt lat="48.47182" lon="2.658233">
      <ele>82.266</ele>
      <time>2015-09-06T10:34:24Z</time>
    </trkpt>
    <trkpt lat="48.471915" lon="2.658118">
      <ele>82.87</ele>
      <time>2015-09-06T10:34:27Z</time>
    </trkpt>
    <trkpt lat="48.472" lon="2.658011">
      <ele>83.2</ele>
      <time>2015-09-06T10:34:30Z</time>
    </trkpt>
    <trkpt lat="48.472132" lon="2.657893">
      <ele>83.675</ele>
      <time>2015-09-06T10:34:33Z</time>
    </trkpt>
    <trkpt lat="48.472249" lon="2.657816">
      <ele>84.0</ele>
      <time>2015-09-06T10:34:36Z</time>
    </trkpt>
    <trkpt lat="48.472322" lon="2.65772">
      <ele>83.792</ele>
      <time>2015-09-06T10:34:39Z</time>
    </trkpt>
    <trkpt lat="48.47241" lon="2.657637">
      <ele>83.493</ele>
      <time>2015-09-06T10:34:41Z</time>
    </trkpt>
    <trkpt lat="48.472549" lon="2.657531">
      <ele>83.112</ele>
      <time>2015-09-06T10:34:44Z</time>
    </trkpt>
    <trkpt lat="48.472635" lon="2.657407">
      <ele>83.0</ele>
      <time>2015-09-06T10:34:47Z</time>
    </trkpt>
    <trkpt lat="48.472744" lon="2.657338">
      <ele>83.0</ele>
      <time>2015-09-06T10:34:50Z</time>
    </trkpt>
    <trkpt lat="48.472967" lon="2.657158">
      <ele>82.926</ele>
      <time>2015-09-06T10:34:56Z</time>
    </trkpt>
    <trkpt lat="48.4731" lon="2.657037">
      <ele>83.16</ele>
      <time>2015-09-06T10:34:59Z</time>
    </trkpt>
    <trkpt lat="48.473234" lon="2.656932">
      <ele>83.614</ele>
      <time>2015-09-06T10:35:02Z</time>
    </trkpt>
    <trkpt lat="48.473341" lon="2.656845">
      <ele>83.697</ele>
      <time>2015-09-06T10:35:04Z</time>
    </trkpt>
    <trkpt lat="48.473426" lon="2.656785">
      <ele>84.093</ele>
      <time>2015-09-06T10:35:06Z</time>
    </trkpt>
    <trkpt lat="48.473546" lon="2.656774">
      <ele>84.918</ele>
      <time>2015-09-06T10:35:08Z</time>
    </trkpt>
    <trkpt lat="48.473649" lon="2.65671">
      <ele>85.544</ele>
      <time>2015-09-06T10:35:10Z</time>
    </trkpt>
    <trkpt lat="48.473755" lon="2.656645">
      <ele>86.554</ele>
      <time>2015-09-06T10:35:13Z</time>
    </trkpt>
    <trkpt lat="48.473829" lon="2.656526">
      <ele>87.353</ele>
      <time>2015-09-06T10:35:15Z</time>
    </trkpt>
    <trkpt lat="48.473926" lon="2.656447">
      <ele>88.267</ele>
      <time>2015-09-06T10:35:17Z</time>
    </trkpt>
    <trkpt lat="48.474022" lon="2.656357">
      <ele>89.013</ele>
      <time>2015-09-06T10:35:19Z</time>
    </trkpt>
    <trkpt lat="48.474105" lon="2.656302">
      <ele>89.799</ele>
      <time>2015-09-06T10:35:21Z</time>
    </trkpt>
    <trkpt lat="48.474221" lon="2.656245">
      <ele>90.612</ele>
      <time>2015-09-06T10:35:26Z</time>
    </trkpt>
    <trkpt lat="48.474333" lon="2.656157">
      <ele>90.934</ele>
      <time>2015-09-06T10:35:29Z</time>
    </trkpt>
    <trkpt lat="48.474455" lon="2.656057">
      <ele>90.993</ele>
      <time>2015-09-06T10:35:31Z</time>
    </trkpt>
    <trkpt lat="48.474545" lon="2.655984">
      <ele>90.834</ele>
      <time>2015-09-06T10:35:33Z</time>
    </trkpt>
    <trkpt lat="48.474628" lon="2.655922">
      <ele>90.55</ele>
      <time>2015-09-06T10:35:35Z</time>
    </trkpt>
    <trkpt lat="48.474704" lon="2.655849">
      <ele>90.118</ele>
      <time>2015-09-06T10:35:37Z</time>
    </trkpt>
    <trkpt lat="48.474809" lon="2.655749">
      <ele>90.0</ele>
      <time>2015-09-06T10:35:39Z</time>
    </trkpt>
    <trkpt lat="48.474963" lon="2.6556">
      <ele>90.0</ele>
      <time>2015-09-06T10:35:42Z</time>
    </trkpt>
    <trkpt lat="48.475048" lon="2.655521">
      <ele>90.324</ele>
      <time>2015-09-06T10:35:44Z</time>
    </trkpt>
    <trkpt lat="48.475161" lon="2.655417">
      <ele>90.87</ele>
      <time>2015-09-06T10:35:46Z</time>
    </trkpt>
    <trkpt lat="48.475276" lon="2.655313">
      <ele>91.12</ele>
      <time>2015-09-06T10:35:49Z</time>
    </trkpt>
    <trkpt lat="48.475443" lon="2.655198">
      <ele>91.732</ele>
      <time>2015-09-06T10:35:52Z</time>
    </trkpt>
    <trkpt lat="48.475624" lon="2.654997">
      <ele>91.227</ele>
      <time>2015-09-06T10:35:56Z</time>
    </trkpt>
    <trkpt lat="48.475723" lon="2.654901">
      <ele>91.105</ele>
      <time>2015-09-06T10:35:58Z</time>
    </trkpt>
    <trkpt lat="48.475858" lon="2.654758">
      <ele>91.117</ele>
      <time>2015-09-06T10:36:01Z</time>
    </trkpt>
    <trkpt lat="48.475999" lon="2.654658">
      <ele>90.907</ele>
      <time>2015-09-06T10:36:04Z</time>
    </trkpt>
    <trkpt lat="48.476073" lon="2.654572">
      <ele>90.926</ele>
      <time>2015-09-06T10:36:06Z</time>
    </trkpt>
    <trkpt lat="48.476214" lon="2.654449">
      <ele>91.37</ele>
      <time>2015-09-06T10:36:09Z</time>
    </trkpt>
    <trkpt lat="48.476371" lon="2.654333">
      <ele>91.534</ele>
      <time>2015-09-06T10:36:12Z</time>
    </trkpt>
    <trkpt lat="48.476483" lon="2.65424">
      <ele>91.264</ele>
      <time>2015-09-06T10:36:14Z</time>
    </trkpt>
    <trkpt lat="48.476599" lon="2.654122">
      <ele>90.8</ele>
      <time>2015-09-06T10:36:17Z</time>
    </trkpt>
    <trkpt lat="48.476683" lon="2.654049">
      <ele>90.635</ele>
      <time>2015-09-06T10:36:19Z</time>
    </trkpt>
    <trkpt lat="48.476775" lon="2.653986">
      <ele>90.74</ele>
      <time>2015-09-06T10:36:21Z</time>
    </trkpt>
    <trkpt lat="48.476886" lon="2.653882">
      <ele>90.779</ele>
      <time>2015-09-06T10:36:24Z</time>
    </trkpt>
    <trkpt lat="48.476981" lon="2.65378">
      <ele>91.263</ele>
      <time>2015-09-06T10:36:26Z</time>
    </trkpt>
    <trkpt lat="48.477107" lon="2.653677">
      <ele>92.17</ele>
      <time>2015-09-06T10:36:29Z</time>
    </trkpt>
    <trkpt lat="48.477229" lon="2.653566">
      <ele>92.866</ele>
      <time>2015-09-06T10:36:33Z</time>
    </trkpt>
    <trkpt lat="48.477304" lon="2.653484">
      <ele>92.972</ele>
      <time>2015-09-06T10:36:35Z</time>
    </trkpt>
    <trkpt lat="48.477418" lon="2.653393">
      <ele>93.473</ele>
      <time>2015-09-06T10:36:37Z</time>
    </trkpt>
    <trkpt lat="48.477531" lon="2.653335">
      <ele>94.0</ele>
      <time>2015-09-06T10:36:39Z</time>
    </trkpt>
    <trkpt lat="48.477688" lon="2.653222">
      <ele>93.87</ele>
      <time>2015-09-06T10:36:42Z</time>
    </trkpt>
    <trkpt lat="48.477775" lon="2.653142">
      <ele>93.993</ele>
      <time>2015-09-06T10:36:44Z</time>
    </trkpt>
    <trkpt lat="48.477876" lon="2.653087">
      <ele>94.0</ele>
      <time>2015-09-06T10:36:46Z</time>
    </trkpt>
    <trkpt lat="48.477953" lon="2.653015">
      <ele>93.854</ele>
      <time>2015-09-06T10:36:48Z</time>
    </trkpt>
    <trkpt lat="48.478095" lon="2.652891">
      <ele>93.323</ele>
      <time>2015-09-06T10:36:52Z</time>
    </trkpt>
    <trkpt lat="48.478304" lon="2.652682">
      <ele>91.452</ele>
      <time>2015-09-06T10:36:58Z</time>
    </trkpt>
    <trkpt lat="48.4784" lon="2.652607">
      <ele>90.678</ele>
      <time>2015-09-06T10:37:00Z</time>
    </trkpt>
    <trkpt lat="48.478502" lon="2.652519">
      <ele>90.095</ele>
      <time>2015-09-06T10:37:03Z</time>
    </trkpt>
    <trkpt lat="48.478584" lon="2.652416">
      <ele>89.727</ele>
      <time>2015-09-06T10:37:06Z</time>
    </trkpt>
    <trkpt lat="48.478678" lon="2.652321">
      <ele>89.27</ele>
      <time>2015-09-06T10:37:09Z</time>
    </trkpt>
    <trkpt lat="48.478778" lon="2.652283">
      <ele>89.087</ele>
      <time>2015-09-06T10:37:13Z</time>
    </trkpt>
    <trkpt lat="48.478892" lon="2.652236">
      <ele>89.011</ele>
      <time>2015-09-06T10:37:18Z</time>
    </trkpt>
    <trkpt lat="48.479017" lon="2.652158">
      <ele>89.461</ele>
      <time>2015-09-06T10:37:22Z</time>
    </trkpt>
    <trkpt lat="48.479113" lon="2.652122">
      <ele>89.807</ele>
      <time>2015-09-06T10:37:25Z</time>
    </trkpt>
    <trkpt lat="48.479171" lon="2.652008">
      <ele>90.043</ele>
      <time>2015-09-06T10:37:30Z</time>
    </trkpt>
    <trkpt lat="48.479257" lon="2.651962">
      <ele>90.955</ele>
      <time>2015-09-06T10:37:33Z</time>
    </trkpt>
    <trkpt lat="48.479365" lon="2.65185">
      <ele>92.239</ele>
      <time>2015-09-06T10:37:37Z</time>
    </trkpt>
    <trkpt lat="48.47944" lon="2.65177">
      <ele>92.962</ele>
      <time>2015-09-06T10:37:40Z</time>
    </trkpt>
    <trkpt lat="48.479563" lon="2.651691">
      <ele>93.427</ele>
      <time>2015-09-06T10:37:43Z</time>
    </trkpt>
    <trkpt lat="48.479683" lon="2.651552">
      <ele>94.272</ele>
      <time>2015-09-06T10:37:48Z</time>
    </trkpt>
    <trkpt lat="48.479768" lon="2.651472">
      <ele>94.585</ele>
      <time>2015-09-06T10:37:52Z</time>
    </trkpt>
    <trkpt lat="48.479882" lon="2.651418">
      <ele>94.38</ele>
      <time>2015-09-06T10:37:57Z</time>
    </trkpt>
    <trkpt lat="48.480062" lon="2.651264">
      <ele>93.9</ele>
      <time>2015-09-06T10:38:03Z</time>
    </trkpt>
    <trkpt lat="48.480169" lon="2.651169">
      <ele>93.518</ele>
      <time>2015-09-06T10:38:07Z</time>
    </trkpt>
    <trkpt lat="48.480252" lon="2.651096">
      <ele>93.093</ele>
      <time>2015-09-06T10:38:10Z</time>
    </trkpt>
    <trkpt lat="48.480338" lon="2.651004">
      <ele>93.217</ele>
      <time>2015-09-06T10:38:14Z</time>
    </trkpt>
    <trkpt lat="48.480428" lon="2.650901">
      <ele>93.541</ele>
      <time>2015-09-06T10:38:16Z</time>
    </trkpt>
    <trkpt lat="48.48053" lon="2.650799">
      <ele>93.908</ele>
      <time>2015-09-06T10:38:19Z</time>
    </trkpt>
    <trkpt lat="48.480629" lon="2.650706">
      <ele>94.264</ele>
      <time>2015-09-06T10:38:22Z</time>
    </trkpt>
    <trkpt lat="48.480707" lon="2.650639">
      <ele>94.545</ele>
      <time>2015-09-06T10:38:25Z</time>
    </trkpt>
    <trkpt lat="48.480799" lon="2.65056">
      <ele>94.876</ele>
      <time>2015-09-06T10:38:28Z</time>
    </trkpt>
    <trkpt lat="48.480904" lon="2.650485">
      <ele>95.444</ele>
      <time>2015-09-06T10:38:33Z</time>
    </trkpt>
    <trkpt lat="48.48103" lon="2.65038">
      <ele>95.969</ele>
      <time>2015-09-06T10:38:36Z</time>
    </trkpt>
    <trkpt lat="48.481143" lon="2.650287">
      <ele>96.263</ele>
      <time>2015-09-06T10:38:40Z</time>
    </trkpt>
    <trkpt lat="48.481222" lon="2.6502">
      <ele>96.798</ele>
      <time>2015-09-06T10:38:43Z</time>
    </trkpt>
    <trkpt lat="48.481337" lon="2.650131">
      <ele>97.626</ele>
      <time>2015-09-06T10:38:47Z</time>
    </trkpt>
    <trkpt lat="48.481457" lon="2.650065">
      <ele>98.49</ele>
      <time>2015-09-06T10:38:51Z</time>
    </trkpt>
    <trkpt lat="48.481567" lon="2.650003">
      <ele>99.282</ele>
      <time>2015-09-06T10:38:53Z</time>
    </trkpt>
    <trkpt lat="48.481674" lon="2.649908">
      <ele>100.375</ele>
      <time>2015-09-06T10:38:56Z</time>
    </trkpt>
    <trkpt lat="48.481755" lon="2.649832">
      <ele>101.048</ele>
      <time>2015-09-06T10:38:59Z</time>
    </trkpt>
    <trkpt lat="48.481961" lon="2.649692">
      <ele>102.222</ele>
      <time>2015-09-06T10:39:08Z</time>
    </trkpt>
    <trkpt lat="48.482036" lon="2.649605">
      <ele>102.942</ele>
      <time>2015-09-06T10:39:11Z</time>
    </trkpt>
    <trkpt lat="48.482133" lon="2.649506">
      <ele>103.608</ele>
      <time>2015-09-06T10:39:17Z</time>
    </trkpt>
    <trkpt lat="48.48227" lon="2.649444">
      <ele>104.171</ele>
      <time>2015-09-06T10:39:22Z</time>
    </trkpt>
    <trkpt lat="48.482357" lon="2.649325">
      <ele>104.264</ele>
      <time>2015-09-06T10:39:25Z</time>
    </trkpt>
    <trkpt lat="48.482454" lon="2.649216">
      <ele>104.698</ele>
      <time>2015-09-06T10:39:27Z</time>
    </trkpt>
    <trkpt lat="48.482522" lon="2.649111">
      <ele>105.079</ele>
      <time>2015-09-06T10:39:31Z</time>
    </trkpt>
    <trkpt lat="48.482595" lon="2.649026">
      <ele>105.342</ele>
      <time>2015-09-06T10:39:33Z</time>
    </trkpt>
    <trkpt lat="48.482686" lon="2.648955">
      <ele>105.67</ele>
      <time>2015-09-06T10:39:36Z</time>
    </trkpt>
    <trkpt lat="48.482808" lon="2.648832">
      <ele>105.978</ele>
      <time>2015-09-06T10:39:40Z</time>
    </trkpt>
    <trkpt lat="48.482939" lon="2.648728">
      <ele>105.664</ele>
      <time>2015-09-06T10:39:44Z</time>
    </trkpt>
    <trkpt lat="48.483039" lon="2.648632">
      <ele>105.13</ele>
      <time>2015-09-06T10:39:46Z</time>
    </trkpt>
    <trkpt lat="48.483155" lon="2.648516">
      <ele>103.348</ele>
      <time>2015-09-06T10:39:50Z</time>
    </trkpt>
    <trkpt lat="48.483244" lon="2.648427">
      <ele>102.073</ele>
      <time>2015-09-06T10:39:53Z</time>
    </trkpt>
    <trkpt lat="48.48341" lon="2.64832">
      <ele>100.137</ele>
      <time>2015-09-06T10:39:57Z</time>
    </trkpt>
    <trkpt lat="48.483503" lon="2.648242">
      <ele>99.04</ele>
      <time>2015-09-06T10:40:00Z</time>
    </trkpt>
    <trkpt lat="48.483681" lon="2.648078">
      <ele>97.769</ele>
      <time>2015-09-06T10:40:05Z</time>
    </trkpt>
    <trkpt lat="48.483858" lon="2.647953">
      <ele>97.111</ele>
      <time>2015-09-06T10:40:09Z</time>
    </trkpt>
    <trkpt lat="48.483945" lon="2.647893">
      <ele>96.882</ele>
      <time>2015-09-06T10:40:11Z</time>
    </trkpt>
    <trkpt lat="48.484066" lon="2.647803">
      <ele>96.42</ele>
      <time>2015-09-06T10:40:14Z</time>
    </trkpt>
    <trkpt lat="48.48415" lon="2.647738">
      <ele>96.195</ele>
      <time>2015-09-06T10:40:16Z</time>
    </trkpt>
    <trkpt lat="48.484243" lon="2.647659">
      <ele>96.585</ele>
      <time>2015-09-06T10:40:18Z</time>
    </trkpt>
    <trkpt lat="48.484351" lon="2.647552">
      <ele>96.937</ele>
      <time>2015-09-06T10:40:20Z</time>
    </trkpt>
    <trkpt lat="48.484428" lon="2.64748">
      <ele>97.004</ele>
      <time>2015-09-06T10:40:23Z</time>
    </trkpt>
    <trkpt lat="48.484577" lon="2.647377">
      <ele>97.0</ele>
      <time>2015-09-06T10:40:26Z</time>
    </trkpt>
    <trkpt lat="48.484679" lon="2.647308">
      <ele>97.0</ele>
      <time>2015-09-06T10:40:28Z</time>
    </trkpt>
    <trkpt lat="48.484776" lon="2.647221">
      <ele>97.004</ele>
      <time>2015-09-06T10:40:30Z</time>
    </trkpt>
    <trkpt lat="48.484878" lon="2.647143">
      <ele>97.285</ele>
      <time>2015-09-06T10:40:32Z</time>
    </trkpt>
    <trkpt lat="48.484972" lon="2.647073">
      <ele>97.537</ele>
      <time>2015-09-06T10:40:33Z</time>
    </trkpt>
    <trkpt lat="48.48506" lon="2.647002">
      <ele>98.009</ele>
      <time>2015-09-06T10:40:36Z</time>
    </trkpt>
    <trkpt lat="48.485234" lon="2.646815">
      <ele>99.382</ele>
      <time>2015-09-06T10:40:39Z</time>
    </trkpt>
    <trkpt lat="48.485351" lon="2.646718">
      <ele>99.6</ele>
      <time>2015-09-06T10:40:40Z</time>
    </trkpt>
    <trkpt lat="48.485457" lon="2.646613">
      <ele>99.355</ele>
      <time>2015-09-06T10:40:43Z</time>
    </trkpt>
    <trkpt lat="48.485573" lon="2.646523">
      <ele>98.749</ele>
      <time>2015-09-06T10:40:45Z</time>
    </trkpt>
    <trkpt lat="48.485686" lon="2.646448">
      <ele>97.122</ele>
      <time>2015-09-06T10:40:47Z</time>
    </trkpt>
    <trkpt lat="48.485808" lon="2.646354">
      <ele>95.479</ele>
      <time>2015-09-06T10:40:49Z</time>
    </trkpt>
    <trkpt lat="48.485918" lon="2.646258">
      <ele>94.574</ele>
      <time>2015-09-06T10:40:51Z</time>
    </trkpt>
    <trkpt lat="48.486102" lon="2.646098">
      <ele>92.131</ele>
      <time>2015-09-06T10:40:53Z</time>
    </trkpt>
    <trkpt lat="48.486247" lon="2.645958">
      <ele>91.511</ele>
      <time>2015-09-06T10:40:57Z</time>
    </trkpt>
    <trkpt lat="48.486336" lon="2.645873">
      <ele>91.19</ele>
      <time>2015-09-06T10:40:59Z</time>
    </trkpt>
    <trkpt lat="48.486434" lon="2.645794">
      <ele>91.0</ele>
      <time>2015-09-06T10:41:01Z</time>
    </trkpt>
    <trkpt lat="48.486642" lon="2.645638">
      <ele>91.0</ele>
      <time>2015-09-06T10:41:05Z</time>
    </trkpt>
    <trkpt lat="48.486728" lon="2.645575">
      <ele>91.205</ele>
      <time>2015-09-06T10:41:07Z</time>
    </trkpt>
    <trkpt lat="48.486837" lon="2.645504">
      <ele>91.799</ele>
      <time>2015-09-06T10:41:09Z</time>
    </trkpt>
    <trkpt lat="48.486925" lon="2.645396">
      <ele>92.504</ele>
      <time>2015-09-06T10:41:11Z</time>
    </trkpt>
    <trkpt lat="48.487058" lon="2.64527">
      <ele>93.437</ele>
      <time>2015-09-06T10:41:14Z</time>
    </trkpt>
    <trkpt lat="48.487228" lon="2.64509">
      <ele>94.697</ele>
      <time>2015-09-06T10:41:17Z</time>
    </trkpt>
    <trkpt lat="48.487331" lon="2.645001">
      <ele>95.388</ele>
      <time>2015-09-06T10:41:20Z</time>
    </trkpt>
    <trkpt lat="48.487406" lon="2.644911">
      <ele>95.662</ele>
      <time>2015-09-06T10:41:22Z</time>
    </trkpt>
    <trkpt lat="48.487512" lon="2.644797">
      <ele>95.988</ele>
      <time>2015-09-06T10:41:25Z</time>
    </trkpt>
    <trkpt lat="48.487634" lon="2.644709">
      <ele>96.0</ele>
      <time>2015-09-06T10:41:28Z</time>
    </trkpt>
    <trkpt lat="48.487735" lon="2.644632">
      <ele>96.0</ele>
      <time>2015-09-06T10:41:30Z</time>
    </trkpt>
    <trkpt lat="48.487847" lon="2.644526">
      <ele>95.927</ele>
      <time>2015-09-06T10:41:33Z</time>
    </trkpt>
    <trkpt lat="48.487957" lon="2.644439">
      <ele>96.032</ele>
      <time>2015-09-06T10:41:34Z</time>
    </trkpt>
    <trkpt lat="48.488074" lon="2.644326">
      <ele>96.786</ele>
      <time>2015-09-06T10:41:38Z</time>
    </trkpt>
    <trkpt lat="48.488162" lon="2.644257">
      <ele>96.966</ele>
      <time>2015-09-06T10:41:40Z</time>
    </trkpt>
    <trkpt lat="48.488286" lon="2.644155">
      <ele>97.212</ele>
      <time>2015-09-06T10:41:43Z</time>
    </trkpt>
    <trkpt lat="48.488373" lon="2.644059">
      <ele>97.245</ele>
      <time>2015-09-06T10:41:45Z</time>
    </trkpt>
    <trkpt lat="48.48846" lon="2.643961">
      <ele>97.284</ele>
      <time>2015-09-06T10:41:47Z</time>
    </trkpt>
    <trkpt lat="48.488561" lon="2.643912">
      <ele>97.097</ele>
      <time>2015-09-06T10:41:49Z</time>
    </trkpt>
    <trkpt lat="48.488676" lon="2.643847">
      <ele>96.802</ele>
      <time>2015-09-06T10:41:51Z</time>
    </trkpt>
    <trkpt lat="48.488797" lon="2.643794">
      <ele>96.559</ele>
      <time>2015-09-06T10:41:55Z</time>
    </trkpt>
    <trkpt lat="48.488927" lon="2.643754">
      <ele>96.693</ele>
      <time>2015-09-06T10:41:58Z</time>
    </trkpt>
    <trkpt lat="48.489103" lon="2.643638">
      <ele>97.749</ele>
      <time>2015-09-06T10:42:02Z</time>
    </trkpt>
    <trkpt lat="48.489356" lon="2.643567">
      <ele>99.471</ele>
      <time>2015-09-06T10:42:10Z</time>
    </trkpt>
    <trkpt lat="48.489451" lon="2.643526">
      <ele>100.346</ele>
      <time>2015-09-06T10:42:11Z</time>
    </trkpt>
    <trkpt lat="48.489577" lon="2.643477">
      <ele>101.207</ele>
      <time>2015-09-06T10:42:15Z</time>
    </trkpt>
    <trkpt lat="48.489683" lon="2.643372">
      <ele>101.839</ele>
      <time>2015-09-06T10:42:18Z</time>
    </trkpt>
    <trkpt lat="48.489772" lon="2.643249">
      <ele>102.125</ele>
      <time>2015-09-06T10:42:22Z</time>
    </trkpt>
    <trkpt lat="48.489864" lon="2.643158">
      <ele>102.188</ele>
      <time>2015-09-06T10:42:25Z</time>
    </trkpt>
    <trkpt lat="48.489983" lon="2.643024">
      <ele>101.886</ele>
      <time>2015-09-06T10:42:29Z</time>
    </trkpt>
    <trkpt lat="48.490071" lon="2.642893">
      <ele>101.67</ele>
      <time>2015-09-06T10:42:32Z</time>
    </trkpt>
    <trkpt lat="48.490189" lon="2.642746">
      <ele>101.68</ele>
      <time>2015-09-06T10:42:35Z</time>
    </trkpt>
    <trkpt lat="48.490291" lon="2.64264">
      <ele>102.0</ele>
      <time>2015-09-06T10:42:38Z</time>
    </trkpt>
    <trkpt lat="48.490376" lon="2.642555">
      <ele>102.0</ele>
      <time>2015-09-06T10:42:40Z</time>
    </trkpt>
    <trkpt lat="48.490455" lon="2.642466">
      <ele>101.878</ele>
      <time>2015-09-06T10:42:42Z</time>
    </trkpt>
    <trkpt lat="48.490528" lon="2.642348">
      <ele>101.453</ele>
      <time>2015-09-06T10:42:46Z</time>
    </trkpt>
    <trkpt lat="48.49061" lon="2.642253">
      <ele>101.089</ele>
      <time>2015-09-06T10:42:47Z</time>
    </trkpt>
    <trkpt lat="48.490709" lon="2.642117">
      <ele>100.83</ele>
      <time>2015-09-06T10:42:50Z</time>
    </trkpt>
    <trkpt lat="48.490789" lon="2.642019">
      <ele>100.883</ele>
      <time>2015-09-06T10:42:52Z</time>
    </trkpt>
    <trkpt lat="48.490886" lon="2.641917">
      <ele>101.19</ele>
      <time>2015-09-06T10:42:55Z</time>
    </trkpt>
    <trkpt lat="48.491009" lon="2.641796">
      <ele>101.632</ele>
      <time>2015-09-06T10:42:57Z</time>
    </trkpt>
    <trkpt lat="48.491139" lon="2.641625">
      <ele>102.135</ele>
      <time>2015-09-06T10:43:00Z</time>
    </trkpt>
    <trkpt lat="48.491226" lon="2.6415">
      <ele>102.352</ele>
      <time>2015-09-06T10:43:03Z</time>
    </trkpt>
    <trkpt lat="48.491443" lon="2.641189">
      <ele>102.525</ele>
      <time>2015-09-06T10:43:10Z</time>
    </trkpt>
    <trkpt lat="48.491545" lon="2.641042">
      <ele>102.329</ele>
      <time>2015-09-06T10:43:13Z</time>
    </trkpt>
    <trkpt lat="48.491654" lon="2.640907">
      <ele>102.012</ele>
      <time>2015-09-06T10:43:16Z</time>
    </trkpt>
    <trkpt lat="48.491779" lon="2.640773">
      <ele>102.129</ele>
      <time>2015-09-06T10:43:19Z</time>
    </trkpt>
    <trkpt lat="48.491876" lon="2.640656">
      <ele>102.157</ele>
      <time>2015-09-06T10:43:21Z</time>
    </trkpt>
    <trkpt lat="48.491985" lon="2.640542">
      <ele>101.854</ele>
      <time>2015-09-06T10:43:23Z</time>
    </trkpt>
    <trkpt lat="48.492056" lon="2.640457">
      <ele>101.598</ele>
      <time>2015-09-06T10:43:25Z</time>
    </trkpt>
    <trkpt lat="48.492146" lon="2.640408">
      <ele>101.274</ele>
      <time>2015-09-06T10:43:27Z</time>
    </trkpt>
    <trkpt lat="48.492264" lon="2.640276">
      <ele>100.994</ele>
      <time>2015-09-06T10:43:29Z</time>
    </trkpt>
    <trkpt lat="48.492349" lon="2.640176">
      <ele>100.634</ele>
      <time>2015-09-06T10:43:31Z</time>
    </trkpt>
    <trkpt lat="48.492457" lon="2.640068">
      <ele>100.245</ele>
      <time>2015-09-06T10:43:33Z</time>
    </trkpt>
    <trkpt lat="48.492538" lon="2.639907">
      <ele>100.0</ele>
      <time>2015-09-06T10:43:35Z</time>
    </trkpt>
    <trkpt lat="48.492605" lon="2.639798">
      <ele>100.0</ele>
      <time>2015-09-06T10:43:37Z</time>
    </trkpt>
    <trkpt lat="48.492735" lon="2.63964">
      <ele>100.046</ele>
      <time>2015-09-06T10:43:40Z</time>
    </trkpt>
    <trkpt lat="48.49284" lon="2.639594">
      <ele>99.776</ele>
      <time>2015-09-06T10:43:41Z</time>
    </trkpt>
    <trkpt lat="48.492922" lon="2.639493">
      <ele>99.481</ele>
      <time>2015-09-06T10:43:43Z</time>
    </trkpt>
    <trkpt lat="48.493006" lon="2.639417">
      <ele>99.196</ele>
      <time>2015-09-06T10:43:45Z</time>
    </trkpt>
    <trkpt lat="48.493096" lon="2.639306">
      <ele>98.709</ele>
      <time>2015-09-06T10:43:47Z</time>
    </trkpt>
    <trkpt lat="48.493214" lon="2.639132">
      <ele>97.984</ele>
      <time>2015-09-06T10:43:50Z</time>
    </trkpt>
    <trkpt lat="48.493273" lon="2.638996">
      <ele>98.049</ele>
      <time>2015-09-06T10:43:52Z</time>
    </trkpt>
    <trkpt lat="48.493432" lon="2.638781">
      <ele>98.25</ele>
      <time>2015-09-06T10:43:55Z</time>
    </trkpt>
    <trkpt lat="48.49352" lon="2.638657">
      <ele>98.274</ele>
      <time>2015-09-06T10:43:57Z</time>
    </trkpt>
    <trkpt lat="48.493607" lon="2.63853">
      <ele>97.723</ele>
      <time>2015-09-06T10:43:59Z</time>
    </trkpt>
    <trkpt lat="48.493704" lon="2.638401">
      <ele>97.162</ele>
      <time>2015-09-06T10:44:01Z</time>
    </trkpt>
    <trkpt lat="48.493801" lon="2.63829">
      <ele>96.844</ele>
      <time>2015-09-06T10:44:03Z</time>
    </trkpt>
    <trkpt lat="48.494015" lon="2.638049">
      <ele>95.522</ele>
      <time>2015-09-06T10:44:07Z</time>
    </trkpt>
    <trkpt lat="48.494117" lon="2.637946">
      <ele>94.784</ele>
      <time>2015-09-06T10:44:09Z</time>
    </trkpt>
    <trkpt lat="48.494209" lon="2.637838">
      <ele>94.217</ele>
      <time>2015-09-06T10:44:11Z</time>
    </trkpt>
    <trkpt lat="48.494314" lon="2.637713">
      <ele>93.767</ele>
      <time>2015-09-06T10:44:13Z</time>
    </trkpt>
    <trkpt lat="48.494431" lon="2.637579">
      <ele>93.284</ele>
      <time>2015-09-06T10:44:15Z</time>
    </trkpt>
    <trkpt lat="48.494541" lon="2.637451">
      <ele>93.348</ele>
      <time>2015-09-06T10:44:17Z</time>
    </trkpt>
    <trkpt lat="48.494638" lon="2.637324">
      <ele>93.697</ele>
      <time>2015-09-06T10:44:19Z</time>
    </trkpt>
    <trkpt lat="48.494735" lon="2.637194">
      <ele>93.908</ele>
      <time>2015-09-06T10:44:21Z</time>
    </trkpt>
    <trkpt lat="48.494841" lon="2.637065">
      <ele>93.918</ele>
      <time>2015-09-06T10:44:23Z</time>
    </trkpt>
    <trkpt lat="48.494945" lon="2.63692">
      <ele>94.604</ele>
      <time>2015-09-06T10:44:25Z</time>
    </trkpt>
    <trkpt lat="48.495045" lon="2.636789">
      <ele>95.0</ele>
      <time>2015-09-06T10:44:27Z</time>
    </trkpt>
    <trkpt lat="48.495159" lon="2.636662">
      <ele>94.99</ele>
      <time>2015-09-06T10:44:29Z</time>
    </trkpt>
    <trkpt lat="48.495266" lon="2.636517">
      <ele>94.484</ele>
      <time>2015-09-06T10:44:31Z</time>
    </trkpt>
    <trkpt lat="48.495379" lon="2.636385">
      <ele>93.262</ele>
      <time>2015-09-06T10:44:33Z</time>
    </trkpt>
    <trkpt lat="48.49552" lon="2.636187">
      <ele>92.163</ele>
      <time>2015-09-06T10:44:36Z</time>
    </trkpt>
    <trkpt lat="48.495633" lon="2.636052">
      <ele>91.568</ele>
      <time>2015-09-06T10:44:38Z</time>
    </trkpt>
    <trkpt lat="48.495743" lon="2.635912">
      <ele>91.092</ele>
      <time>2015-09-06T10:44:40Z</time>
    </trkpt>
    <trkpt lat="48.495844" lon="2.635785">
      <ele>91.0</ele>
      <time>2015-09-06T10:44:42Z</time>
    </trkpt>
    <trkpt lat="48.495946" lon="2.635665">
      <ele>91.0</ele>
      <time>2015-09-06T10:44:44Z</time>
    </trkpt>
    <trkpt lat="48.496027" lon="2.635564">
      <ele>91.0</ele>
      <time>2015-09-06T10:44:46Z</time>
    </trkpt>
    <trkpt lat="48.496087" lon="2.635446">
      <ele>91.0</ele>
      <time>2015-09-06T10:44:48Z</time>
    </trkpt>
    <trkpt lat="48.496176" lon="2.635354">
      <ele>91.234</ele>
      <time>2015-09-06T10:44:50Z</time>
    </trkpt>
    <trkpt lat="48.496262" lon="2.635267">
      <ele>91.543</ele>
      <time>2015-09-06T10:44:52Z</time>
    </trkpt>
    <trkpt lat="48.496399" lon="2.635118">
      <ele>92.036</ele>
      <time>2015-09-06T10:44:55Z</time>
    </trkpt>
    <trkpt lat="48.49648" lon="2.635039">
      <ele>92.328</ele>
      <time>2015-09-06T10:44:57Z</time>
    </trkpt>
    <trkpt lat="48.496553" lon="2.634934">
      <ele>92.353</ele>
      <time>2015-09-06T10:44:59Z</time>
    </trkpt>
    <trkpt lat="48.49662" lon="2.634806">
      <ele>92.134</ele>
      <time>2015-09-06T10:45:01Z</time>
    </trkpt>
    <trkpt lat="48.496674" lon="2.634665">
      <ele>92.047</ele>
      <time>2015-09-06T10:45:04Z</time>
    </trkpt>
  </trkseg>
</trk>
</gpx>
